[[{"header":{"parameterUnit":"m.s-1","parameterCategory":1,"la1":30.6,"la2":28.766,"lo1":-90.7593,"lo2":-88.6598,"dy":0.0162,"dx":0.0183,"nx":116,"ny":114,"refTime":"2024-03-20T12:00:00:Z","depth":0,"parameterNumber":2,"parameterNumberName":"U-component_of_WINDS"},"data":[0.0,0.0,0.0,0.0,0.0,0.0,0.0,0.0,0.0,0.0,0.0,0.0,0.0,0.0,0.0,0.0,0.0,0.0,0.0,0.0,0.0,0.0,0.0,0.0,0.0,0.0,0.0,0.0,0.0,0.0,0.0,0.0,0.0,0.0,0.0,0.0,0.0,0.0,0.0,0.0,0.0,0.0,0.0,0.0,0.0,0.0,0.0,0.0,0.0,0.0,0.0,0.0,0.0,0.0,0.0,0.0,0.0,0.0,0.0,0.0,0.0,0.0,0.0,0.0,0.0,0.0,0.0,0.0,0.0,0.0,0.0,0.0,0.0,0.0,0.0,0.0,0.0,0.0,0.0,0.0,0.0,0.0,0.0,0.0,0.0,0.0,0.0,0.0,0.0,0.0,0.0,0.0,0.0,0.0,0.0,0.0,0.0,0.0,0.0,0.0,0.0,0.0,0.0,0.0,0.0,0.0,0.0,0.0,0.0,0.0,0.0,0.0,0.0,0.0,0.0,0.0,0.0,0.0,0.0,0.0,0.0,0.0,0.0,0.0,0.0,0.0,0.0,0.0,0.0,0.0,0.0,0.0,0.0,0.0,0.0,0.0,0.0,0.0,0.0,0.0,0.0,0.0,0.0,0.0,0.0,0.0,0.0,0.0,0.0,0.0,0.0,0.0,0.0,0.0,0.0,0.0,0.0,0.0,0.0,0.0,0.0,0.0,0.0,0.0,0.0,0.0,0.0,0.0,0.0,0.0,0.0,0.0,0.0,0.0,0.0,0.0,0.0,0.0,0.0,0.0,0.0,0.0,0.0,0.0,0.0,0.0,0.0,0.0,0.0,0.0,0.0,0.0,0.0,0.0,0.0,0.0,0.0,0.0,0.0,0.0,0.0,0.0,0.0,0.0,0.0,0.0,0.0,0.0,0.0,0.0,0.0,0.0,0.0,0.0,0.0,0.0,0.0,0.0,0.0,0.0,0.0,0.0,0.0,0.0,0.0,0.0,0.0,0.0,0.0,0.0,0.0,0.0,0.0,0.0,0.0,0.0,0.0,0.0,0.0,0.0,0.0,0.0,0.0,0.0,0.0,0.0,0.0,0.0,0.0,0.0,0.0,0.0,0.0,0.0,0.0,0.0,0.0,0.0,0.0,0.0,0.0,0.0,0.0,0.0,0.0,0.0,0.0,0.0,0.0,0.0,0.0,0.0,0.0,0.0,0.0,0.0,0.0,0.0,0.0,0.0,0.0,0.0,0.0,0.0,0.0,0.0,0.0,0.0,0.0,0.0,0.0,0.0,0.0,0.0,0.0,0.0,0.0,0.0,0.0,0.0,0.0,0.0,0.0,0.0,0.0,0.0,0.0,0.0,0.0,0.0,0.0,0.0,0.0,0.0,0.0,0.0,0.0,0.0,0.0,0.0,0.0,0.0,0.0,0.0,0.0,0.0,0.0,0.0,0.0,0.0,0.0,0.0,0.0,0.0,0.0,0.0,0.0,0.0,0.0,0.0,0.0,0.0,0.0,0.0,0.0,0.0,0.0,0.0,0.0,0.0,0.0,0.0,0.0,0.0,0.0,0.0,0.0,0.0,0.0,0.0,0.0,0.0,0.0,0.0,0.0,0.0,0.0,0.0,0.0,0.0,0.0,0.0,0.0,0.0,0.0,0.0,0.0,0.0,0.0,0.0,0.0,0.0,0.0,0.0,0.0,0.0,0.0,0.0,0.0,0.0,0.0,0.0,0.0,0.0,0.0,0.0,0.0,0.0,0.0,0.0,0.0,0.0,0.0,0.0,0.0,0.0,0.0,0.0,0.0,0.0,0.0,0.0,0.0,0.0,0.0,0.0,0.0,0.0,0.0,0.0,0.0,0.0,0.0,0.0,0.0,0.0,0.0,0.0,0.0,0.0,0.0,0.0,0.0,0.0,0.0,0.0,0.0,0.0,0.0,0.0,0.0,0.0,0.0,0.0,0.0,0.0,0.0,0.0,0.0,0.0,0.0,0.0,0.0,0.0,0.0,0.0,0.0,0.0,0.0,0.0,0.0,0.0,0.0,0.0,0.0,0.0,0.0,0.0,0.0,0.0,0.0,0.0,0.0,0.0,0.0,0.0,0.0,0.0,0.0,0.0,0.0,0.0,0.0,0.0,0.0,0.0,0.0,0.0,0.0,0.0,0.0,0.0,0.0,0.0,0.0,0.0,0.0,0.0,0.0,0.0,0.0,0.0,0.0,0.0,0.0,0.0,0.0,0.0,0.0,0.0,0.0,0.0,0.0,0.0,0.0,0.0,0.0,0.0,0.0,0.0,0.0,0.0,0.0,0.0,0.0,0.0,0.0,0.0,0.0,0.0,0.0,0.0,0.0,0.0,0.0,0.0,0.0,0.0,0.0,0.0,0.0,0.0,0.0,0.0,0.0,0.0,0.0,0.0,0.0,0.0,0.0,0.0,0.0,0.0,0.0,0.0,0.0,0.0,0.0,0.0,0.0,0.0,0.0,0.0,0.0,0.0,0.0,0.0,0.0,0.0,0.0,0.0,0.0,0.0,0.0,0.0,0.0,0.0,0.0,0.0,0.0,0.0,0.0,0.0,0.0,0.0,0.0,0.0,0.0,0.0,0.0,0.0,0.0,0.0,0.0,0.0,0.0,0.0,0.0,0.0,0.0,0.0,0.0,0.0,0.0,0.0,0.0,0.0,0.0,0.0,0.0,0.0,0.0,0.0,0.0,0.0,0.0,0.0,0.0,0.0,0.0,0.0,0.0,0.0,0.0,0.0,0.0,0.0,0.0,0.0,0.0,0.0,0.0,0.0,0.0,0.0,0.0,0.0,0.0,0.0,0.0,0.0,0.0,0.0,0.0,0.0,0.0,0.0,0.0,0.0,0.0,0.0,0.0,0.0,0.0,0.0,0.0,0.0,0.0,0.0,0.0,0.0,0.0,0.0,0.0,0.0,0.0,0.0,0.0,0.0,0.0,0.0,0.0,0.0,0.0,0.0,0.0,0.0,0.0,0.0,0.0,0.0,0.0,0.0,0.0,0.0,0.0,0.0,0.0,0.0,0.0,0.0,0.0,0.0,0.0,0.0,0.0,0.0,0.0,0.0,0.0,0.0,0.0,0.0,0.0,0.0,0.0,0.0,0.0,0.0,0.0,0.0,0.0,0.0,0.0,0.0,0.0,0.0,0.0,0.0,0.0,0.0,0.0,0.0,0.0,0.0,0.0,0.0,0.0,0.0,0.0,0.0,0.0,0.0,0.0,0.0,0.0,0.0,0.0,0.0,0.0,0.0,0.0,0.0,0.0,0.0,0.0,0.0,0.0,0.0,0.0,0.0,0.0,0.0,0.0,0.0,0.0,0.0,0.0,0.0,0.0,0.0,0.0,0.0,0.0,0.0,0.0,0.0,0.0,0.0,0.0,0.0,0.0,0.0,0.0,0.0,0.0,0.0,0.0,0.0,0.0,0.0,0.0,0.0,0.0,0.0,0.0,0.0,0.0,0.0,0.0,0.0,0.0,0.0,0.0,0.0,0.0,0.0,0.0,0.0,0.0,0.0,0.0,0.0,0.0,0.0,0.0,0.0,0.0,0.0,0.0,0.0,0.0,0.0,0.0,0.0,0.0,0.0,0.0,0.0,0.0,0.0,0.0,0.0,0.0,0.0,0.0,0.0,0.0,0.0,0.0,0.0,0.0,0.0,0.0,0.0,0.0,0.0,0.0,0.0,0.0,0.0,0.0,0.0,0.0,0.0,0.0,0.0,0.0,0.0,0.0,0.0,0.0,0.0,0.0,0.0,0.0,0.0,0.0,0.0,0.0,0.0,0.0,0.0,0.0,0.0,0.0,0.0,0.0,0.0,0.0,0.0,0.0,0.0,0.0,0.0,0.0,0.0,0.0,0.0,0.0,0.0,0.0,0.0,0.0,0.0,0.0,0.0,0.0,0.0,0.0,0.0,0.0,0.0,0.0,0.0,0.0,0.0,0.0,0.0,0.0,0.0,0.0,0.0,0.0,0.0,0.0,0.0,0.0,0.0,0.0,0.0,0.0,0.0,0.0,0.0,0.0,0.0,0.0,0.0,0.0,0.0,0.0,0.0,0.0,0.0,0.0,0.0,0.0,0.0,0.0,0.0,0.0,0.0,0.0,0.0,0.0,0.0,0.0,0.0,0.0,0.0,0.0,0.0,0.0,0.0,0.0,0.0,0.0,0.0,0.0,0.0,0.0,0.0,0.0,0.0,0.0,0.0,0.0,0.0,0.0,0.0,0.0,0.0,0.0,0.0,0.0,0.0,0.0,0.0,0.0,0.0,0.0,0.0,0.0,0.0,0.0,0.0,0.0,0.0,0.0,0.0,0.0,0.0,0.0,0.0,0.0,0.0,0.0,0.0,0.0,0.0,0.0,0.0,0.0,0.0,0.0,0.0,0.0,0.0,0.0,0.0,0.0,0.0,0.0,0.0,0.0,0.0,0.0,0.0,0.0,0.0,0.0,0.0,0.0,0.0,0.0,0.0,0.0,0.0,0.0,0.0,0.0,0.0,0.0,0.0,0.0,0.0,0.0,0.0,0.0,0.0,0.0,0.0,0.0,0.0,0.0,0.0,0.0,0.0,0.0,0.0,0.0,0.0,0.0,0.0,0.0,0.0,0.0,0.0,0.0,0.0,0.0,0.0,0.0,0.0,0.0,0.0,0.0,0.0,0.0,0.0,0.0,0.0,0.0,0.0,0.0,0.0,0.0,0.0,0.0,0.0,0.0,0.0,0.0,0.0,0.0,0.0,0.0,0.0,0.0,0.0,0.0,0.0,0.0,0.0,0.0,0.0,0.0,0.0,0.0,0.0,0.0,0.0,0.0,0.0,0.0,0.0,0.0,0.0,0.0,0.0,0.0,0.0,0.0,0.0,0.0,0.0,0.0,0.0,0.0,0.0,0.0,0.0,0.0,0.0,0.0,0.0,0.0,0.0,0.0,0.0,0.0,0.0,0.0,0.0,0.0,0.0,0.0,0.0,0.0,0.0,0.0,0.0,0.0,0.0,0.0,0.0,0.0,0.0,0.0,0.0,0.0,0.0,0.0,0.0,0.0,0.0,0.0,0.0,0.0,0.0,0.0,0.0,0.0,0.0,0.0,0.0,0.0,0.0,0.0,0.0,0.0,0.0,0.0,0.0,0.0,0.0,0.0,0.0,0.0,0.0,0.0,0.0,0.0,0.0,0.0,0.0,0.0,0.0,0.0,0.0,0.0,0.0,0.0,0.0,0.0,0.0,0.0,0.0,0.0,0.0,0.0,0.0,0.0,0.0,0.0,0.0,0.0,0.0,0.0,0.0,0.0,0.0,0.0,0.0,0.0,0.0,0.0,0.0,0.0,0.0,0.0,0.0,0.0,0.0,0.0,0.0,0.0,0.0,0.0,0.0,0.0,0.0,0.0,0.0,0.0,0.0,0.0,0.0,0.0,0.0,0.0,0.0,0.0,0.0,0.0,0.0,0.0,0.0,0.0,0.0,0.0,0.0,0.0,0.0,0.0,0.0,0.0,0.0,0.0,0.0,0.0,0.0,0.0,0.0,0.0,0.0,0.0,0.0,0.0,0.0,0.0,0.0,0.0,0.0,0.0,0.0,0.0,0.0,0.0,0.0,0.0,0.0,0.0,0.0,0.0,0.0,0.0,0.0,0.0,0.0,0.0,0.0,0.0,0.0,0.0,0.0,0.0,0.0,0.0,0.0,0.0,0.0,0.0,0.0,0.0,0.0,0.0,0.0,0.0,0.0,0.0,0.0,0.0,0.0,0.0,0.0,0.0,0.0,0.0,0.0,0.0,0.0,0.0,0.0,0.0,0.0,0.0,0.0,0.0,0.0,0.0,0.0,0.0,0.0,0.0,0.0,0.0,0.0,0.0,0.0,0.0,0.0,0.0,0.0,0.0,0.0,0.0,0.0,0.0,0.0,0.0,0.0,0.0,0.0,0.0,0.0,0.0,0.0,0.0,0.0,0.0,0.0,0.0,0.0,0.0,0.0,0.0,0.0,0.0,0.0,0.0,0.0,0.0,0.0,0.0,0.0,0.0,0.0,0.0,0.0,0.0,0.0,0.0,0.0,0.0,0.0,0.0,0.0,-0.561,0.0,0.0,0.0,0.0,0.0,0.0,0.0,0.0,0.0,0.0,0.0,0.0,0.0,0.0,0.0,0.0,0.0,0.0,0.0,0.0,0.0,0.0,0.0,0.0,0.0,0.0,0.0,-0.8703,-0.8669,-0.8594,-0.8737,-0.8784,-0.8703,-1.1062,-1.2313,-1.2096,-1.4616,-1.5885,-1.5873,-1.562,-1.5227,-1.4641,-1.3702,-1.1504,-0.8364,0.0,0.0,0.0,0.0,0.0,0.0,0.0,0.0,0.0,0.0,0.0,0.0,0.0,0.0,0.0,0.0,0.0,0.0,0.0,0.0,0.0,0.0,0.0,0.0,0.0,0.0,0.0,0.0,0.0,0.0,0.0,0.0,0.0,0.0,0.0,0.0,0.0,0.0,0.0,0.0,0.0,0.0,0.0,0.0,0.0,0.0,0.0,0.0,0.0,0.0,0.0,0.0,0.0,0.0,0.0,0.0,0.0,0.0,0.0,0.0,0.0,0.0,0.0,0.0,0.0,0.0,0.0,0.0,0.0,0.0,0.0,-0.6542,0.0,0.0,0.0,0.0,0.0,0.0,0.0,0.0,0.0,0.0,0.0,0.0,0.0,0.0,0.0,0.0,0.0,0.0,0.0,0.0,0.0,0.0,0.0,-0.9473,-0.9533,-0.9479,-0.9375,-0.9286,-0.9159,-0.903,-0.8988,-0.8959,-1.0987,-1.2282,-1.2576,-1.4613,-1.6036,-1.6818,-1.6132,-1.5533,-1.511,-1.562,-1.3933,-1.0558,-0.9082,0.0,0.0,0.0,0.0,0.0,0.0,0.0,0.0,0.0,0.0,0.0,0.0,0.0,0.0,0.0,0.0,0.0,0.0,0.0,0.0,0.0,0.0,0.0,0.0,0.0,0.0,0.0,0.0,0.0,0.0,0.0,0.0,0.0,0.0,0.0,0.0,0.0,0.0,0.0,0.0,0.0,0.0,0.0,0.0,0.0,0.0,0.0,0.0,0.0,0.0,0.0,0.0,0.0,0.0,0.0,0.0,0.0,0.0,0.0,0.0,0.0,0.0,0.0,-1.3305,-1.3868,-1.4765,-1.4915,-1.4959,-1.4615,-1.1442,-0.9197,-0.7766,-0.7735,0.0,0.0,0.0,0.0,0.0,0.0,0.0,0.0,0.0,0.0,0.0,0.0,0.0,0.0,0.0,0.0,0.0,0.0,0.0,0.0,0.0,-1.169,-1.2348,-1.2608,-1.1631,-1.0955,-1.0931,-0.9801,-0.9184,-0.932,-1.0341,-1.1696,-1.3323,-1.428,-1.5553,-1.7142,-1.6984,-1.6975,-1.7101,-1.6552,-1.6132,-1.5658,-1.2125,-1.0539,-1.0342,0.0,0.0,0.0,0.0,0.0,0.0,0.0,0.0,0.0,0.0,0.0,0.0,0.0,0.0,0.0,0.0,0.0,0.0,0.0,0.0,0.0,0.0,0.0,0.0,0.0,0.0,0.0,0.0,0.0,0.0,0.0,0.0,0.0,0.0,0.0,0.0,0.0,0.0,0.0,0.0,0.0,-0.919,-0.9472,0.0,0.0,0.0,0.0,0.0,0.0,0.0,0.0,0.0,0.0,0.0,0.0,0.0,-1.3959,-1.439,-1.4983,-1.5394,-1.5623,-1.6146,-1.6262,-1.6031,-1.6234,-1.6215,-1.5943,-1.5442,0.0,-1.2432,-1.1695,0.0,0.0,0.0,0.0,0.0,0.0,0.0,0.0,0.0,0.0,0.0,0.0,0.0,0.0,0.0,0.0,0.0,0.0,0.0,0.0,0.0,-1.2188,-1.2281,-1.2532,-1.1657,-1.0882,-1.048,-1.0105,-1.0109,-1.0424,-1.0778,-1.1668,-1.3193,-1.3394,-1.4351,-1.6149,-1.7633,-1.8489,-1.8855,-1.9399,-1.9267,-1.8676,-1.635,-1.399,-1.1637,-1.1038,0.0,0.0,0.0,0.0,0.0,0.0,0.0,0.0,0.0,0.0,0.0,0.0,0.0,0.0,0.0,0.0,0.0,0.0,0.0,0.0,0.0,0.0,0.0,0.0,0.0,0.0,0.0,0.0,0.0,0.0,0.0,0.0,0.0,0.0,0.0,0.0,0.0,0.0,0.0,-0.9459,-0.9904,-0.967,-1.0105,-1.0247,0.0,0.0,0.0,0.0,0.0,0.0,0.0,0.0,0.0,-1.4752,-1.5393,-1.5826,-1.6148,-1.6593,-1.7129,-1.7691,-1.816,-1.8532,-1.8922,-1.915,-1.9202,-1.9033,-1.8898,-1.8187,-1.6871,-1.4638,-1.3098,-1.2215,0.0,0.0,0.0,0.0,-1.1836,-1.2255,0.0,0.0,0.0,0.0,0.0,0.0,0.0,0.0,0.0,0.0,0.0,0.0,-1.4121,-1.3819,-1.3837,-1.4381,-1.3095,-1.2029,-1.1512,-1.106,-1.1051,-1.1573,-1.162,-1.2197,-1.3326,-1.3791,-1.4738,-1.6169,-1.8753,-2.0225,-2.0617,-2.1822,-2.1872,-2.1088,-2.0226,-1.7552,-1.3722,-1.3499,-1.1979,-0.9808,0.0,0.0,0.0,0.0,0.0,0.0,0.0,0.0,0.0,0.0,0.0,0.0,0.0,0.0,0.0,0.0,0.0,0.0,0.0,0.0,0.0,0.0,0.0,0.0,0.0,0.0,0.0,0.0,0.0,0.0,0.0,0.0,0.0,0.0,0.0,0.0,0.0,-1.0875,-1.1281,-1.0696,-1.1661,-1.1963,0.0,0.0,0.0,0.0,0.0,0.0,-1.5261,-1.5771,-1.646,-1.7273,-1.7706,-1.802,-1.8251,-1.8555,-1.9068,-1.9787,-2.0051,-2.0621,-2.1276,-2.1459,-2.1513,-2.1448,-2.1254,-2.0813,-2.0048,-1.7001,-1.5153,-1.4104,-1.3613,-1.3331,-1.3272,-1.3338,-1.3532,-1.3874,0.0,0.0,0.0,0.0,0.0,0.0,0.0,0.0,0.0,0.0,0.0,-1.6016,-1.6615,-1.792,-1.9245,-2.0577,-1.7823,-1.6005,-1.6008,-1.3229,-1.188,-1.2339,-1.2848,-1.3422,-1.4205,-1.6625,-1.8066,-1.8421,-2.0935,-2.2307,-2.26,-2.2903,-2.3157,-2.3207,-2.3019,-2.0966,-1.7527,-1.5267,-1.4122,-1.374,-1.265,0.0,0.0,0.0,0.0,0.0,0.0,0.0,0.0,0.0,0.0,0.0,0.0,0.0,0.0,0.0,0.0,0.0,0.0,0.0,0.0,0.0,0.0,0.0,0.0,0.0,0.0,0.0,0.0,0.0,0.0,0.0,0.0,0.0,0.0,0.0,0.0,0.0,0.0,-1.385,-1.4873,0.0,0.0,0.0,0.0,-1.493,-1.558,-1.6226,-1.6839,-1.7852,-1.8874,-1.9799,-2.0818,-2.1484,-2.172,-2.1978,-2.2106,-2.2128,-2.2149,-2.2171,-2.2266,-2.2277,-2.2159,-2.1933,-2.1922,-2.1642,-2.106,-1.906,-1.7497,-1.6388,-1.5657,-1.5258,-1.5064,-1.5064,-1.5523,-1.61,0.0,0.0,0.0,0.0,0.0,0.0,0.0,0.0,-1.5235,-1.5631,-1.6577,-1.7625,-1.8694,-1.9335,-2.005,-2.1114,-1.9316,-1.7961,-1.7492,-1.5607,-1.4909,-1.5982,-1.3815,-1.2449,-1.2328,-1.3445,-1.5552,-1.8451,-2.0203,-2.227,-2.4544,-2.5139,-2.5147,-2.4831,-2.4919,-2.4132,-2.2479,-1.9622,-1.6979,-1.4625,-1.4087,-1.2983,0.0,0.0,0.0,0.0,0.0,0.0,0.0,0.0,0.0,0.0,0.0,0.0,0.0,0.0,0.0,0.0,0.0,0.0,0.0,0.0,0.0,0.0,0.0,0.0,0.0,0.0,0.0,0.0,0.0,0.0,0.0,0.0,0.0,0.0,0.0,0.0,0.0,-1.632,-1.7169,0.0,-1.6274,-1.6519,-1.7015,-1.7592,-1.8622,-1.9594,-2.0586,-2.1188,-2.1736,-2.2459,-2.2664,-2.2729,-2.2665,-2.2751,-2.2718,-2.2557,-2.2557,-2.2729,-2.2986,-2.2986,-2.3113,-2.3365,-2.3365,-2.3185,-2.2804,-2.1772,-2.0241,-1.8396,-1.7845,-1.74,-1.706,-1.706,-1.715,-1.7282,0.0,0.0,0.0,0.0,0.0,0.0,0.0,0.0,-1.5427,-1.6308,-1.7274,-1.8529,-2.0231,-2.0862,-2.1557,-2.2542,-2.1061,-1.9866,-1.9355,-1.7619,-1.7042,-1.7995,-1.4997,-1.2877,-1.2071,-1.3111,-1.5065,-1.8002,-1.9818,-2.2175,-2.5038,-2.5542,-2.579,-2.6039,-2.616,-2.5982,-2.5435,-2.3404,-2.0615,-1.7586,-1.6963,-1.5937,-1.45,0.0,0.0,0.0,0.0,0.0,0.0,0.0,0.0,0.0,0.0,0.0,0.0,0.0,0.0,0.0,0.0,0.0,0.0,0.0,0.0,0.0,0.0,0.0,0.0,0.0,0.0,0.0,0.0,0.0,0.0,0.0,0.0,0.0,0.0,-1.6957,-1.8351,-1.8648,-1.9655,-1.9926,-1.9044,-1.9326,-1.9839,-2.0541,-2.1424,-2.2309,-2.3343,-2.3483,-2.3666,-2.3978,-2.3838,-2.3569,-2.3171,-2.3171,-2.3009,-2.2686,-2.2859,-2.3117,-2.3376,-2.3548,-2.3806,-2.4064,-2.4064,-2.3972,-2.3789,-2.3367,-2.2303,-2.0726,-2.0076,-1.958,-1.9299,-1.9767,-1.9748,-1.9808,0.0,0.0,0.0,0.0,0.0,0.0,0.0,-1.3766,-1.5447,-1.6573,-1.743,-1.8906,-2.1304,-2.2705,-2.3965,-2.5349,-2.3221,-2.1908,-2.1873,-1.9421,-1.7994,-1.8148,-1.637,-1.4868,-1.384,-1.6048,-1.7305,-1.7434,-2.025,-2.2466,-2.4138,-2.4138,-2.5092,-2.6906,-2.6893,-2.674,-2.6472,-2.6192,-2.4879,-2.2814,-2.1363,-1.9887,-1.8411,0.0,0.0,0.0,0.0,0.0,0.0,0.0,0.0,0.0,0.0,0.0,0.0,0.0,0.0,0.0,0.0,0.0,0.0,0.0,0.0,0.0,0.0,0.0,0.0,0.0,0.0,0.0,0.0,0.0,0.0,0.0,0.0,0.0,-1.6599,-1.9404,-2.1346,-2.121,-2.2642,-2.3271,-2.2327,-2.2653,-2.3217,-2.3922,-2.3976,-2.428,-2.4974,-2.479,-2.466,-2.4567,-2.4556,-2.421,-2.3408,-2.3397,-2.3248,-2.2772,-2.3204,-2.3462,-2.3462,-2.3892,-2.4064,-2.4064,-2.4149,-2.4235,-2.4212,-2.3959,-2.379,-2.3361,-2.2281,-2.1665,-2.1643,-2.2918,-2.3462,-2.3654,0.0,0.0,0.0,0.0,0.0,0.0,0.0,-1.309,-1.4657,-1.6702,-1.836,-2.0098,-2.2176,-2.3852,-2.5192,-2.594,-2.4508,-2.3501,-2.3433,-2.1066,-1.8789,-1.6746,-1.5586,-1.4744,-1.4415,-1.6634,-1.8893,-2.1184,-2.3402,-2.5512,-2.7654,-2.7654,-2.7914,-2.8346,-2.8234,-2.8089,-2.7997,-2.7693,-2.7073,-2.6096,-2.3365,-2.1602,-2.0414,0.0,0.0,0.0,0.0,0.0,0.0,0.0,0.0,0.0,0.0,0.0,0.0,0.0,0.0,0.0,0.0,0.0,0.0,0.0,0.0,0.0,0.0,0.0,0.0,0.0,0.0,0.0,0.0,0.0,0.0,0.0,-1.9838,-2.1691,-2.06,-2.2794,-2.52,-2.694,-2.7915,-2.8285,-2.7805,-2.7879,-2.8063,-2.8204,-2.8401,-2.8503,-2.8628,-2.8478,-2.7697,-2.6398,-2.6214,-2.5297,-2.3408,-2.4363,-2.4631,-2.4126,-2.4298,-2.4555,-2.4811,-2.3966,-2.3806,-2.4235,-2.5823,-2.6491,-2.6635,-2.8012,-2.8372,-2.7622,-2.3864,-2.2088,-2.1897,-2.319,-2.467,-2.5956,0.0,0.0,0.0,0.0,0.0,0.0,0.0,-1.2525,-1.4195,-1.6103,-1.8396,-2.0509,-2.215,-2.3985,-2.518,-2.5373,-2.4398,-2.3794,-2.3535,-2.1306,-1.8746,-1.5836,-1.5561,-1.5638,-1.6,-1.7879,-2.0124,-2.27,-2.4141,-2.5896,-2.8064,-2.8064,-2.8481,-2.9392,-2.9098,-2.8978,-2.8951,-2.8524,-2.823,-2.7936,-2.5872,-2.4529,-2.3568,-2.1288,-2.0025,-1.9321,-1.8348,-1.671,-1.5064,-1.4978,0.0,0.0,0.0,0.0,0.0,0.0,0.0,0.0,0.0,0.0,0.0,0.0,0.0,0.0,0.0,0.0,0.0,0.0,0.0,0.0,0.0,0.0,0.0,0.0,-2.275,-2.5252,-2.57,-2.6866,-2.834,-2.9955,-3.0549,-3.0818,-3.067,-3.0549,-3.0459,-3.0491,-3.0414,-3.0325,-3.0115,-2.995,-2.9256,-2.7828,-2.786,-2.708,-2.5399,-2.6186,-2.6321,-2.5982,-2.6167,-2.6425,-2.6598,-2.5885,-2.575,0.0,-2.7233,-2.7675,-2.783,-2.9269,-2.9684,0.0,0.0,0.0,0.0,0.0,-2.732,-2.8428,0.0,0.0,0.0,0.0,0.0,0.0,0.0,-1.2051,-1.3879,-1.5281,-1.8081,-2.0364,-2.1595,-2.3333,-2.4335,-2.4166,-2.3507,-2.2935,-2.2471,-2.0461,-1.814,-1.5415,-1.6241,-1.7262,-1.8241,-1.9967,-2.1629,-2.3361,-2.4116,-2.5408,-2.7136,-2.7161,-2.8219,-3.0007,-2.9713,-2.9579,-2.9539,-2.8991,-2.8711,-2.8631,-2.839,-2.7764,-2.68,-2.5099,-2.3879,-2.3172,-2.3098,-2.0922,-1.8295,-1.8964,0.0,0.0,0.0,0.0,0.0,0.0,0.0,0.0,0.0,0.0,0.0,0.0,0.0,0.0,0.0,0.0,0.0,0.0,0.0,0.0,0.0,0.0,0.0,0.0,-2.5042,-2.8088,-3.1115,-3.1312,-3.1229,-3.1614,-3.184,-3.2099,-3.232,-3.1905,-3.1698,-3.1793,-3.1438,-3.1011,-3.0509,0.0,0.0,0.0,0.0,-2.9052,-2.8105,-2.827,-2.8217,-2.7946,-2.8382,-2.8557,-2.8504,-2.8426,-2.8465,-2.8425,-2.8328,-2.8292,-2.8362,-2.9159,-2.9485,-2.952,-2.9435,-2.914,-2.9035,-2.9862,-3.0324,-3.048,0.0,0.0,0.0,0.0,0.0,0.0,0.0,-1.201,-1.335,-1.6331,-1.8596,-2.0146,-2.0822,-2.2174,-2.3188,-2.3495,-2.2536,-2.1432,-2.0262,-1.8507,-1.725,-1.6696,-1.7699,-1.8889,-2.0034,-2.3554,-2.5759,-2.6485,-2.8302,-2.9352,-2.9728,-2.9873,-3.0201,-3.0608,-3.0314,-3.0194,-3.0167,-2.9806,-2.9392,-2.8965,-2.9152,-2.8239,-2.6759,-2.6226,-2.5394,-2.4599,-2.409,-2.3235,-2.2138,-2.1436,-2.0285,-1.8774,-1.6033,0.0,0.0,0.0,0.0,0.0,0.0,0.0,0.0,0.0,0.0,0.0,0.0,0.0,0.0,0.0,0.0,0.0,0.0,0.0,0.0,-2.79,-3.0612,-3.3036,-3.4541,-3.5172,-3.5278,-3.5149,-3.5421,-3.5535,-3.5335,-3.5435,-3.5335,-3.4892,-3.4735,-3.4421,-3.377,-3.3836,-3.2948,-3.1148,-3.1096,-3.0146,-2.8105,-2.9154,-2.9636,-2.9352,0.0,0.0,-2.9073,-2.7977,-2.7307,-2.7259,-2.8964,-2.969,-2.9843,-3.179,-3.2676,-3.2428,-3.0058,-2.9204,-2.9427,-3.0068,-3.0543,-3.0877,0.0,0.0,0.0,0.0,0.0,0.0,0.0,-1.1596,-1.2991,-1.5705,-1.7968,-1.9386,-1.9652,-2.0929,-2.1547,-2.1281,-2.1,-2.0455,-1.9565,-1.9536,-1.9552,-1.9584,-2.0508,-2.2005,-2.4009,-2.6038,-2.7718,-2.9059,-2.9965,-3.0515,-3.0795,-3.0942,-3.1089,-3.1223,-3.0929,-3.0795,-3.0768,-3.0327,-2.9967,-2.9686,-2.9539,-2.8858,-2.7896,-2.7615,-2.7041,-2.6346,-2.6052,-2.5479,-2.4748,-2.4073,-2.3154,-2.1934,-1.9967,-1.8235,-1.6886,0.0,0.0,0.0,0.0,0.0,0.0,0.0,0.0,0.0,0.0,0.0,0.0,0.0,0.0,-2.2647,-2.4694,0.0,-2.8938,-3.0937,-3.3205,-3.4878,-3.5792,-3.6305,-3.6539,-3.6378,-3.6509,-3.6539,-3.6378,-3.6509,-3.6407,-3.5924,-3.5734,-3.5368,-3.4739,-3.471,-3.403,-3.2725,-3.2761,-3.2274,-3.0911,-3.1385,-3.16,-3.1532,-3.1376,-3.122,-3.1064,-2.9962,-2.947,-2.9319,-3.0097,-3.0455,-3.0538,-3.2128,-3.298,-3.3113,-3.1369,-3.098,-3.1334,-3.0782,-3.0769,-3.0937,0.0,0.0,0.0,0.0,0.0,0.0,0.0,-1.139,-1.2773,-1.4954,-1.7137,-1.8432,-1.8384,-1.947,-1.9881,-1.9072,-1.9695,-2.0002,-1.9742,-2.1133,-2.2121,-2.2311,-2.3504,-2.5307,-2.7706,-2.7934,-2.898,-3.0875,-3.0635,-3.0768,-3.1223,-3.1289,-3.1436,-3.1664,-3.1423,-3.1316,-3.1276,-3.0808,-3.0555,-3.0394,-2.9873,-2.9406,-2.9005,-2.8724,-2.827,-2.7776,-2.7722,-2.7094,-2.6279,-2.6106,-2.5331,-2.4296,-2.3464,-2.1949,-2.0344,-2.0295,-1.9687,0.0,0.0,0.0,0.0,0.0,0.0,0.0,0.0,-2.1821,-2.2553,-2.3732,-2.4875,-2.6078,-2.7742,-2.9406,-3.1151,-3.2884,-3.442,-3.5573,-3.6129,-3.6436,-3.6583,-3.6524,-3.6568,-3.6597,-3.6597,-3.6597,-3.6466,-3.6144,-3.5822,-3.5397,-3.4827,-3.4739,-3.4432,-3.3846,-3.408,-3.4066,-3.3729,-3.3466,-3.3334,-3.3334,-3.3012,-3.2793,-3.2661,-3.2061,-3.1724,-3.1578,-3.1051,-3.0817,-3.0817,-3.1565,-3.2176,-3.2597,-3.2138,-3.2388,-3.286,-3.1437,-3.0852,-3.0657,0.0,0.0,0.0,0.0,0.0,0.0,0.0,0.0,-1.2985,-1.5775,-1.7023,-1.7527,-1.7298,-1.8046,-1.8601,-1.8722,-1.9657,-2.0297,-2.0362,-2.1468,-2.2382,-2.2983,-2.5399,-2.7237,-2.8241,-2.9644,-3.069,-3.1183,-3.1142,-3.1156,-3.1236,-3.149,-3.1637,-3.1664,-3.1637,-3.1623,-3.161,-3.1543,-3.1223,-3.0715,-3.0394,-2.9766,-2.9005,-2.8724,-2.839,-2.814,-2.7789,-2.6974,-2.6117,-2.6266,-2.5905,-2.5076,-2.353,-2.2706,-2.2107,-2.1007,-1.9936,-1.9199,-1.9569,-1.9573,-1.9752,-2.1082,-2.1647,-2.2429,0.0,-2.52,-2.5723,-2.6698,-2.7884,-2.9076,-3.0219,-3.1642,-3.323,-3.4674,-3.5544,-3.6144,-3.6495,-3.6583,-3.6495,-3.6202,-3.6436,-3.6597,-3.6597,-3.6597,-3.6466,-3.6144,-3.5822,-3.5581,-3.5119,-3.4856,-3.4534,-3.4168,-3.4197,-3.4066,-3.3729,-3.37,-3.3671,-3.3671,-3.3349,-3.2895,-3.2324,-3.1959,-3.1476,-3.0934,-3.0861,-3.0817,-3.0832,-3.09,-3.1287,-3.1655,-3.0958,-3.1152,-3.1946,-3.152,-3.068,-2.9822,0.0,0.0,0.0,0.0,0.0,0.0,0.0,0.0,0.0,-1.5541,-1.6525,-1.6863,-1.6441,-1.6694,-1.6996,-1.7261,-1.8593,-2.0057,-2.1522,-2.3243,-2.5022,-2.675,-2.8269,-2.9376,-2.9965,-3.0399,-3.0849,-3.149,-3.1142,-3.1142,-3.149,-3.161,-3.1664,-3.1664,-3.1664,-3.1664,-3.1664,-3.1664,-3.153,-3.1236,-3.0421,-2.9887,-2.9446,-2.8457,-2.7575,-2.6961,-2.6921,-2.64,0.0,0.0,-2.5317,-2.5188,-2.462,-2.3935,-2.3177,-2.2434,-2.1709,-2.1065,-2.089,-2.1064,-2.141,-2.2139,-2.3235,-2.4535,-2.6215,-2.715,-2.8004,-2.9174,-3.0281,-3.1353,-3.2295,-3.3445,-3.4566,-3.5339,-3.5983,-3.6378,-3.6334,-3.6158,-3.5866,-3.5353,-3.5251,-3.55,-3.6246,-3.6495,-3.6553,-3.6407,-3.61,-3.5778,-3.5552,-3.5134,-3.4827,-3.4505,-3.4505,-3.4432,-3.43,-3.411,-3.3919,-3.3729,-3.3393,-3.3012,-3.2559,-3.2032,-3.1446,-3.0817,-3.0817,-3.0817,-3.0817,-3.0817,-3.091,-3.1108,-3.0586,-3.0661,-3.0911,-3.0396,-3.0021,-2.961,0.0,0.0,0.0,0.0,0.0,0.0,0.0,0.0,0.0,0.0,-1.6006,-1.6272,-1.6018,-1.5934,-1.603,-1.6368,-1.7713,-1.9537,-2.1872,-2.4207,-2.6515,-2.8911,-2.9793,-3.0474,-3.0982,-3.0648,-3.0835,-3.1543,-3.1116,-3.1169,-3.1664,-3.1664,-3.1664,-3.1664,-3.1664,-3.1664,-3.1664,-3.1664,-3.1664,-3.157,-3.0474,-2.994,-2.9619,-2.7963,-2.6613,-2.5625,-2.5919,-2.5277,0.0,0.0,-2.4008,-2.4075,-2.4609,-2.4335,-2.3708,-2.3332,-2.2659,-2.2093,-2.1922,-2.2318,-2.2912,-2.3486,-2.5004,-2.6647,-2.7861,-2.9017,-3.0115,-3.1154,-3.2134,-3.3027,-3.3729,-3.4578,-3.5266,-3.5684,-3.6041,-3.629,-3.6144,-3.569,-3.5119,-3.4388,-3.4022,-3.4154,-3.4973,-3.5675,-3.6187,-3.6451,-3.6173,-3.588,-3.5757,-3.5339,-3.5017,-3.471,-3.471,-3.471,-3.471,-3.4475,-3.4183,-3.3861,-3.3539,-3.3115,-3.2617,-3.1871,-3.1271,-3.0817,-3.0817,-3.0817,-3.0817,-3.0817,-3.0817,-3.0803,-3.0568,-3.0437,-3.0372,-2.9822,-2.9631,-2.947,0.0,0.0,0.0,0.0,0.0,0.0,0.0,0.0,0.0,0.0,0.0,0.0,0.0,-1.6042,-1.6103,-1.6646,-1.7418,-1.8828,-2.1002,-2.3289,-2.5504,-2.7682,-2.9152,-3.0074,-3.0381,-3.0648,-3.0929,-3.1236,-3.1223,-3.137,-3.1664,-3.1664,-3.1664,-3.1664,-3.1664,-3.1664,-3.1664,-3.1664,-3.1664,-3.1597,-3.0702,-3.0007,-2.9272,-2.7215,-2.5705,-2.4716,-2.501,0.0,0.0,0.0,-2.1924,-2.143,-2.2579,-2.3334,-2.3706,-2.312,-2.2135,-2.1437,-2.231,-2.2835,-2.3566,-2.5397,-2.7144,-2.8608,-2.9573,-3.1037,-3.228,-3.2632,-3.348,-3.4168,-3.4197,-3.4724,-3.5266,-3.5684,-3.5757,-3.5778,-3.607,-3.5324,-3.4373,-3.3407,-3.3012,-3.2705,0.0,-3.3832,-3.5149,-3.607,-3.5836,-3.5757,-3.5742,-3.5339,-3.5017,-3.471,-3.471,-3.471,-3.471,-3.4695,-3.4534,-3.4197,-3.3875,-3.3217,-3.2266,-3.13,-3.0846,-3.0817,-3.0817,-3.0817,-3.0817,-3.0817,-3.0817,-3.0817,-3.0817,-3.0627,-3.0431,-3.0416,-2.9991,-2.9345,0.0,0.0,0.0,0.0,0.0,0.0,0.0,0.0,0.0,0.0,0.0,0.0,0.0,0.0,0.0,0.0,-1.6615,-1.8304,-1.9875,-2.191,-2.3818,-2.5535,-2.7268,-2.839,-2.8958,-2.9379,-2.9873,-3.0354,-3.0354,-3.0408,-3.0515,-3.0702,-3.0795,-3.0795,-3.0795,-3.0915,-3.1076,-3.0889,-3.0795,-3.0688,-2.9494,-2.8851,-2.839,-2.652,-2.4703,-2.3126,0.0,0.0,0.0,-2.0641,-2.0481,-2.0435,-2.1416,-2.1719,-2.1801,-2.2034,-2.2143,-2.2372,-2.3319,-2.4494,-2.5717,-2.7202,-2.8827,-3.0276,-3.1256,-3.2222,-3.2895,-3.2793,-3.3027,-3.3188,-3.2968,-3.329,-3.3744,-3.4285,-3.4914,-3.531,-3.5192,-3.5075,-3.4329,-3.25,-3.2193,0.0,0.0,0.0,0.0,-3.509,-3.5075,-3.5105,-3.5405,-3.5522,-3.5236,-3.4724,-3.49,-3.49,-3.471,-3.449,-3.4212,-3.389,-3.3129,-3.2485,-3.1944,-3.1402,-3.1022,-3.0817,-3.0817,-3.0817,-3.0817,-3.0817,-3.0817,-3.0817,-3.0817,-3.0759,-3.0642,-3.0437,-3.0152,-2.9603,0.0,0.0,0.0,0.0,0.0,0.0,0.0,0.0,0.0,0.0,0.0,0.0,0.0,0.0,0.0,0.0,0.0,-1.764,-1.869,-2.0527,-2.2107,-2.3487,-2.5024,-2.6132,-2.672,-2.7121,-2.7709,-2.8497,-2.8497,-2.8711,-2.9125,-2.9325,-2.9459,-2.9655,-2.9686,-2.99,-3.014,-2.986,-2.9673,-2.9534,-2.8238,-2.7431,-2.6774,-2.5154,-2.3375,0.0,0.0,0.0,0.0,-1.9614,-1.9654,-1.9807,-2.058,-2.0773,-2.0869,-2.1732,-2.2476,-2.329,-2.4721,-2.6208,-2.7671,-2.8959,-3.0334,-3.1505,-3.2149,-3.269,-3.2924,-3.2368,-3.2149,-3.2072,-3.2005,-3.1564,-3.1749,-3.338,-3.3649,-3.3846,-3.4446,-3.4402,-3.3729,-3.2163,-3.1666,-3.1417,0.0,0.0,0.0,-3.4402,-3.4534,-3.4768,-3.531,-3.5522,-3.528,-3.4871,-3.4958,-3.4958,-3.4871,-3.4549,-3.4168,-3.3715,-3.2632,-3.2002,-3.1783,-3.1344,-3.1022,-3.0817,-3.0817,-3.0817,-3.0817,-3.0817,-3.0817,-3.0817,-3.0817,-3.0817,-3.0788,-3.0466,-3.0225,-2.9764,0.0,0.0,0.0,0.0,0.0,0.0,0.0,0.0,0.0,0.0,0.0,0.0,0.0,0.0,0.0,0.0,0.0,0.0,-1.7512,-1.9153,-2.049,-2.1376,-2.2565,-2.3487,-2.4048,-2.4128,-2.4703,-2.5825,-2.5929,-2.6426,-2.7495,-2.7509,-2.7669,-2.8033,-2.8243,-2.8537,-2.8791,-2.8511,-2.8217,-2.7926,-2.708,-2.5837,-2.4428,-2.3309,0.0,0.0,0.0,0.0,-1.8194,-1.9112,-1.9427,-1.9553,-2.0101,-2.05,-2.1017,-2.2326,-2.3223,-2.4247,-2.6515,-2.8052,-2.9325,-3.0598,-3.1607,-3.228,-3.228,-3.2471,-3.2368,-3.1402,-3.089,-3.081,-3.123,-2.9822,-2.9628,-3.2814,-3.207,-3.181,-3.3949,-3.351,-3.2793,-3.2412,-3.1549,-3.1095,-3.1359,-3.0846,0.0,-3.4007,0.0,-3.4578,-3.5669,-3.5324,-3.5149,-3.5134,-3.4885,-3.4871,-3.5134,-3.4812,-3.4329,-3.3671,-3.2412,-3.1812,-3.1783,-3.1154,-3.0861,-3.0817,-3.0846,-3.0846,-3.0817,-3.0817,-3.0817,-3.0817,-3.0817,-3.0817,-3.0788,-3.0481,-3.0255,-2.9793,0.0,0.0,0.0,0.0,0.0,0.0,0.0,0.0,0.0,0.0,0.0,0.0,0.0,0.0,0.0,0.0,0.0,0.0,-1.6858,-1.7934,-1.8765,-1.9252,-2.0815,-2.1844,-2.2218,-2.31,-2.3701,-2.3995,-2.4436,-2.469,-2.4783,-2.4997,-2.513,-2.5211,-2.5291,-2.5491,-2.5745,-2.5451,-2.5429,-2.5493,0.0,-2.4159,-2.3901,0.0,0.0,0.0,0.0,-1.9584,-1.9096,-1.9333,-1.9836,-2.0345,-2.0316,-2.0989,-2.2197,-2.394,-2.5066,-2.6252,-2.852,-2.9895,-3.0949,-3.2002,-3.228,-3.228,-3.228,-3.1593,-3.0759,-3.0027,-2.9604,-2.9189,-2.8851,-2.9905,-3.1238,-3.2277,-3.3568,-3.4555,-3.4912,-3.5134,-3.4783,-3.351,-3.3363,-3.31,-3.2456,-3.2456,-3.288,0.0,-3.3407,-3.3773,-3.5207,-3.5302,-3.5061,-3.4827,-3.5192,-3.5222,-3.4827,-3.4256,-3.3656,-3.3012,-3.2427,-3.2032,-3.1798,-3.1622,-3.1285,-3.0832,-3.1081,-3.1051,-3.0817,-3.0817,-3.0817,-3.0817,-3.0817,-3.0817,-3.0817,-3.0729,-3.0495,-3.0255,0.0,0.0,0.0,0.0,0.0,0.0,0.0,0.0,0.0,0.0,0.0,0.0,0.0,0.0,0.0,0.0,0.0,0.0,0.0,-1.7238,-1.7729,-1.7903,-1.8851,-1.9639,-2.0261,-2.0601,-2.1186,-2.1973,-2.2175,-2.2525,-2.3011,-2.2984,-2.3134,-2.3391,-2.3596,-2.3882,-2.4205,-2.3977,0.0,0.0,0.0,0.0,0.0,0.0,0.0,0.0,-2.0473,-2.033,-2.0258,-2.0544,-2.1003,-2.1581,-2.2031,-2.2952,-2.4218,-2.6018,-2.7115,-2.8256,-3.0525,-3.1739,-3.25,-3.3056,-3.2954,-3.2441,-3.1446,-3.0437,-2.9395,-2.8252,-2.7568,-2.7356,-2.7816,-2.8444,-2.953,-3.1638,-3.2741,-3.3743,-3.4583,-3.5192,-3.5207,-3.4446,-3.4402,-3.4271,-3.3875,-3.3729,-3.3978,-3.4724,-3.3919,-3.3919,-3.509,-3.5031,-3.4944,-3.49,-3.5251,-3.5266,-3.49,-3.4271,-3.37,-3.3188,-3.2573,-3.2193,-3.2002,-3.171,-3.1461,-3.1242,0.0,-3.1081,-3.1022,-3.089,-3.0817,-3.0817,-3.0817,-3.0817,-3.0803,-3.0671,-3.051,-3.0387,0.0,0.0,0.0,0.0,0.0,0.0,0.0,0.0,0.0,0.0,0.0,0.0,0.0,0.0,0.0,0.0,0.0,0.0,0.0,0.0,-1.7085,-1.7085,-1.7125,-1.7514,-1.8237,-1.7809,-1.8373,-1.9973,-1.9781,-2.0378,-2.1686,-2.138,-2.1499,-2.2159,-2.2382,-2.2813,-2.3328,0.0,0.0,0.0,0.0,0.0,0.0,0.0,0.0,-1.9977,-2.0496,-2.0852,-2.1216,-2.2409,-2.2835,-2.3179,-2.4481,-2.5786,-2.708,-2.8771,-2.969,-3.0625,-3.2805,-3.3543,-3.3773,-3.3685,-3.329,-3.2368,-3.0217,-2.9003,-2.7866,-2.6208,-2.5343,-2.5404,-2.7315,-2.66,-2.7117,-3.1409,-3.1683,-3.2182,-3.4681,-3.5167,-3.5306,-3.5617,-3.5279,-3.5046,-3.5295,-3.5123,-3.5212,-3.5909,-3.5286,-3.4917,-3.5287,-3.4929,-3.49,-3.5207,-3.5134,-3.509,-3.509,-3.4475,-3.3993,-3.3656,-3.2763,-3.2324,-3.2266,-3.1739,-3.1607,-3.1768,-3.1242,0.0,-3.1285,-3.1007,-3.0861,-3.0817,-3.0817,-3.0817,-3.0788,-3.051,-3.0407,-3.0446,0.0,0.0,0.0,0.0,0.0,0.0,0.0,0.0,0.0,0.0,-0.933,-0.9314,0.0,0.0,0.0,0.0,0.0,0.0,0.0,0.0,0.0,-1.6482,-1.666,-1.686,-1.7007,-1.7395,-1.7875,-1.8413,-1.8851,-1.9415,-2.0143,-1.9836,-2.0017,-2.0662,-2.0466,-2.0578,-2.0914,-2.0858,0.0,0.0,0.0,0.0,0.0,0.0,0.0,0.0,-2.0664,-2.0413,-2.0674,-2.4605,-2.5362,-2.4862,-2.6164,-2.8483,-3.1172,-3.3156,-3.396,-3.4539,-3.6116,-3.5304,-3.4007,-3.3466,-3.228,-3.0861,-2.9398,-2.7115,-2.509,-2.4228,-2.3457,-2.3432,-2.4984,-2.708,-2.9753,-3.3233,-3.5129,-3.7042,-3.9365,-3.8508,-3.7929,-3.8273,-3.7087,-3.6187,-3.5983,-3.7608,-3.784,0.0,-3.6939,-3.7205,-3.5735,-3.5251,-3.5222,-3.564,-3.5061,-3.4783,-3.4783,-3.4139,-3.3656,-3.3319,-3.2895,-3.2544,-3.2295,-3.2441,-3.2251,-3.1812,-3.1959,0.0,-3.13,-3.1256,-3.1066,-3.0817,-3.0817,-3.0817,-3.0817,-3.0759,-3.0744,-3.07,0.0,0.0,0.0,0.0,0.0,0.0,0.0,-0.9429,-0.9665,-1.0531,-1.0847,-1.1063,-1.1322,-1.1851,0.0,0.0,0.0,0.0,0.0,0.0,0.0,0.0,-1.6553,-1.6831,-1.7144,-1.7427,-1.7934,-1.8688,0.0,-1.9285,-2.0014,-1.9699,-1.9886,-2.0487,-2.0329,-2.0444,-2.0802,-2.0802,-2.0859,-2.096,0.0,0.0,0.0,0.0,0.0,0.0,-2.0662,-2.0516,-2.084,-2.4731,-2.5609,-2.576,-2.965,-3.2462,-3.4575,-3.6125,-3.6873,-3.721,-3.759,-3.6977,-3.5774,-3.3973,-3.228,-3.0437,-2.7964,-2.5666,-2.3779,-2.2687,-2.2165,-2.2531,-2.4562,-2.6214,-2.8364,-3.1661,-3.2685,-3.447,-3.8336,-3.7959,-3.8112,-4.0351,-3.9176,-3.8554,-3.9434,-3.9674,-3.9483,-3.8798,-3.9662,-3.8748,-3.5353,-3.5002,-3.5061,-3.5478,-3.4944,-3.4783,-3.4944,-3.4139,-3.3656,-3.3495,-3.2997,-3.269,-3.2529,-3.2354,-3.228,-3.228,-3.1929,0.0,-3.1549,-3.1373,-3.1124,-3.0817,-3.0817,-3.0817,-3.0817,-3.0817,-3.0817,-3.0886,0.0,0.0,0.0,0.0,0.0,0.0,0.0,-0.9713,-0.9989,-1.1013,-1.2467,-1.3092,-1.2279,-1.3151,-1.4159,0.0,0.0,0.0,0.0,0.0,0.0,0.0,0.0,0.0,-1.7323,0.0,0.0,-1.9021,-1.885,0.0,0.0,0.0,0.0,0.0,-2.0574,-2.0691,-2.0998,-2.0998,-2.1042,0.0,0.0,-2.0815,0.0,0.0,0.0,0.0,0.0,-2.0676,-2.108,-2.436,-2.5482,-2.6455,-3.2185,-3.4917,-3.6218,-3.769,-3.858,-3.914,-3.9217,-3.8966,-3.8015,-3.4864,-3.2741,-3.0409,-2.6733,-2.4452,-2.2689,-2.1333,-2.0987,-2.1723,-2.4209,-2.4876,-2.6237,-2.9927,-3.0253,-3.1836,-3.6992,-3.7325,-3.8375,-4.1902,-4.1062,-4.0834,-4.2516,-4.167,-4.1345,-4.2099,-4.1816,-4.0038,-3.6202,-3.5551,-3.5656,-3.6443,-3.5686,-3.5596,-3.6245,-3.5395,-3.4668,-3.4141,-3.365,-3.3205,-3.2749,-3.2237,-3.228,-3.2808,-3.2375,0.0,0.0,-3.2508,-3.2328,-3.1865,-3.1865,-3.1865,-3.1865,-3.1865,-3.1715,-3.1647,0.0,0.0,0.0,0.0,0.0,0.0,0.0,-0.9591,-1.0128,-1.1516,-1.349,-1.4494,-1.3944,-1.4999,-1.5838,0.0,0.0,0.0,0.0,0.0,0.0,0.0,0.0,0.0,0.0,0.0,0.0,-1.811,-1.8362,0.0,0.0,0.0,0.0,0.0,0.0,-2.0033,-2.027,-2.027,0.0,0.0,0.0,0.0,0.0,0.0,0.0,0.0,0.0,-2.0475,-2.0796,-2.4464,-2.6117,-2.7349,-3.1255,-3.3189,-3.4408,-3.6922,-3.8718,-4.0361,-4.2389,-4.188,-3.9889,-3.6387,-3.3654,-3.0659,-2.6457,-2.3427,-2.1172,-2.0151,-1.9678,-2.0275,-2.2826,-2.3634,-2.5572,-3.0602,-3.2324,-3.4547,-3.9026,-3.969,-4.0524,-4.2835,-4.2412,-4.208,-4.269,-4.4246,-4.4387,-4.2382,-4.1927,-4.1364,-4.0477,-3.8489,-3.8288,-4.0402,-3.8413,-3.7998,-3.9408,-3.9058,-3.7876,-3.5801,-3.5438,-3.4406,-3.2763,-3.2705,-3.2719,-3.2852,-3.4473,0.0,0.0,-3.5908,-3.6152,-3.5511,-3.5511,-3.5511,-3.5511,-3.5511,-3.4555,-3.3429,0.0,0.0,0.0,0.0,0.0,0.0,-1.048,-1.0623,-1.1326,-1.3393,-1.5311,-1.6402,-1.6184,-1.7092,-1.7263,0.0,0.0,0.0,0.0,0.0,0.0,0.0,0.0,0.0,0.0,0.0,-1.7891,-1.824,-1.8366,0.0,0.0,0.0,0.0,0.0,0.0,-2.012,-2.0183,-2.0183,0.0,0.0,0.0,0.0,0.0,0.0,0.0,0.0,0.0,0.0,-2.0476,-2.3918,-2.4787,-2.4779,-2.7005,-2.8537,-3.0697,-3.6488,-3.8841,-4.0083,-4.2042,-4.2512,-4.1405,-3.6856,-3.3563,-3.0437,-2.6225,-2.3003,-2.0647,-1.9667,-1.936,-2.0065,-2.252,-2.2996,-2.4453,-2.8957,-2.9183,-3.0546,-3.5599,-3.5931,-3.744,-4.2125,-4.2097,-4.282,-4.5742,-4.5926,-4.5814,-4.5871,-4.5481,-4.5071,-4.4554,-4.1457,-4.0058,-4.072,-3.953,-3.9278,-3.9843,-3.9333,-3.8504,-3.7583,-3.7305,-3.6794,-3.5999,-3.558,-3.5612,-3.6086,-3.6333,0.0,0.0,-3.6775,-3.6679,-3.5994,-3.5994,-3.5994,-3.5994,-3.5994,-3.5591,-3.5187,0.0,0.0,0.0,0.0,0.0,-0.9848,-1.1482,-1.1766,-1.2485,-1.4599,-1.6286,-1.7276,-1.7276,-1.793,-1.7809,-1.6339,0.0,0.0,0.0,0.0,0.0,0.0,0.0,0.0,0.0,0.0,-1.8058,-1.8404,-1.8404,-1.873,0.0,0.0,-1.951,-1.9928,0.0,0.0,0.0,0.0,0.0,0.0,0.0,0.0,0.0,0.0,0.0,0.0,0.0,0.0,0.0,0.0,0.0,-2.248,-2.3762,-2.4873,-2.7021,-3.383,-3.7014,-3.8896,-4.1211,-4.2769,-4.2596,-3.81,-3.4647,-3.1237,-2.7061,-2.349,-2.0858,-1.9971,-1.9776,-2.0277,-2.1979,-2.2685,-2.3957,-2.6936,-2.6887,-2.808,-3.2767,-3.3368,-3.5332,-4.0664,-4.1081,-4.2537,-4.6639,-4.6827,-4.7098,-4.7975,-4.7871,-4.7461,-4.6777,-4.4281,-4.2549,-4.2049,-4.1354,-4.1019,-4.1212,-4.0767,-4.017,-3.9407,-3.9145,-3.8698,-3.7964,-3.7518,-3.757,-3.8032,-3.7882,0.0,0.0,-3.8323,-3.8123,-3.7534,-3.7534,-3.7534,-3.7534,-3.7534,-3.7197,-3.7037,0.0,0.0,0.0,0.0,0.0,0.0,-1.24,-1.2784,-1.3402,-1.463,-1.5976,-1.6839,-1.6839,-1.7044,-1.7206,-1.7192,0.0,0.0,0.0,0.0,0.0,0.0,0.0,0.0,0.0,0.0,-1.7888,-1.8522,-1.8522,-1.8836,-1.9401,-1.9308,-1.9288,-1.9327,0.0,0.0,0.0,0.0,0.0,0.0,0.0,0.0,0.0,0.0,0.0,0.0,0.0,0.0,0.0,0.0,0.0,0.0,0.0,-2.3031,-2.3836,-2.8052,-3.2498,-3.6774,-4.026,-4.2773,-4.3665,-4.0618,-3.7309,-3.3743,-2.9522,-2.5168,-2.1788,-2.1036,-2.0877,-2.0877,-2.0928,-2.2634,-2.4225,-2.4785,-2.6746,-2.918,-3.1876,-3.3633,-3.5664,-3.8301,-3.9394,-4.1133,-4.4141,-4.7129,-4.8496,-4.7656,-4.7969,0.0,-4.6367,-4.6611,-4.6455,-4.5703,-4.4178,-4.3715,-4.433,-4.472,-4.3622,-4.1005,-4.1005,-3.976,-3.7605,-3.7588,-3.7605,0.0,0.0,0.0,0.0,-4.1158,-4.1484,-4.1172,-4.1172,-4.1172,-4.1172,-4.1172,-4.0021,-3.8803,0.0,0.0,0.0,0.0,0.0,0.0,0.0,-1.3182,-1.4004,-1.5614,-1.6556,-1.7206,-1.7605,-1.7358,-1.7206,-1.7206,0.0,0.0,0.0,0.0,0.0,0.0,0.0,0.0,0.0,0.0,-1.7943,-1.8158,-1.8414,-1.8672,-1.9071,-1.8836,-1.8845,-1.9031,-1.8769,-1.8824,0.0,0.0,0.0,0.0,0.0,0.0,0.0,0.0,0.0,0.0,0.0,0.0,0.0,0.0,0.0,0.0,0.0,0.0,0.0,-2.6282,-2.9416,-3.3155,-3.6004,-3.8125,-3.877,-3.5427,-3.2918,-3.05,-2.7168,-2.3924,-2.1449,-2.0972,-2.0328,-2.0225,-2.1743,-2.2328,-2.3853,-2.7703,-2.8291,-2.9137,-3.1683,-3.3564,-3.5664,-3.8262,-4.2715,-4.6191,-4.7754,-4.8476,-4.875,-4.8476,-4.8301,-4.7773,-4.6777,-4.6855,-4.6543,-4.5703,-4.4885,-4.4481,-4.4394,-4.4219,-4.3735,-4.2863,-4.2863,-4.2302,-4.1372,-4.1009,-4.1028,0.0,0.0,0.0,0.0,-4.1734,-4.1367,-4.0762,-4.1055,-4.0996,-4.0762,-4.1055,-4.0841,-4.0431,0.0,0.0,0.0,0.0,0.0,0.0,0.0,-1.3995,-1.4705,-1.5971,-1.6576,-1.7088,-1.7796,-1.7141,-1.678,-1.7166,0.0,0.0,0.0,0.0,0.0,0.0,0.0,0.0,0.0,-1.7529,-1.8209,-1.8704,-1.8998,-1.9314,-1.9594,-1.9519,-1.9291,-1.889,-1.8886,-1.8912,0.0,0.0,0.0,0.0,0.0,0.0,-1.9603,0.0,0.0,0.0,0.0,0.0,0.0,0.0,0.0,0.0,0.0,0.0,0.0,0.0,-2.7065,-3.0073,-3.2782,-3.4766,-3.551,-3.3181,-3.139,-2.9527,-2.7251,-2.4316,-2.207,-2.2114,-2.1137,-2.0585,-2.1528,-2.2313,-2.3748,-2.6507,-2.7328,-2.8432,-3.0915,-3.3132,-3.5664,-3.8926,-4.373,-4.7051,-4.7754,-4.8301,-4.8555,-4.8379,-4.7969,-4.7363,-4.6504,-4.6465,-4.6074,-4.5215,-4.5234,-4.4902,-4.4141,-4.4023,-4.3887,-4.3711,-4.3711,-4.3398,-4.2832,-4.2558,-4.248,0.0,0.0,0.0,0.0,-4.1562,-4.0996,-4.0527,-4.0644,-4.0527,-4.0332,-4.0762,-4.0918,-4.0957,0.0,0.0,0.0,0.0,0.0,0.0,0.0,0.0,-1.5458,-1.5725,-1.6046,-1.6553,-1.7368,-1.6486,-1.6152,-1.7032,0.0,0.0,0.0,0.0,0.0,0.0,0.0,0.0,0.0,-1.7556,-1.8568,-1.9733,-2.0067,-2.0388,-2.0681,-2.095,-2.0296,-1.8974,-1.9415,-1.9359,0.0,0.0,0.0,0.0,-1.9272,-1.9272,0.0,0.0,0.0,0.0,0.0,0.0,0.0,0.0,0.0,0.0,0.0,0.0,0.0,0.0,0.0,0.0,0.0,-3.2285,-3.3418,-3.2988,-3.1641,-3.0117,-2.8926,-2.5761,0.0,-2.3881,-2.2881,-2.1624,-2.0833,-2.2655,-2.3909,-2.2747,-2.4827,-2.7441,-2.998,-3.2754,-3.6113,-4.0391,-4.3164,-4.4844,-4.5176,-4.7031,-4.8027,-4.7617,-4.7187,-4.6562,-4.5723,-4.5683,-4.5273,-4.4433,-4.5176,-4.498,-4.3711,-4.4141,-4.4141,-4.3711,-4.3672,-4.3223,-4.2422,-4.2402,-4.2168,0.0,0.0,0.0,0.0,-4.0879,-4.0508,-4.043,-4.0059,-3.9902,-3.9941,-4.0371,-4.0547,-4.0625,0.0,0.0,0.0,0.0,0.0,0.0,0.0,0.0,0.0,0.0,-1.5618,-1.6019,-1.6219,-1.5992,-1.5912,0.0,0.0,0.0,0.0,0.0,0.0,0.0,0.0,0.0,0.0,-1.7809,-1.8624,-1.9132,-1.9867,-2.0388,-2.0668,-2.0502,-2.0026,-1.9246,-1.9098,-1.8911,0.0,0.0,0.0,0.0,-1.9272,-1.9272,0.0,0.0,0.0,0.0,-1.9272,-1.9272,0.0,0.0,0.0,0.0,0.0,0.0,0.0,0.0,-2.5005,-2.6142,-2.6863,0.0,-2.8086,-2.7656,-2.6738,-2.5937,0.0,-2.4358,-2.2907,-2.3056,-2.2184,-2.1727,-2.2987,-2.322,-2.4186,-2.7302,-2.8076,-2.9121,-3.1387,-3.5918,-4.0371,-4.4023,-4.6445,-4.7598,-4.7031,-4.7715,-4.8027,-4.7617,-4.7187,-4.6562,-4.5723,-4.5683,-4.5273,-4.4433,-4.459,-4.4375,-4.3711,-4.3808,-4.3808,-4.3691,-4.3379,-4.2949,-4.2422,-4.209,-4.1894,0.0,0.0,0.0,-4.1738,-4.0879,-4.0332,-4.0039,-3.9941,-3.9902,-3.9941,-4.0371,-4.0742,-4.1035,0.0,0.0,0.0,0.0,0.0,0.0,0.0,0.0,0.0,0.0,0.0,0.0,0.0,0.0,0.0,0.0,0.0,0.0,0.0,0.0,0.0,0.0,0.0,0.0,-1.6864,-1.809,-1.9106,-1.9986,-2.0692,-2.1292,-2.1778,-2.1289,-2.0551,-1.9608,-1.8932,-1.8755,0.0,0.0,0.0,0.0,-1.9272,0.0,0.0,0.0,0.0,0.0,-1.9272,-1.9184,0.0,-2.0607,-2.102,-2.1285,0.0,0.0,0.0,0.0,-2.5111,-2.5693,-2.5693,-2.6055,-2.6328,-2.6094,-2.5527,-2.5031,-2.5312,-2.406,-2.2934,-2.342,-2.2506,-2.2097,-2.3608,-2.369,-2.4457,-2.7313,-2.8246,-3.0156,-3.4492,-3.8574,-4.2461,-4.6113,-4.7578,-4.8164,-4.7891,-4.7891,-4.7734,-4.7305,-4.6699,-4.6074,-4.541,-4.5195,-4.4785,-4.4101,-4.3887,-4.3672,-4.3418,-4.3418,-4.332,-4.3125,-4.2891,-4.2558,-4.2129,-4.1894,-4.1699,0.0,0.0,0.0,-4.1465,-4.0801,-4.0391,-4.0137,-3.9746,-3.9707,-3.9902,-3.9902,-4.0332,-4.0879,0.0,0.0,0.0,0.0,0.0,0.0,0.0,0.0,0.0,0.0,0.0,0.0,0.0,0.0,0.0,0.0,0.0,0.0,0.0,0.0,0.0,0.0,0.0,-1.7004,-1.7301,-1.8398,-1.9764,-2.141,-2.2295,-2.3107,-2.3796,-2.3247,-2.1943,-2.0081,-1.9138,-1.9002,0.0,0.0,0.0,0.0,-1.9397,0.0,0.0,0.0,0.0,0.0,0.0,0.0,0.0,-2.1587,-2.1107,-2.0097,-2.3655,0.0,0.0,0.0,0.0,0.0,-2.583,-2.6309,-2.6621,-2.6348,-2.5957,-2.5577,-2.5499,-2.4231,-2.3308,-2.4152,-2.3331,-2.2852,-2.3847,-2.4517,-2.5228,-2.6154,-2.8049,-3.1641,-3.8144,-4.0801,-4.3437,-4.7051,-4.7598,-4.7734,-4.791,-4.7598,-4.7207,-4.6777,-4.6016,-4.5391,-4.4961,-4.459,-4.416,-4.3633,-4.3262,-4.3008,-4.2891,-4.2949,-4.2793,-4.2422,-4.2363,-4.2148,-4.1797,-4.1738,-4.1465,-4.1074,0.0,0.0,-4.0957,-4.0508,-4.0312,-4.0234,-3.9434,-3.9394,-3.9746,-3.9355,-3.9726,-4.0353,0.0,0.0,0.0,0.0,0.0,0.0,0.0,0.0,0.0,0.0,0.0,0.0,0.0,0.0,0.0,0.0,0.0,0.0,0.0,0.0,0.0,0.0,-1.707,-1.7649,-1.8282,-1.8996,-2.0328,-2.23,-2.4436,-2.6223,-2.7555,-2.7045,-2.468,-2.0955,-2.0601,-2.0166,-1.9749,0.0,0.0,-1.9749,-1.9749,0.0,0.0,0.0,0.0,0.0,0.0,0.0,0.0,-1.897,-1.956,-2.0285,-2.059,0.0,0.0,0.0,0.0,0.0,-2.6523,-2.7402,-2.7656,-2.6191,-2.5508,-2.5078,-2.4707,-2.4373,-2.4086,-2.3919,-2.3984,-2.4454,-2.5741,-2.6618,-2.7715,-2.9267,-3.2224,-3.5937,-4.0644,-4.2519,-4.4316,-4.6738,-4.7676,-4.7715,-4.6699,-4.6543,-4.6328,-4.5898,-4.541,-4.4941,-4.4512,-4.4433,-4.4023,-4.3203,-4.3105,-4.2734,-4.2012,-4.2344,-4.25,-4.2422,-4.207,-4.1855,-4.1797,-4.1426,-4.1035,-4.0625,0.0,-4.041,-4.0059,-3.959,-3.9394,-3.9355,-3.8867,-3.8926,-3.9297,-3.9238,-3.9531,-3.9812,0.0,0.0,0.0,0.0,0.0,0.0,0.0,0.0,0.0,0.0,0.0,0.0,0.0,0.0,0.0,0.0,0.0,0.0,0.0,0.0,0.0,-1.7627,-1.8357,-1.8883,-1.9249,-2.0032,-2.1495,-2.3661,-2.5225,-2.6504,-2.7361,-2.5716,-2.3529,-2.0916,-2.0272,-1.9906,-1.9808,-1.9632,-1.9647,-1.9793,0.0,0.0,0.0,0.0,0.0,0.0,0.0,0.0,0.0,0.0,-1.9545,-1.9756,-2.1105,0.0,0.0,0.0,0.0,0.0,-2.5801,-2.6602,-2.7129,-2.6562,-2.6621,-2.6582,-2.5684,-2.5293,-2.5031,-2.4883,-2.5176,-2.5801,-2.6875,-2.8359,-3.043,-3.3535,-3.6172,-3.8848,-4.1738,-4.3262,-4.4707,-4.6387,-4.7148,-4.7285,-4.6699,-4.6426,-4.6133,-4.5703,-4.5058,-4.4609,-4.4414,-4.416,-4.373,-4.3105,-4.2851,-4.2422,-4.1816,-4.1758,-4.1758,-4.1758,-4.1562,-4.1465,-4.1445,-4.125,-4.0937,-4.0527,0.0,-4.0273,-3.9883,-3.9668,-3.957,-3.9531,-3.9082,-3.918,-3.9609,-3.9824,-3.9902,-3.9905,0.0,0.0,0.0,0.0,0.0,0.0,0.0,0.0,0.0,0.0,0.0,0.0,0.0,0.0,0.0,0.0,0.0,0.0,0.0,0.0,-1.7746,-1.8686,-1.9775,-2.0496,-2.0771,-2.1523,-2.3087,-2.548,-2.6773,-2.7533,-2.7595,-2.5293,-2.3109,-2.1118,-2.0127,-1.9758,-1.9793,-1.9544,-1.9588,-1.9793,0.0,0.0,0.0,0.0,0.0,0.0,0.0,0.0,0.0,0.0,0.0,0.0,0.0,0.0,0.0,-2.3648,-2.4394,-2.498,-2.5341,-2.5937,-2.6602,-2.6934,-2.7441,-2.7715,-2.7246,-2.6797,-2.6512,-2.6824,-2.7207,-2.7637,-2.8354,-3.043,-3.334,-3.7129,-3.9375,-4.123,-4.2949,-4.4219,-4.5391,-4.6465,-4.6797,-4.6894,-4.6797,-4.6211,-4.5723,-4.541,-4.4668,-4.4238,-4.4238,-4.3808,-4.3359,-4.2949,-4.2402,-4.1933,-4.1504,-4.1074,-4.0918,-4.1016,-4.1016,-4.0976,-4.0879,-4.0879,-4.0625,-4.0215,-4.0215,-3.998,-3.959,-3.9687,-3.9668,-3.957,-3.9297,-3.9355,-3.9648,-4.0176,-4.0176,-4.0,0.0,0.0,0.0,0.0,0.0,0.0,0.0,0.0,0.0,0.0,0.0,0.0,0.0,0.0,0.0,0.0,0.0,0.0,0.0,0.0,-1.7824,-1.9354,-2.1143,-2.2523,-2.331,-2.372,-2.5233,-2.8021,-3.0375,-3.1443,-3.1109,-2.9441,-2.6413,-2.2416,-2.1467,-2.0603,-1.9823,-1.9793,-1.9793,-1.9808,-1.9793,0.0,0.0,0.0,0.0,0.0,0.0,0.0,0.0,0.0,0.0,0.0,0.0,0.0,-2.296,-2.4025,-2.4414,-2.4727,-2.5957,-2.6621,-2.6973,-2.7012,-2.6777,-2.7012,-2.8961,-2.9004,-2.9043,-3.0273,-3.0547,-3.0586,-3.0644,-3.3398,-3.6406,-3.8691,-4.1191,-4.3457,-4.5195,-4.6191,-4.6933,-4.7422,-4.7148,-4.6777,-4.6387,-4.5254,-4.4531,-4.4492,-4.4043,-4.375,-4.375,-4.3359,-4.293,-4.248,-4.168,-4.1055,-4.0625,-4.0195,-4.0176,-4.0566,-4.0566,-4.0371,-3.998,-3.998,-3.9726,-3.9297,-3.9297,-3.9062,-3.8691,-3.9082,-3.9023,-3.8711,-3.9062,-3.8984,-3.8769,-3.9629,-3.9922,-3.9961,0.0,0.0,0.0,0.0,0.0,0.0,0.0,0.0,0.0,0.0,0.0,0.0,0.0,0.0,0.0,0.0,0.0,0.0,0.0,0.0,-1.9036,-2.0409,-2.2107,-2.3858,-2.5657,-2.7426,-2.9752,-3.2626,-3.2248,-3.1182,-2.9533,-2.6876,-2.4585,-2.255,-2.0998,-2.0325,-2.0325,-1.9711,-1.9696,-2.0003,-1.9403,-1.8891,0.0,0.0,0.0,0.0,0.0,0.0,0.0,0.0,-1.9225,-2.0671,-2.1142,-2.2182,-2.3323,-2.3859,-2.4219,-2.4531,-2.5019,-2.5879,-2.6699,-2.6953,-2.748,-2.832,-2.9648,-3.0664,-3.1621,-3.2656,-3.3516,-3.416,-3.4434,-3.5762,-3.7617,-4.0039,-4.2383,-4.4316,-4.5508,-4.6406,-4.6797,-4.6445,-4.6484,-4.6269,-4.5586,-4.4844,-4.4394,-4.4394,-4.373,-4.332,-4.332,-4.291,-4.2363,-4.168,-4.1348,-4.084,-4.0137,-3.998,-3.9824,-3.9707,-4.0,-4.0059,-3.9902,-3.9902,-3.9805,-3.9629,-3.9629,-3.9551,-3.9414,-3.957,-3.9531,-3.9414,-3.957,-3.9531,-3.9473,-4.0059,-4.0273,-4.0351,0.0,0.0,0.0,0.0,0.0,0.0,0.0,0.0,0.0,0.0,0.0,0.0,0.0,0.0,0.0,0.0,0.0,0.0,-1.7044,-1.8421,-1.9957,-2.1558,-2.3235,-2.5363,-2.7945,-3.0714,-3.286,-3.4487,-3.3548,-3.177,-2.9166,-2.679,-2.493,-2.3561,-2.1964,-2.1197,-2.1115,-2.0515,-2.0279,-2.0285,-1.9596,-1.9024,0.0,0.0,0.0,0.0,0.0,0.0,0.0,0.0,-1.9802,-2.1491,-2.1703,-2.2693,-2.389,-2.4307,-2.4414,-2.4414,-2.4414,-2.5078,-2.5898,-2.6465,-2.7871,-2.957,-3.123,-3.2656,-3.4062,-3.5586,-3.6074,-3.6348,-3.6797,-3.7324,-3.8418,-4.0605,-4.3008,-4.4844,-4.5586,-4.6289,-4.6465,-4.5762,-4.5801,-4.5625,-4.4902,-4.4433,-4.4121,-4.3984,-4.3418,-4.2969,-4.2695,-4.2266,-4.1699,-4.0996,-4.0703,-4.0273,-3.9687,-3.9551,-3.9316,-3.9004,-3.9336,-3.9473,-3.9473,-3.9473,-3.9473,-3.9473,-3.9473,-3.9551,-3.9668,-3.9668,-3.9668,-3.9687,-3.9844,-3.9805,-3.9766,-4.0469,-4.0644,-4.0586,0.0,0.0,0.0,0.0,0.0,0.0,0.0,0.0,0.0,0.0,0.0,0.0,0.0,0.0,0.0,0.0,0.0,0.0,-1.7902,-1.8745,-2.0313,-2.2887,-2.4678,-2.7028,-3.006,-3.3125,-3.4053,-3.2797,-3.4521,-3.3907,-3.0946,-3.0394,-2.8558,-2.5865,-2.4763,-2.3508,-2.217,-2.2235,-2.1685,-2.0708,-2.0496,-1.9988,-1.9225,0.0,0.0,0.0,0.0,0.0,0.0,0.0,-2.1235,-2.2094,-2.4368,-2.4766,-2.4609,-2.5421,-2.5117,-2.4434,-2.4414,-2.4434,-2.4648,-2.5499,-2.7695,-3.0508,-3.3945,-3.5078,-3.6269,-3.9297,-3.8203,-3.6836,-3.7246,-3.8027,-3.9023,-4.0312,-4.3047,-4.5176,-4.5605,-4.6016,-4.6133,-4.5723,-4.5273,-4.4844,-4.4433,-4.3965,-4.3535,-4.3105,-4.3066,-4.2695,-4.1836,-4.1387,-4.0957,-4.0527,-3.9668,-3.9199,-3.9199,-3.8789,-3.8574,-3.8574,-3.8574,-3.8574,-3.8574,-3.8574,-3.8574,-3.8574,-3.8574,-3.8828,-3.9199,-3.9199,-3.9219,-3.9258,-3.9726,-3.9609,-3.9375,-4.0684,-4.0898,-4.0586,0.0,0.0,0.0,0.0,0.0,0.0,0.0,0.0,0.0,0.0,0.0,0.0,0.0,0.0,0.0,0.0,0.0,0.0,-1.7978,-1.9178,-2.0623,-2.2351,-2.4319,-2.5952,-2.724,-3.0411,-3.2698,-3.4106,-3.4881,-3.325,-2.9429,-2.8768,-2.7349,-2.5295,-2.4992,-2.3579,-2.1452,-2.1026,-2.0979,-2.1159,-2.0591,-2.0573,-2.069,0.0,0.0,0.0,0.0,0.0,0.0,0.0,0.0,0.0,-2.2149,-2.3841,-2.5664,-2.5,-2.5273,-2.5605,-2.4668,-2.5098,-2.6074,-2.7246,-2.9922,-3.3027,-3.5879,-3.6855,-3.8027,-4.1055,-4.0215,-3.9062,-3.9492,-3.9766,-4.0176,-4.0859,-4.2734,-4.4258,-4.4707,-4.5137,-4.5254,-4.4824,-4.4668,-4.4297,-4.3535,-4.3613,-4.3281,-4.2266,-4.2187,-4.1816,-4.0937,-4.0508,-4.0059,-3.9609,-3.9336,-3.9062,-3.8769,-3.8633,-3.8574,-3.8574,-3.8574,-3.8574,-3.8574,-3.8574,-3.873,-3.9004,-3.9004,-3.9277,-3.9687,-3.9687,-3.9863,-4.0117,-3.9961,-4.0176,-4.0605,-4.0684,-4.0644,-4.0586,0.0,0.0,0.0,0.0,0.0,0.0,0.0,0.0,0.0,0.0,-1.6555,-1.6829,0.0,0.0,0.0,0.0,0.0,0.0,0.0,-2.0412,-2.1609,-2.3001,-2.4272,-2.5526,-2.675,-2.9828,-3.1738,-3.2376,-3.3782,-3.284,-2.9637,-3.0248,-2.9644,-2.7976,-2.8025,-2.6373,-2.3444,-2.2538,-2.2202,-2.2245,-2.1773,-2.196,-2.2413,0.0,0.0,0.0,0.0,0.0,0.0,0.0,0.0,0.0,-2.2062,-2.3589,-2.5273,-2.4805,-2.5,-2.5293,-2.5019,-2.5644,-2.6855,-2.8828,-3.1641,-3.4785,-3.8086,-3.9434,-4.0527,-4.2519,-4.1582,-4.0586,-4.1172,-4.0996,-4.0976,-4.1582,-4.2969,-4.4082,-4.4355,-4.4609,-4.4687,-4.4433,-4.4238,-4.3906,-4.3379,-4.3398,-4.2988,-4.1875,-4.1641,-4.1094,-4.0059,-3.9746,-3.9414,-3.8965,-3.8945,-3.8828,-3.8574,-3.8574,-3.8496,-3.832,-3.8496,-3.8476,-3.832,-3.8496,-3.8711,-3.8965,-3.9121,-3.9258,-3.9394,-3.9551,-3.9668,-3.9766,-3.9863,-4.0098,-4.043,-4.0684,-4.0664,-4.0586,0.0,0.0,-1.4334,-1.4334,0.0,0.0,0.0,0.0,0.0,0.0,-1.8512,-1.8796,0.0,0.0,0.0,0.0,0.0,0.0,0.0,0.0,-2.2912,-2.4172,-2.4459,-2.5635,-2.781,-3.0392,-3.0723,-2.875,-3.1738,-3.2344,-3.0762,-3.3398,-3.3737,-3.2162,-3.2526,-3.0438,-2.6681,-2.5439,-2.4353,-2.3477,-2.3255,-2.3672,-2.4122,-2.189,0.0,0.0,0.0,0.0,0.0,0.0,0.0,0.0,-2.314,-2.3693,-2.4043,-2.4746,-2.4512,-2.4277,-2.5421,-2.6211,-2.7363,-3.0469,-3.3301,-3.6406,-4.0488,-4.2305,-4.3223,-4.3574,-4.2441,-4.1641,-4.2402,-4.1914,-4.166,-4.2422,-4.3555,-4.4336,-4.4336,-4.4336,-4.4336,-4.4336,-4.3965,-4.3691,-4.3652,-4.3262,-4.2656,-4.1758,-4.1289,-4.0488,-3.9219,-3.9141,-3.8945,-3.8535,-3.8516,-3.8496,-3.8457,-3.8457,-3.8262,-3.7871,-3.8262,-3.8262,-3.7891,-3.8359,-3.8574,-3.8594,-3.8984,-3.8926,-3.8613,-3.8984,-3.8945,-3.8711,-3.9473,-3.957,-3.9414,-4.0625,-4.0781,-4.0469,0.0,0.0,-1.6124,-1.6124,0.0,0.0,0.0,0.0,0.0,0.0,0.0,0.0,0.0,0.0,0.0,0.0,0.0,0.0,0.0,0.0,-2.2272,-2.3625,-2.4789,-2.6111,-2.7721,-2.8008,-2.7891,-2.7422,-3.0117,-3.0723,-2.9414,-3.2676,-3.3165,-3.1262,-3.2413,-3.003,-2.5061,-2.3185,-2.2393,-2.2418,-2.2384,-2.3394,-2.4823,-2.3956,-2.3047,0.0,0.0,0.0,0.0,0.0,0.0,0.0,-2.1331,-2.3066,-2.4734,-2.4219,-2.4902,-2.5898,-2.6172,-2.7285,-2.9258,-3.2969,-3.7109,-4.0781,-4.2715,-4.3379,-4.3496,-4.3262,-4.3183,-4.3223,-4.3398,-4.3281,-4.3223,-4.3398,-4.3672,-4.3848,-4.3848,-4.3848,-4.3848,-4.3848,-4.3769,-4.3574,-4.3242,-4.2812,-4.207,-4.0879,-4.041,-3.9746,-3.8769,-3.8711,-3.8516,-3.8086,-3.8066,-3.791,-3.7578,-3.7578,-3.7519,0.0,-3.7519,-3.7519,-3.7461,-3.8223,-3.8574,-3.8574,-3.8672,-3.8652,-3.8574,-3.8672,-3.8848,-3.9062,-3.8906,-3.9219,-3.9785,-4.0059,-3.9883,-3.959,0.0,0.0,0.0,0.0,0.0,0.0,0.0,0.0,0.0,0.0,0.0,0.0,0.0,-2.0167,0.0,0.0,-2.0675,-2.1247,-2.1971,-2.2733,-2.3529,-2.4442,-2.5528,-2.634,-2.6897,-2.698,-2.6816,-2.6356,-2.7969,-2.8906,-2.9297,-3.1934,-3.2917,-3.2485,-3.2832,-3.0543,-2.626,-2.4198,-2.3321,-2.3306,-2.3443,-2.4295,-2.545,-2.4622,-2.3795,-2.2881,-2.202,0.0,0.0,0.0,0.0,0.0,0.0,0.0,-2.3442,-2.315,-2.3898,-2.4974,-2.5793,-2.7902,-3.1035,-3.5957,-3.9668,-4.2383,-4.3457,-4.3711,-4.3633,-4.3418,-4.3555,-4.3711,-4.3711,-4.3711,-4.3711,-4.3711,-4.3711,-4.3711,-4.3711,-4.3711,-4.3633,-4.3437,-4.3223,-4.293,-4.25,-4.1894,-4.1152,-4.0293,-3.9805,-3.9277,-3.8613,-3.8379,-3.8164,-3.793,-3.7734,-3.7519,-3.7305,-3.7305,-3.7187,-3.7012,-3.7207,-3.7305,-3.7324,-3.7754,-3.7969,-3.7969,-3.8184,-3.8262,-3.8281,-3.8496,-3.8711,-3.8906,-3.8887,-3.9043,-3.9316,-3.9746,-3.9746,-3.9629,0.0,0.0,0.0,0.0,0.0,0.0,0.0,0.0,0.0,0.0,0.0,0.0,0.0,-2.1687,-2.1731,0.0,0.0,0.0,-2.3346,-2.4323,-2.5131,-2.5648,-2.6193,-2.6442,-2.6299,-2.6695,-2.6641,-2.6074,-2.6348,-2.7656,-2.9941,-3.1523,-3.293,-3.3992,-3.3274,-3.12,-2.8016,-2.5914,-2.4777,-2.433,-2.4517,-2.502,-2.5496,-2.4583,-2.3947,-2.3467,-2.2147,-2.1141,-2.0557,-2.1006,0.0,0.0,0.0,0.0,-2.1768,-2.208,-2.2668,-2.3494,-2.5173,-2.8593,-3.3047,-3.834,-4.1016,-4.2539,-4.3398,-4.3594,-4.3613,-4.3691,-4.3711,-4.3711,-4.3711,-4.3711,-4.3711,-4.3711,-4.3633,-4.3594,-4.3594,-4.3476,-4.3242,-4.2891,-4.248,-4.207,-4.1719,-4.0918,-4.0273,-3.9922,-3.9336,-3.8828,-3.8476,-3.8047,-3.7754,-3.7598,-3.7324,-3.7109,-3.6973,-3.7051,-3.6894,-3.6562,-3.6914,-3.7031,-3.6973,-3.7051,-3.7168,-3.7324,-3.7734,-3.793,-3.7969,-3.8398,-3.8574,-3.8613,-3.8965,-3.8887,-3.8672,-3.9473,-3.9766,-3.9844,0.0,0.0,0.0,0.0,0.0,0.0,0.0,0.0,0.0,0.0,-2.1431,-2.1687,-2.1687,-2.1687,-2.1776,-2.2017,-2.2516,-2.3018,-2.3607,0.0,0.0,-2.5898,-2.6025,-2.6524,-2.7428,-2.6816,-2.6777,-2.7402,-2.709,-2.8418,-3.1269,-3.2266,-3.3015,-3.3566,-3.318,-3.1083,-2.7712,-2.5346,-2.3861,-2.3108,-2.304,-2.344,-2.3998,-2.3888,-2.3453,-2.2815,-2.2015,-2.1606,-2.1248,-1.9695,-1.965,0.0,0.0,0.0,-2.1713,-2.175,-2.2711,-2.3948,-2.5251,-3.0367,-3.5879,-3.8184,-4.0332,-4.2109,-4.2969,-4.3164,-4.3262,-4.3633,-4.3711,-4.3711,-4.3711,-4.3711,-4.3711,-4.3711,-4.3398,-4.3164,-4.3164,-4.2519,-4.2031,-4.1973,-4.1601,-4.1328,-4.1269,-4.0488,-3.9961,-3.9902,-3.8769,-3.8066,-3.8008,-3.7617,-3.7031,-3.6289,-3.6582,-3.6406,-3.5644,-3.6016,-3.6152,-3.6113,-3.6172,-3.5996,-3.5664,-3.6016,-3.6601,-3.7324,-3.7734,-3.793,-3.7969,-3.8398,-3.8574,-3.8574,-3.8633,-3.8633,-3.8633,-3.9121,-3.9297,-3.9355,0.0,0.0,0.0,0.0,0.0,0.0,0.0,0.0,0.0,0.0,0.0,-2.2087,-2.2087,-2.2087,-2.2132,-2.2264,-2.2983,-2.3877,-2.4784,-2.5121,-2.5624,-2.6218,-2.5954,-2.6209,-2.6934,-2.6348,-2.6211,-2.6582,-2.6641,-2.8203,-3.1191,-3.2051,-3.2965,-3.3766,-3.2498,-3.0686,-2.8438,-2.6223,-2.4996,-2.4427,-2.4221,-2.4033,-2.3908,-2.4079,-2.3309,-2.2126,-2.1823,0.0,-1.9923,-1.9101,-1.9055,-1.9422,-1.9422,0.0,0.0,0.0,-2.2044,-2.4108,-2.7599,-3.1167,-3.4629,-3.7793,-3.9668,-4.1016,-4.2109,-4.2539,-4.2773,-4.2949,-4.2988,-4.3066,-4.3301,-4.3164,-4.2988,-4.2988,-4.2832,-4.2715,-4.2715,-4.2187,-4.1719,-4.1484,-4.0859,-4.0351,-4.0098,-3.9512,-3.9062,-3.8809,-3.8262,-3.7812,-3.7598,-3.6934,-3.6406,-3.6035,-3.5723,-3.5391,-3.5,-3.5195,-3.5273,-3.5293,-3.5547,-3.5566,-3.541,-3.582,-3.6367,-3.6953,-3.7148,-3.748,-3.7949,-3.8125,-3.8359,-3.8574,-3.8574,-3.8574,-3.8594,-3.8789,-3.916,-3.9609,0.0,0.0,0.0,0.0,0.0,0.0,0.0,0.0,0.0,0.0,0.0,-2.2435,-2.2548,0.0,0.0,0.0,-2.353,-2.4512,-2.5479,-2.5635,-2.582,-2.6035,-2.584,-2.5849,-2.6211,-2.5898,-2.5752,-2.5898,-2.6445,-2.8359,-3.1543,-3.2305,-3.3574,-3.5137,-3.2995,-3.1069,-2.9429,-2.7825,-2.6769,-2.6186,-2.558,-2.4679,-2.3786,-2.399,-2.3119,-2.186,-2.2128,0.0,0.0,0.0,0.0,-1.9583,-1.9501,-1.9728,0.0,0.0,0.0,-2.3614,-2.8172,-3.043,-3.2383,-3.6035,-3.793,-3.9336,-4.0937,-4.1641,-4.2012,-4.2226,-4.2187,-4.2168,-4.2383,-4.2344,-4.2266,-4.2266,-4.209,-4.1933,-4.1933,-4.1484,-4.1016,-4.0703,-4.0019,-3.9375,-3.8926,-3.8594,-3.8184,-3.7656,-3.75,-3.7266,-3.6836,-3.6094,-3.5644,-3.5527,-3.498,-3.4648,-3.4531,-3.4648,-3.4648,-3.4551,-3.5117,-3.5332,-3.5234,-3.5781,-3.625,-3.668,-3.668,-3.709,-3.7773,-3.7871,-3.8184,-3.8574,-3.8574,-3.8574,-3.8574,-3.8574,-3.9062,-3.9726,0.0,0.0,0.0,0.0,0.0,0.0,0.0,0.0,0.0,0.0,0.0,-2.2548,-2.3036,-2.2688,-2.2637,-2.3307,-2.3794,-2.4376,-2.5078,-2.5508,-2.5566,-2.5204,-2.5527,0.0,-2.5732,-2.5693,-2.5937,-2.6348,-2.7239,-2.9551,-3.3301,-3.3769,-3.5527,-3.8223,-3.5664,-3.3019,-3.0373,-2.9872,-2.9029,-2.7891,-2.6059,-2.4463,-2.3153,-2.3159,-2.2751,0.0,0.0,0.0,0.0,0.0,0.0,0.0,0.0,-2.0448,-1.9272,0.0,0.0,0.0,-2.4699,-2.7552,-3.0213,-3.2031,-3.4375,-3.6875,-3.9414,-4.0312,-4.0859,-4.166,-4.1523,-4.1113,-4.0723,-4.1308,-4.1836,-4.1836,-4.1152,-4.0625,-4.0625,-3.9883,-3.9336,-3.9316,-3.8906,-3.8476,-3.8027,-3.7969,-3.7617,-3.6797,-3.6348,-3.5937,-3.5508,-3.5039,-3.459,-3.418,-3.4512,-3.4512,-3.4101,-3.4492,-3.4492,-3.4121,-3.498,-3.5156,-3.4766,-3.5625,-3.625,-3.668,-3.668,-3.6914,-3.7363,-3.7754,-3.8184,-3.8574,-3.8574,-3.8574,-3.8574,-3.8574,-3.8848,-3.9297,0.0,0.0,0.0,0.0,0.0,0.0,0.0,0.0,0.0,0.0,0.0,0.0,0.0,-2.377,-2.3796,-2.4042,-2.4497,-2.4925,-2.5469,-2.5596,-2.5615,-2.5508,-2.5596,-2.5693,-2.5693,-2.5693,-2.5771,-2.5977,-2.6269,-2.7988,-3.0976,-3.1973,-3.3301,-3.4844,-3.418,-3.316,-3.1832,-2.9478,-2.8257,-2.7723,-2.6187,-2.5064,-2.4345,-2.4055,0.0,0.0,0.0,0.0,0.0,0.0,0.0,0.0,0.0,0.0,0.0,-2.0488,-2.1049,-2.1959,-2.4593,-2.6071,-2.7558,-3.0236,-3.2461,-3.4414,-3.6152,-3.7754,-3.8945,-3.9238,-3.9414,-3.9453,-3.9297,-3.998,-4.0586,-4.0586,-4.0312,-4.0117,-4.0117,-3.959,-3.9199,-3.9199,-3.8574,-3.8086,-3.7949,-3.7676,-3.7285,-3.6719,-3.6523,-3.625,-3.582,-3.5371,-3.4941,-3.4492,-3.4355,-3.4082,-3.3652,-3.3809,-3.3809,-3.3672,-3.4258,-3.459,-3.4726,-3.5332,-3.5859,-3.625,-3.625,-3.6641,-3.7285,-3.7168,-3.7519,-3.8164,-3.8164,-3.832,-3.8574,-3.8574,-3.8848,-3.9277,0.0,0.0,0.0,0.0,0.0,-2.6193,0.0,0.0,0.0,0.0,0.0,0.0,0.0,0.0,-2.5179,-2.5338,-2.5805,-2.6074,-2.5996,-2.6108,-2.5983,-2.5527,-2.5615,-2.5693,-2.5693,-2.5693,-2.5693,-2.5693,-2.5986,-2.7324,-2.9646,-3.0898,-3.2129,-3.3223,-3.3066,-3.3086,-3.3086,-3.0937,-2.9609,-2.8828,-2.7226,-2.6152,-2.5508,0.0,0.0,0.0,0.0,0.0,0.0,0.0,0.0,0.0,0.0,0.0,0.0,0.0,-2.132,-2.1703,-2.406,-2.5035,-2.6106,-2.9131,-3.0704,-3.2051,-3.4199,-3.5586,-3.6582,-3.7168,-3.7637,-3.7988,-3.8125,-3.8633,-3.9062,-3.9219,-3.9238,-3.9238,-3.9238,-3.9101,-3.8945,-3.8789,-3.8262,-3.7812,-3.7539,-3.7246,-3.6797,-3.6055,-3.6152,0.0,-3.5195,-3.5019,-3.4746,-3.4277,-3.4004,-3.3711,-3.3418,-3.3418,-3.3418,-3.3437,-3.3867,-3.4219,-3.4512,-3.4961,-3.5391,-3.5801,-3.5801,-3.6289,-3.707,-3.6777,-3.7168,-3.793,-3.793,-3.8184,-3.8574,-3.8574,-3.875,-3.9082,0.0,-2.5359,-2.6066,-2.6368,-2.6627,-2.6841,-2.6841,0.0,0.0,0.0,0.0,0.0,0.0,0.0,0.0,-2.7315,-2.7846,-2.7705,-2.6718,-2.6993,-2.6581,-2.5232,-2.5547,-2.5732,-2.5732,-2.5732,-2.5732,-2.5732,-2.6602,-2.7871,-2.9607,-3.084,-3.2344,-3.3926,-3.2715,-3.2851,-3.4023,-3.4375,-3.334,-3.1289,-2.9141,-2.7559,-2.6562,0.0,0.0,0.0,-2.8301,-2.8379,0.0,-2.7748,0.0,0.0,0.0,0.0,0.0,0.0,0.0,-2.138,0.0,0.0,0.0,-2.8391,-2.8939,-2.9787,-3.3633,-3.3887,-3.3809,-3.5527,-3.623,-3.668,-3.7129,-3.7207,-3.7344,-3.7773,-3.7871,-3.791,-3.791,-3.8262,-3.8379,-3.7949,-3.7891,-3.7559,-3.6758,-3.6641,-3.6113,-3.4824,-3.5137,-3.4824,-3.3555,-3.3867,-3.3887,-3.3457,-3.3437,-3.3418,-3.3418,-3.3418,-3.3418,-3.3437,-3.3848,-3.4062,-3.4082,-3.4492,-3.4941,-3.5391,-3.5391,-3.5879,-3.666,-3.666,-3.7148,-3.791,-3.791,-3.8184,-3.8574,-3.8574,-3.8574,-3.8691,-2.7423,-2.7766,-2.8075,-2.8907,-2.9445,-2.9753,-2.9753,0.0,0.0,0.0,0.0,0.0,0.0,0.0,-3.0476,-3.0606,-2.9999,-2.9189,-2.8097,-2.7411,-2.6883,-2.6484,-2.6602,-2.666,-2.666,-2.666,-2.666,-2.666,-2.6894,-2.7578,-2.8652,-2.9336,-3.0391,-3.1777,-3.2051,-3.2187,-3.2148,-3.0996,-3.0527,-3.041,-2.8574,-2.8184,0.0,0.0,0.0,0.0,0.0,-2.8516,-2.8516,0.0,-2.7336,-2.6078,0.0,0.0,0.0,0.0,0.0,0.0,-2.3243,0.0,0.0,0.0,0.0,0.0,-2.9,-3.0256,-3.1406,-3.2539,-3.3105,-3.373,-3.4766,-3.4961,-3.5215,-3.5976,-3.6875,-3.7461,-3.7461,-3.7578,-3.7598,-3.748,-3.7207,-3.6934,-3.6699,-3.6113,-3.5723,0.0,-3.5488,-3.5234,-3.4863,-3.4355,-3.4023,-3.3887,-3.3594,-3.3418,-3.3418,-3.3418,-3.3418,-3.3418,-3.3535,-3.3769,-3.4082,-3.4199,-3.4668,-3.5391,-3.5391,-3.5703,-3.6191,-3.6191,-3.6699,-3.7461,-3.7461,-3.793,-3.8574,-3.8574,-3.8574,-3.8691,-2.8685,-2.9097,-2.9508,-3.0567,-3.1553,-3.213,-3.1913,0.0,0.0,0.0,0.0,0.0,0.0,0.0,0.0,-3.2858,-3.2127,-3.1011,-2.9324,-2.835,-2.7597,-2.7031,-2.7012,-2.7012,-2.7012,-2.7012,-2.7109,-2.7285,-2.7285,-2.7637,-2.8301,-2.8535,-2.9062,-2.9824,-3.0508,-3.0664,-3.0371,-2.9355,-2.9414,-3.0137,-2.9336,0.0,0.0,-2.9805,-2.9883,0.0,0.0,0.0,-3.0644,-2.9707,-2.8504,0.0,0.0,0.0,0.0,0.0,0.0,0.0,0.0,0.0,0.0,-2.5195,0.0,0.0,-2.7328,-2.8121,-2.8848,-2.9726,-3.0391,-3.1152,-3.2246,-3.291,-3.3516,-3.4199,-3.5234,-3.6211,-3.6934,-3.7031,-3.6973,-3.6777,-3.6387,-3.6055,-3.5859,-3.5391,-3.5137,-3.5195,-3.5137,-3.5019,-3.4863,-3.418,-3.3809,-3.3809,-3.3555,-3.3418,-3.3418,-3.3418,-3.3418,-3.3418,-3.3418,-3.3555,-3.3809,-3.3809,-3.418,-3.4863,-3.5039,-3.5234,-3.5508,-3.5859,-3.6426,-3.7031,-3.7031,-3.7559,-3.8301,-3.8301,-3.8418,-3.8672,0.0,-2.9672,-3.047,-3.1693,-3.3068,-3.3886,0.0,0.0,0.0,0.0,0.0,0.0,0.0,0.0,0.0,0.0,-3.4102,-3.2858,-3.0389,-2.9492,-2.8511,-2.7297,-2.7187,-2.7148,-2.7148,-2.7148,-2.7363,-2.7865,-2.7865,-2.8027,-2.8437,0.0,0.0,0.0,-2.875,-2.8887,-2.8848,-2.8945,-2.9434,-3.0176,-3.0684,-3.0996,0.0,0.0,-3.3184,-3.3086,-3.416,-3.4101,-3.3242,-3.1582,-2.9883,0.0,0.0,0.0,0.0,0.0,-2.3726,0.0,0.0,0.0,0.0,0.0,-2.6191,0.0,-2.7314,-2.6982,-2.6621,-2.7422,-2.8184,-2.8984,-2.9883,-3.1055,-3.2012,-3.2441,-3.3262,-3.4538,-3.6211,-3.6445,-3.6309,-3.5918,-3.5547,-3.5156,-3.4746,-3.4668,-3.4492,-3.416,-3.4453,-3.4473,-3.4101,-3.3652,-3.3418,-3.3418,-3.3418,-3.3418,-3.3418,-3.3418,-3.3418,-3.3418,-3.3418,-3.3418,-3.3418,-3.3418,-3.3652,-3.4101,-3.4473,-3.4687,-3.4844,-3.5625,-3.6211,-3.6601,-3.666,-3.7148,-3.7851,-3.791,-3.8164,-3.8574,-3.0332,-3.0302,-3.0687,-3.2635,-3.3573,-3.4246,0.0,0.0,0.0,0.0,0.0,-3.8687,-4.0263,0.0,0.0,0.0,-3.5488,-3.3465,-3.1123,-2.9709,-2.8849,-2.8555,-2.8223,-2.8047,-2.8047,-2.8047,-2.8242,-2.8672,-2.8672,-2.8906,-2.9372,0.0,0.0,0.0,-2.8887,-2.873,-2.8457,-2.916,-2.9531,-2.9766,-3.0566,-3.1699,-3.293,-3.293,-3.3301,-3.3809,-3.3711,-3.3789,-3.375,-3.2383,-3.0762,-2.9183,0.0,0.0,0.0,-2.6034,0.0,0.0,0.0,0.0,0.0,0.0,0.0,0.0,-2.5958,-2.6191,-2.6523,-2.7031,-2.7266,-2.7754,-2.8945,-2.9668,-3.0215,-3.0644,-3.1738,-3.3144,-3.4844,-3.5078,-3.5059,-3.4961,-3.4883,-3.4805,-3.4707,-3.4394,-3.4297,-3.4551,-3.4336,-3.416,-3.4082,-3.3652,-3.3418,-3.3418,-3.3418,-3.3418,-3.3418,-3.3418,-3.3418,-3.3418,-3.3418,-3.3418,-3.3418,-3.3418,-3.3652,-3.4082,-3.416,-3.4609,-3.5273,-3.5449,-3.5762,-3.6172,-3.6543,-3.6973,-3.7461,-3.7793,-3.7969,-3.8164,-3.0754,-3.0663,-3.124,-3.3645,0.0,0.0,0.0,0.0,-3.7902,-3.8695,-4.0427,-4.1581,-4.1581,-4.1341,0.0,0.0,0.0,0.0,0.0,0.0,-2.9805,-2.957,-2.916,-2.8828,-2.8613,-2.8613,-2.8711,-2.8926,-2.8926,-2.9141,-2.957,0.0,0.0,0.0,-2.8516,-2.8379,-2.8027,-2.8652,-2.9297,-3.0,-3.1309,0.0,-3.3476,-3.3926,-3.4492,-3.5019,-3.4805,-3.4434,-3.3906,-3.2832,-3.1621,0.0,0.0,-2.8218,-2.7761,0.0,-2.6788,-2.6337,0.0,0.0,0.0,-2.6601,0.0,0.0,0.0,-2.5913,-2.5996,-2.5762,-2.5898,-2.6172,-2.6602,-2.7559,-2.8437,-2.8867,-2.9844,-3.0996,-3.2285,-3.3203,-3.375,-3.375,-3.3574,-3.3437,-3.3437,-3.3242,-3.3203,-3.3418,-3.3633,-3.3652,-3.3437,-3.3418,-3.3418,-3.3418,-3.3418,-3.3418,-3.3418,-3.3418,-3.3418,-3.3418,-3.3418,-3.3418,-3.3418,-3.3418,-3.3535,-3.375,-3.3984,-3.4316,-3.4766,-3.5215,-3.5527,-3.5742,-3.6172,-3.6601,-3.7031,-3.7461,-3.7734,-3.8027,-3.0995,-3.1067,-3.1793,-3.4246,0.0,0.0,0.0,0.0,-3.9489,-3.9994,-4.2086,-4.3156,-4.1918,-4.211,-4.1763,0.0,0.0,0.0,0.0,0.0,-3.0794,-3.0475,-2.9914,-2.9336,-2.8809,-2.8887,-2.8965,-2.9043,-2.8965,-2.9101,-2.9434,0.0,0.0,0.0,-2.8223,-2.8223,-2.793,-2.8359,-2.9238,-3.0488,-3.2226,-3.3066,-3.3457,-3.4863,-3.5605,-3.5918,-3.5996,-3.5293,-3.4199,-3.334,-3.2461,-3.1425,-2.9601,-2.912,0.0,0.0,0.0,0.0,0.0,0.0,0.0,0.0,0.0,-2.7617,0.0,0.0,0.0,-2.5,-2.5078,-2.5195,-2.4746,-2.5879,-2.6992,-2.7246,-2.8066,-2.8887,-2.9492,-3.0937,-3.2012,-3.2266,-3.1914,-3.1777,-3.2012,-3.2051,-3.207,-3.2168,-3.2715,-3.2949,-3.2695,-3.2988,-3.3223,-3.3301,-3.3301,-3.334,-3.3418,-3.3418,-3.3418,-3.3418,-3.3418,-3.3418,-3.3418,-3.3418,-3.3544,-3.3816,-3.4314,-3.468,-3.5056,-3.5876,-3.6276,-3.633,-3.6082,-3.623,-3.6601,-3.7109,-3.7519,-3.7891,-3.1597,-3.1621,-3.2106,-3.379,-3.4558,0.0,0.0,0.0,-3.9032,-4.1389,-4.276,-4.3625,-4.3901,-4.2014,-4.1102,-4.2164,0.0,0.0,-3.8459,0.0,0.0,-3.136,-3.0238,-2.9199,-2.8379,-2.873,-2.9101,-2.9492,-2.9101,-2.8945,0.0,0.0,0.0,0.0,-2.8652,-2.8828,-2.8809,-2.9238,-2.9961,-3.0957,-3.2656,-3.3164,0.0,-3.4746,-3.543,-3.5508,-3.5879,-3.5684,-3.5098,0.0,-3.3359,-3.2419,0.0,-3.0219,-2.9595,-3.0026,0.0,0.0,0.0,0.0,0.0,0.0,-2.9238,0.0,0.0,0.0,-2.7656,-2.6426,0.0,-2.6113,-2.5615,0.0,0.0,-2.6016,-2.6992,-2.7715,-2.7422,-2.8203,-2.9219,-3.0351,-3.0117,-3.0312,-3.1484,-3.1582,-3.1758,-3.2148,-3.1894,-3.1875,-3.2226,-3.2285,-3.248,-3.2851,-3.2871,-3.3047,-3.3418,-3.3418,-3.3418,-3.3418,-3.3418,-3.3418,-3.3418,-3.3418,-3.4027,-3.5211,-3.5727,-3.6834,-3.8246,-3.8828,-3.9261,-3.941,-3.6991,-3.6055,-3.6191,-3.6992,-3.7324,-3.7539,-3.1717,-3.1717,-3.2274,-3.4126,-3.4631,0.0,0.0,0.0,-4.2086,-4.3192,-4.4804,-4.591,-4.615,-4.4635,-4.373,-4.4018,-4.0768,-3.8925,0.0,0.0,0.0,0.0,0.0,0.0,-2.9824,-2.9961,-2.9785,-2.9199,-2.9004,-2.8789,0.0,0.0,0.0,0.0,-2.8359,-2.8555,-2.8594,-2.9277,-3.0078,-3.1016,-3.248,-3.3105,0.0,-3.5098,-3.5762,-3.5781,-3.5957,-3.5586,-3.4863,0.0,-3.3457,0.0,0.0,0.0,0.0,0.0,0.0,0.0,0.0,0.0,0.0,0.0,0.0,0.0,-2.8591,0.0,-2.7988,0.0,0.0,0.0,0.0,0.0,0.0,0.0,-2.6191,-2.6582,-2.6641,-2.6738,-2.7383,-2.8906,-2.8945,0.0,-2.959,-2.9863,-2.998,-2.9922,-3.043,-3.084,-3.1016,-3.1523,-3.1992,-3.2422,-3.2676,-3.2871,-3.3066,-3.3301,-3.3418,-3.3418,-3.3418,-3.3418,-3.3418,-3.3418,-3.4153,-3.5397,-3.5977,-3.717,-3.875,-3.9294,-3.9282,-3.8838,-3.7662,-3.7193,-3.7247,-3.7252,-3.7305,-3.7441,-3.2151,-3.203,-3.2466,-3.4294,-3.4558,-3.5473,-3.7974,-4.1028,-4.3252,-4.4034,-4.5453,-4.668,-4.7425,-4.6559,-4.6126,-4.6607,-4.4151,-4.2343,0.0,0.0,-3.7,0.0,0.0,0.0,0.0,0.0,-3.043,-2.9453,-2.9219,-2.8945,0.0,0.0,0.0,0.0,0.0,-2.918,-2.9258,-3.0332,-3.125,-3.2031,-3.3203,-3.3926,-3.4434,-3.5449,-3.5918,-3.5996,-3.5898,-3.5508,-3.4922,-3.4062,-3.3848,0.0,-3.2598,0.0,0.0,0.0,0.0,0.0,-3.1641,0.0,0.0,0.0,0.0,0.0,0.0,0.0,0.0,0.0,0.0,0.0,0.0,0.0,0.0,0.0,0.0,-2.5996,-2.6191,-2.5888,-2.625,-2.7617,-2.7969,0.0,0.0,-2.832,-2.8496,-2.8301,-2.9043,-2.9609,-2.9844,-3.0566,-3.1289,-3.1973,-3.2402,-3.2734,-3.2969,-3.3262,-3.3418,-3.3418,-3.3418,-3.3418,-3.3418,-3.3418,-3.4153,-3.5459,-3.6478,-3.784,-3.9335,-4.0397,-4.0443,-3.9757,-3.9558,-3.9469,-3.9311,-3.7828,-3.7363,-3.7598,-3.3236,-3.2827,-3.2803,-3.3838,-3.4006,-3.4727,-3.6916,-3.8671,-4.0667,-4.3301,-4.3625,-4.4635,-4.7209,-4.6559,-4.7161,-5.0263,-4.7119,-4.5438,-4.6422,0.0,-3.9323,0.0,0.0,-3.3942,0.0,0.0,0.0,0.0,0.0,0.0,0.0,0.0,0.0,0.0,-3.084,-3.1406,-3.1523,-3.3223,-3.418,-3.4648,-3.5547,-3.6172,-3.6484,0.0,-3.5664,-3.5976,-3.5566,0.0,0.0,-3.4961,-3.4961,0.0,0.0,0.0,0.0,0.0,0.0,0.0,0.0,0.0,0.0,-3.1816,0.0,0.0,0.0,0.0,-3.0312,0.0,0.0,0.0,0.0,0.0,0.0,0.0,0.0,0.0,0.0,-2.5693,-2.5869,-2.6387,-2.7187,-2.7519,0.0,-2.7441,-2.7871,0.0,-2.8002,-2.8105,-2.8906,-2.9394,-3.0215,-3.1504,-3.1953,-3.2578,-3.3398,-3.3418,-3.3418,-3.3418,-3.3418,-3.3418,-3.3418,-3.3418,-3.4153,-3.5541,-3.7795,-3.9516,-4.0923,-4.3165,-4.4137,-4.4022,-4.3206,-4.294,-4.2489,-3.869,-3.7559,-3.8027,-3.4174,-3.4174,-3.415,-3.4462,-3.4799,-3.593,-3.8407,-4.0715,-4.3265,-4.6295,-4.7906,-4.9926,-5.2956,-5.2956,-5.2884,-5.3245,-5.1201,-4.9421,-4.8339,-4.5405,0.0,0.0,0.0,-3.6633,0.0,0.0,0.0,0.0,0.0,0.0,0.0,0.0,0.0,0.0,0.0,-3.0976,-3.1601,-3.3047,-3.3887,-3.4394,-3.5547,-3.6621,-3.7383,0.0,-3.5898,-3.5996,-3.5859,-3.5723,0.0,-3.5254,-3.5059,-3.4883,-3.459,-3.4199,-3.3828,-3.3691,-3.3633,0.0,0.0,0.0,-3.4277,-3.2422,0.0,0.0,0.0,0.0,0.0,0.0,0.0,0.0,0.0,0.0,0.0,0.0,0.0,0.0,0.0,-2.5693,-2.5752,-2.5937,-2.6211,-2.6328,-2.6142,0.0,0.0,0.0,-2.6309,0.0,-2.7617,-2.8594,-2.9746,-3.1055,-3.1797,-3.2441,-3.3008,-3.3281,-3.3418,-3.3418,-3.3418,-3.3418,-3.3418,-3.3418,-3.4153,-3.5479,-3.6876,-3.8226,-3.9543,-4.1013,-4.1033,-4.017,-4.0188,-3.9837,-3.9288,-3.9208,-3.9312,-3.9475,-3.5256,-3.5545,-3.5617,-3.5425,-3.5978,-3.7108,-3.9032,-4.2038,-4.5092,-4.793,-5.0479,-5.3125,-5.5938,-5.6395,-5.6227,-5.553,-5.4544,-5.2572,-4.9301,-4.8195,0.0,-4.3418,-4.1597,0.0,0.0,0.0,0.0,0.0,0.0,-3.1191,0.0,0.0,0.0,0.0,0.0,-3.1719,-3.209,-3.4004,-3.5093,-3.5611,-3.6562,-3.7134,0.0,0.0,-3.6309,-3.6621,0.0,-3.5723,-3.5586,-3.5449,-3.5293,-3.5137,-3.5,-3.4766,-3.4473,-3.416,-3.4297,-3.4414,-3.3809,-3.4375,0.0,-3.3418,-3.3144,0.0,-3.1445,0.0,0.0,0.0,0.0,0.0,0.0,0.0,0.0,0.0,0.0,0.0,0.0,-2.5693,-2.5693,-2.5693,-2.5693,-2.5635,-2.5508,-2.5371,0.0,0.0,0.0,0.0,0.0,-2.8008,-2.9375,-3.084,-3.1719,-3.2441,-3.3008,-3.3281,-3.3418,-3.3418,-3.3418,-3.3418,-3.3418,-3.3418,-3.3938,-3.4979,-3.6263,-3.7381,-3.8358,-3.9671,-3.9692,-3.8946,-4.0094,-4.0138,-3.9564,-3.9412,-3.9587,-3.989,-3.6435,-3.6892,-3.7108,-3.6603,-3.7397,-3.8286,-3.8888,-4.2519,-4.6006,-4.8195,-5.1273,-5.4087,-5.6275,-5.6925,-5.7213,-5.7213,-5.7141,-5.4928,-4.9806,-5.1249,0.0,0.0,-4.4027,-4.2636,-3.9409,0.0,0.0,0.0,0.0,0.0,0.0,0.0,0.0,0.0,-3.3281,-3.3555,-3.2988,-3.5918,-3.7528,-3.815,-3.8538,-3.7948,-3.6818,-3.6191,-3.6816,-3.7695,-3.6016,-3.5684,-3.5957,-3.5566,-3.5684,-3.5957,-3.5547,-3.541,-3.5234,-3.4375,-3.4726,-3.5215,-3.4375,-3.4453,-3.4746,-3.4707,0.0,0.0,0.0,0.0,-3.1836,0.0,0.0,0.0,0.0,0.0,0.0,0.0,0.0,0.0,0.0,0.0,-2.5713,-2.5693,-2.5674,-2.5547,-2.5137,-2.5449,0.0,0.0,0.0,0.0,0.0,-2.7559,-2.9062,-3.084,-3.1699,-3.2559,-3.3418,-3.3418,-3.3418,-3.3418,-3.3418,-3.3418,-3.3418,-3.3418,-3.3652,-3.423,-3.6024,-3.7055,-3.7553,-3.9454,-4.017,-4.0388,-4.2741,-4.3611,-4.3216,-3.9613,-3.8734,-3.9355,-3.6916,-3.7757,-3.8359,-3.8214,-3.908,-4.009,-4.1028,-4.4082,-4.7497,-5.0816,-5.4039,-5.7117,-6.0051,-6.0123,-5.9955,-5.9955,-5.8872,0.0,0.0,0.0,0.0,-5.0119,-4.7232,-4.5093,-4.3931,-3.9778,0.0,-3.5787,0.0,0.0,-3.2637,0.0,0.0,0.0,-3.2793,-3.3008,-3.291,-3.4629,-3.639,-3.815,-3.8538,-3.8911,-3.8917,0.0,-3.6816,-3.7754,-3.6348,-3.5937,-3.5996,-3.5898,-3.5937,-3.5996,-3.5898,-3.5644,-3.5351,-3.5117,-3.5215,-3.5351,-3.5117,-3.5371,-3.5527,-3.4863,-3.4219,-3.3574,0.0,0.0,0.0,0.0,0.0,0.0,0.0,0.0,0.0,0.0,0.0,0.0,0.0,0.0,0.0,-2.5732,-2.5449,-2.5332,-2.5547,-2.5078,-2.4668,0.0,0.0,0.0,-2.5859,0.0,-2.8769,-3.082,-3.1406,-3.2246,-3.3418,-3.3418,-3.3418,-3.3418,-3.3418,-3.3418,-3.3418,-3.3418,-3.3652,-3.423,-3.6024,-3.6493,-3.6163,-3.9469,-4.0209,-3.9361,-4.0631,-4.1343,-4.1753,-4.3416,-4.2153,-3.9935,-3.7805,-3.9152,-4.0114,-3.9898,-4.1677,-4.3192,-4.3337,-4.5261,-4.805,-5.1802,-5.5049,-5.779,-5.9834,-6.0604,-6.0965,-6.0965,-5.9714,0.0,-5.6419,0.0,0.0,-5.2331,-4.9653,-4.7514,-4.6032,-4.1925,0.0,-3.6686,0.0,0.0,-3.3066,0.0,0.0,0.0,-3.2871,-3.326,-3.3758,-3.6331,-3.7984,-3.9093,-3.9944,-4.0311,0.0,-3.7827,-3.7385,-3.7808,-3.6475,-3.6016,-3.6016,-3.6016,-3.6016,-3.6016,-3.6016,-3.5859,-3.5664,-3.5664,-3.5664,-3.5664,-3.5664,-3.5703,-3.5625,-3.5137,-3.4531,-3.3906,-3.3223,-3.293,-3.2598,0.0,0.0,0.0,0.0,0.0,0.0,0.0,0.0,0.0,0.0,0.0,0.0,-2.6328,-2.5918,-2.5742,-2.5996,-2.5039,-2.4414,0.0,0.0,0.0,0.0,0.0,-2.8672,-3.0273,-3.1465,-3.2422,-3.3144,-3.3711,-3.3789,-3.3418,-3.3418,-3.3516,-3.3711,-3.3711,-3.4062,-3.4733,-3.6432,-3.7033,-3.7106,-3.9168,-3.9707,-3.9212,-3.9938,-4.0477,-4.1167,-4.4242,-4.3464,-4.0993,-3.8815,-4.0571,-4.1798,-4.1268,-4.4251,-4.6535,-4.6054,-4.6992,-4.8964,-5.2355,-5.5506,-5.7646,-5.8175,-5.981,-6.0893,-6.0965,-6.0003,-5.8367,-5.5963,-5.6083,-5.5169,-5.2788,-5.1537,-4.9675,-4.7142,-4.3604,0.0,0.0,0.0,0.0,0.0,-3.367,-3.3473,-3.3139,-3.3324,-3.3933,-3.5041,-3.9059,-4.0618,-4.051,-4.1873,-4.1865,-4.0803,-3.8937,-3.8037,-3.7662,-3.6403,-3.6016,-3.6016,-3.6016,-3.6016,-3.6016,-3.6016,-3.6016,-3.6016,-3.5957,-3.5937,-3.5937,-3.5937,-3.5625,-3.5312,-3.5371,-3.4726,-3.3965,-3.3594,-3.3184,-3.2773,-3.2402,-3.1601,-3.084,0.0,0.0,0.0,0.0,0.0,0.0,0.0,0.0,0.0,0.0,-2.6641,0.0,-2.6387,-2.5254,-2.4492,0.0,0.0,0.0,0.0,0.0,-2.8574,-2.9607,-3.1504,-3.2676,-3.2949,-3.4004,-3.4219,-3.3594,-3.3476,-3.3652,-3.4082,-3.4082,-3.4551,-3.5457,-3.6876,-3.7856,-3.8574,-3.8948,-3.9301,-3.973,-4.0145,-4.0489,-4.115,-4.3141,-4.3161,-4.2118,-3.9441,-4.0812,-4.1798,-4.1268,-4.4251,-4.7545,-4.9998,-5.1994,-5.3774,-5.5337,-5.7935,-5.981,-6.0364,-6.0364,-6.0484,-6.0917,-6.0003,0.0,0.0,0.0,0.0,-5.488,-5.3029,-5.1393,-5.0006,-4.5342,-4.239,0.0,0.0,0.0,0.0,0.0,-3.5026,-3.4902,-3.3882,-3.4113,-3.5499,-3.9215,-4.1028,-4.147,-4.2532,-4.2159,-4.0847,-3.9361,-3.7787,-3.6355,-3.6084,-3.6016,-3.6016,-3.6016,-3.6016,-3.6016,-3.6016,-3.6016,-3.5957,-3.5605,-3.5508,-3.5508,-3.5508,-3.5176,-3.4922,-3.5293,-3.4726,-3.4062,-3.3984,-3.3633,-3.3281,-3.3223,-3.2246,-3.1387,-3.1309,0.0,0.0,0.0,0.0,0.0,0.0,0.0,0.0,0.0,0.0,-2.6387,0.0,-2.5527,-2.5008,-2.5008,0.0,0.0,0.0,0.0,-2.7949,0.0,-3.0644,0.0,0.0,0.0,-3.3926,-3.4473,-3.375,-3.3652,-3.4082,-3.4082,-3.4551,-3.5457,-3.6876,-3.7095,-3.6785,-3.9833,-4.0912,-4.0572,-4.0655,-4.0965,-4.1296,-4.0841,-4.1488,-4.2679,-4.0836,-4.211,-4.3289,-4.3601,-4.6944,-5.0407,-5.274,-5.5361,-5.6876,-5.6299,-5.7333,-5.8319,-5.8848,-5.9666,-6.0388,-6.0917,-6.0243,-5.945,-5.8656,-5.7357,-5.6275,-5.5433,-5.3654,0.0,-5.1129,-4.6827,-4.4167,-4.3244,0.0,0.0,0.0,0.0,-3.639,-3.5728,-3.5707,-3.6415,-3.7654,-4.0579,0.0,-4.2747,-4.3729,-4.3922,-4.3242,-4.0867,-3.9238,-3.7975,-3.6539,-3.6016,-3.6016,-3.6016,-3.6016,-3.6016,-3.6016,-3.6016,-3.5937,-3.5527,-3.5547,-3.5664,-3.5449,-3.5059,-3.4746,-3.498,-3.4375,-3.373,-3.373,-3.3574,-3.3418,-3.3418,-3.2754,-3.1973,-3.1309,-3.0137,0.0,0.0,0.0,0.0,0.0,0.0,-2.7832,0.0,0.0,0.0,0.0,0.0,-2.5664,-2.543,-2.541,0.0,0.0,0.0,-2.7832,0.0,0.0,0.0,-3.3066,0.0,0.0,-3.4375,-3.3965,-3.4121,-3.4746,-3.4746,-3.5117,-3.579,-3.7202,-3.7791,-3.8009,-4.0249,-4.0547,-3.9694,-3.9694,-3.9883,-4.0251,-4.0007,-4.0591,-4.1615,-4.2735,-4.401,-4.5317,-4.6559,-5.0191,-5.3365,-5.4592,-5.7502,-5.8945,-5.7285,-5.7069,-5.7237,-5.7646,-5.9185,-6.0339,-6.0748,-6.0315,-5.9594,-5.8656,-5.7502,-5.6419,-5.5433,-5.3894,-5.2572,-5.1513,-4.7954,-4.5443,0.0,0.0,0.0,0.0,0.0,0.0,-3.654,-3.8069,-3.9064,0.0,0.0,-4.3203,-4.3896,-4.4475,-4.4721,-4.4513,-4.1639,-4.0014,-3.9035,-3.6809,-3.6016,-3.6016,-3.6016,-3.6016,-3.6016,-3.6016,-3.6016,-3.5937,-3.5527,-3.5625,-3.582,-3.5488,-3.5059,-3.4707,-3.4707,-3.4121,-3.3535,-3.3437,-3.3418,-3.3418,-3.3418,-3.3008,-3.2324,-3.123,-3.0293,0.0,0.0,0.0,0.0,0.0,0.0,0.0,0.0,0.0,0.0,-2.6914,0.0,-2.6445,-2.5869,0.0,0.0,-2.583,0.0,0.0,0.0,0.0,-3.2031,-3.2305,0.0,-3.4492,-3.4355,-3.4258,-3.4629,-3.5391,-3.5391,-3.5664,-3.6221,-3.7334,-3.8296,-3.9245,-3.9993,-3.9622,-3.8594,-3.8789,-3.9062,-3.9394,-3.9863,-4.0351,-4.084,-4.5261,-4.6439,-4.769,-4.9229,-5.2596,-5.5145,-5.5289,-5.8055,-6.0027,-5.9834,-5.981,-5.9834,-5.9883,-6.0051,-6.0195,-6.0243,-5.9762,-5.9209,-5.8632,-5.7165,-5.6035,-5.5433,-5.3894,-5.2572,-5.1513,-4.8315,-4.611,0.0,0.0,0.0,0.0,0.0,0.0,0.0,0.0,0.0,0.0,-4.2006,-4.3372,-4.4204,-4.3531,-4.2532,-4.1309,-3.9668,-3.7983,-3.6355,-3.6084,-3.6016,-3.6016,-3.6016,-3.6016,-3.6016,-3.6016,-3.6016,-3.5937,-3.5527,-3.543,-3.5449,-3.541,-3.5059,-3.4707,-3.4707,-3.4355,-3.3906,-3.3516,-3.3418,-3.3418,-3.3418,-3.2793,-3.207,-3.1562,-3.0742,-3.0137,0.0,0.0,0.0,0.0,0.0,-2.8574,-2.7806,0.0,0.0,-2.6562,-2.7109,-2.7207,0.0,-2.668,0.0,0.0,0.0,0.0,-2.7767,-2.9863,-3.1562,-3.2734,-3.3672,-3.4512,-3.5273,-3.4844,-3.4902,-3.5391,-3.5391,-3.584,-3.6601,-3.674,-3.728,-3.8105,-3.8596,-3.872,-3.8652,-3.9453,-3.9805,-3.9883,-4.0312,-4.0976,-4.1641,-4.805,-4.8628,-4.9614,-5.185,-5.3726,-5.5361,-5.6636,-5.8199,-5.9353,-5.9666,-5.969,-5.9594,-5.9257,-5.9522,-5.969,-5.969,-5.9498,-5.9161,-5.8632,-5.7117,-5.5987,-5.5409,-5.4183,-5.3173,-5.2451,-4.995,-4.7954,0.0,0.0,0.0,0.0,0.0,0.0,0.0,0.0,-4.155,-4.2134,-4.2915,-4.3842,-4.4702,-4.3537,-4.2769,-4.203,-3.9781,-3.8253,-3.7126,-3.6287,-3.6016,-3.6016,-3.6016,-3.6016,-3.6016,-3.6016,-3.6016,-3.5937,-3.5527,-3.5566,-3.5723,-3.5469,-3.5254,-3.5117,-3.5117,-3.4785,-3.4336,-3.3906,-3.3809,-3.373,-3.3476,-3.2949,-3.25,-3.2305,-3.1582,-3.0996,0.0,0.0,0.0,0.0,0.0,0.0,-2.7383,0.0,-2.7226,-2.6465,-2.6934,-2.7246,0.0,0.0,0.0,0.0,0.0,0.0,-2.8398,0.0,-3.1387,-3.2402,-3.3516,-3.4375,-3.498,-3.5078,-3.5351,-3.5781,-3.6035,-3.6484,-3.707,-3.7598,-3.8008,-3.8359,-3.9082,-3.9375,-3.9394,-3.9766,-4.0059,-4.0293,-4.0469,-4.1055,-4.1777,-5.0311,-5.0696,-5.1586,-5.4087,-5.5097,-5.6059,-5.7574,-5.8271,-5.868,-5.8897,-5.8921,-5.8897,-5.8824,-5.9017,-5.9161,-5.9161,-5.9161,-5.8872,-5.8175,-5.6949,-5.5914,-5.5193,-5.4303,0.0,-5.3077,-5.1297,-4.9589,-4.7954,-4.6006,0.0,0.0,0.0,0.0,0.0,-4.2197,-4.247,-4.3746,-4.3746,-4.4299,-4.4927,-4.2996,-4.2308,-4.2161,-3.9164,-3.7793,-3.7327,-3.6355,-3.6016,-3.6016,-3.6016,-3.6016,-3.6016,-3.6016,-3.6016,-3.5957,-3.5664,-3.5781,-3.5957,-3.5664,-3.5586,-3.5508,-3.5254,-3.4941,-3.4551,-3.4004,-3.3887,-3.3789,-3.3496,-3.3086,-3.2793,-3.2793,-3.209,-3.1523,-3.1523,0.0,0.0,0.0,-2.9043,0.0,-2.7324,-2.7305,-2.7168,-2.6621,-2.707,-2.7461,0.0,0.0,0.0,0.0,0.0,0.0,0.0,0.0,0.0,-3.2344,-3.3613,-3.4473,-3.4902,-3.5488,-3.5918,-3.623,-3.6914,-3.7383,-3.7715,-3.8594,-3.8965,-3.9023,-3.9766,-4.0019,-3.9922,-4.0176,-4.0371,-4.0547,-4.0801,-4.1367,-4.1992,-5.1826,-5.2668,-5.3702,-5.5842,-5.7069,-5.779,-5.7814,-5.8271,-5.8416,-5.7886,-5.7838,-5.8223,-5.9257,-5.8921,-5.8608,-5.8608,-5.8608,-5.8175,-5.7117,-5.654,-5.5746,0.0,0.0,-5.3582,-5.3077,-5.2018,-5.0672,-4.906,0.0,0.0,-4.4261,0.0,-4.3794,-4.4261,-4.4261,-4.4261,-4.4285,-4.4285,-4.4573,-4.484,-4.1579,-4.0563,-4.0671,-3.7307,-3.6016,-3.6016,-3.6016,-3.6016,-3.6016,-3.6016,-3.6016,-3.6016,-3.6016,-3.6016,-3.6016,-3.6016,-3.6016,-3.6016,-3.6016,-3.6016,-3.5801,-3.4922,-3.4707,-3.4473,-3.3633,-3.3437,-3.3437,-3.3418,-3.3086,-3.2793,-3.2793,-3.209,-3.1523,-3.1523,0.0,0.0,0.0,0.0,0.0,-2.7865,-2.8027,-2.7949,-2.709,-2.7773,0.0,0.0,0.0,0.0,0.0,0.0,0.0,-2.8906,-3.0195,0.0,-3.2773,-3.4062,-3.4922,-3.5391,-3.625,-3.666,-3.6699,-3.7969,-3.8555,-3.8613,-3.9492,-3.9883,-3.9922,-4.0332,-4.0273,-3.998,-4.082,-4.0898,-4.0625,-4.1484,-4.2051,-4.2422,-5.4063,-5.4544,-5.4977,-5.6059,-5.6804,-5.7141,-5.6804,-5.6876,-5.7045,-5.7237,-5.6949,-5.6997,-5.7694,-5.7935,-5.7911,0.0,-5.7526,-5.7237,0.0,-5.5626,-5.4977,-5.4616,-5.4111,-5.375,-5.3582,-5.2908,-5.1778,-5.0191,0.0,0.0,0.0,-4.5237,-4.4876,-4.4309,-4.4669,-4.5029,-4.5429,-4.5429,-4.5525,-4.5366,-4.2073,-4.0651,-4.0149,-3.7119,-3.6016,-3.6016,-3.6016,-3.6016,-3.6016,-3.6016,-3.6016,-3.6016,-3.6016,-3.6016,-3.6016,-3.6016,-3.6016,-3.6016,-3.6016,-3.6016,-3.5957,-3.5664,-3.5391,-3.5019,-3.4434,-3.3848,-3.3418,-3.3418,-3.332,-3.3223,-3.3223,-3.2773,-3.2305,-3.2012,-3.1367,0.0,0.0,0.0,0.0,-2.7826,-2.8047,-2.7851,-2.6699,-2.7617,0.0,0.0,0.0,0.0,0.0,0.0,0.0,0.0,-3.1074,0.0,-3.3203,-3.4512,-3.5391,-3.582,-3.6406,-3.6973,-3.7539,-3.8262,-3.873,-3.9062,-3.9941,-4.0332,-4.0351,-4.0781,-4.0879,-4.0801,-4.1074,-4.1094,-4.1035,-4.1601,-4.2229,-4.2881,-5.4768,-5.4952,-5.5217,-5.5554,-5.6059,-5.6299,-5.5963,-5.5914,-5.6035,-5.6371,-5.6131,-5.6059,-5.6371,-5.6708,0.0,-5.6732,-5.654,-5.6179,-5.565,-5.4977,-5.452,-5.4327,-5.3991,-5.3822,-5.3822,-5.351,0.0,-5.1586,-5.0239,-4.8411,-4.6223,-4.6006,-4.5669,-4.5261,-4.5573,-4.591,-4.6223,-4.6223,-4.6223,-4.5892,-4.2365,-4.0913,-4.0431,-3.7267,-3.6016,-3.6016,-3.6016,-3.6016,-3.6016,-3.6016,-3.6016,-3.6016,-3.6016,-3.6016,-3.6016,-3.6016,-3.6016,-3.6016,-3.6016,-3.6016,-3.5976,-3.582,-3.5449,-3.4961,-3.4355,-3.3809,-3.3418,-3.3418,-3.3418,-3.3418,-3.3418,-3.2949,-3.248,-3.2268,-3.1445,-3.0586,-2.9687,0.0,0.0,0.0,0.0,0.0,0.0,-2.8301,-2.8476,0.0,0.0,0.0,0.0,0.0,0.0,-3.0664,-3.1797,0.0,-3.3887,-3.4902,-3.5605,-3.6035,-3.6777,-3.7578,-3.8418,-3.9023,-3.9531,-3.998,-4.0527,-4.0859,-4.1016,-4.1133,-4.1172,-4.1172,-4.1172,-4.1172,-4.123,-4.1641,-4.2388,-4.3141,-5.4296,-5.4406,-5.4744,-5.4616,-5.5049,-5.5385,-5.5337,-5.5337,-5.5337,-5.5337,-5.5337,-5.5337,-5.5337,-5.5337,-5.5554,-5.6083,0.0,0.0,-5.4592,-5.4544,-5.4327,-5.3846,-5.3822,-5.3798,-5.3774,-5.3774,-5.351,-5.2956,-5.0455,-4.8459,-4.692,-4.6391,-4.6391,-4.6824,-4.6776,-4.6776,-4.6776,-4.6776,-4.6752,-4.6347,-4.2655,-4.1418,-4.1346,-3.7584,-3.6084,-3.6016,-3.6016,-3.6035,-3.6055,-3.6035,-3.6035,-3.6055,-3.6035,-3.6016,-3.6016,-3.6016,-3.6016,-3.6016,-3.6016,-3.6016,-3.5918,-3.5488,-3.5039,-3.4473,-3.3613,-3.3437,-3.3457,-3.3437,-3.3418,-3.3418,-3.3418,-3.2754,-3.2207,-3.2168,-3.1484,-3.0625,-2.9763,0.0,0.0,0.0,0.0,0.0,-2.9492,-2.9665,-2.9473,0.0,0.0,0.0,0.0,0.0,-3.0781,-3.1543,-3.2422,-3.3476,-3.4726,-3.5234,-3.5703,-3.6172,-3.7383,-3.8398,-3.9238,-4.0117,-4.0742,-4.1133,-4.1172,-4.1406,-4.1758,-4.1348,-4.1191,-4.1211,-4.1191,-4.1191,-4.1269,-4.1758,-4.2427,-4.326,0.0,0.0,-5.6003,-5.482,-5.5049,-5.5265,-5.4856,-5.4784,-5.4784,-5.4784,-5.4784,-5.4784,-5.4784,-5.4784,-5.4856,-5.4977,-5.488,-5.4568,-5.4039,-5.4015,-5.3942,-5.3822,-5.3822,-5.363,-5.3245,-5.3245,-5.2788,-5.1874,-5.1225,-5.0311,-4.9109,-4.8579,-4.8171,-4.7906,-4.7497,-4.7305,-4.7305,-4.7305,-4.7088,-4.6525,-4.4117,-4.2368,-4.0956,-3.8516,-3.6944,-3.6016,-3.6016,-3.623,-3.6465,-3.6133,-3.623,-3.6465,-3.6133,-3.6016,-3.6016,-3.6016,-3.6016,-3.6016,-3.6016,-3.6016,-3.5918,-3.5488,-3.5039,-3.4473,-3.3613,-3.3691,-3.3828,-3.3496,-3.3418,-3.3418,-3.3418,-3.2988,-3.2539,-3.2226,-3.1719,-3.0937,-2.9746,-2.9844,0.0,0.0,-2.9805,-3.0078,-2.916,-2.998,-3.0254,0.0,0.0,0.0,-3.0898,-3.2012,-3.2461,-3.2031,-3.3164,-3.4238,-3.5215,-3.5976,-3.6738,-3.748,-3.8125,-3.8691,-3.9238,-4.0117,-4.0586,-4.0703,-4.1035,-4.1406,-4.1758,-4.1348,-4.1367,-4.1621,-4.1308,-4.1367,-4.1778,-4.2526,-4.334,-4.4181,-5.6788,-5.598,-5.5185,-5.4382,-5.4496,-5.4568,-5.4303,-5.4255,-5.4255,-5.4255,-5.4255,-5.4255,-5.4255,-5.4255,-5.4255,-5.4255,-5.4255,-5.4135,-5.3846,-5.3822,-5.3822,-5.3822,-5.3822,-5.3702,-5.3413,-5.3197,-5.2668,-5.185,-5.185,-5.1297,-5.0239,-4.9686,-4.9036,-4.8267,-4.8002,-4.7738,-4.7497,-4.7497,-4.7329,-4.6885,-4.4933,-4.3059,-4.113,-3.9189,-3.7564,-3.6309,-3.6309,-3.6601,-3.6894,-3.6465,-3.6484,-3.6601,-3.6152,-3.6016,-3.6016,-3.6016,-3.6016,-3.6016,-3.6016,-3.6016,-3.5918,-3.5488,-3.5195,-3.4844,-3.416,-3.4043,-3.4004,-3.3769,-3.3555,-3.3418,-3.3418,-3.293,-3.2441,-3.2268,-3.1465,-3.0664,-2.9961,-2.9883,0.0,-2.9824,-3.0625,-3.0976,-3.0449,-3.123,-3.1406,-3.0527,-3.1269,0.0,-3.1523,-3.351,-3.4383,-3.3719,-3.4566,-3.5507,-3.665,-3.7005,-3.7566,-3.8164,-3.8865,-3.9377,-3.9755,-4.0486,-4.1035,-4.1387,-4.123,-4.168,-4.2368,-4.1955,-4.2052,-4.2427,-4.2387,-4.2526,-4.2744,-4.3221,-4.3979,-4.4704,-5.6747,-5.5189,-5.4098,-5.3822,-5.3822,-5.3822,-5.3822,-5.3822,-5.3822,-5.3822,-5.3822,-5.3822,-5.3822,-5.3822,-5.3822,-5.3822,-5.3822,-5.3822,-5.3822,-5.3822,-5.3822,-5.3822,-5.3822,-5.3774,-5.3702,-5.3197,-5.2692,-5.2163,-5.2235,-5.1778,-5.0816,-5.0167,-4.9349,-4.8411,-4.8339,-4.805,-4.7617,-4.7714,-4.769,-4.7503,-4.5736,-4.3913,-4.2014,-4.0057,-3.8419,-3.7104,-3.6897,-3.7031,-3.7324,-3.6914,-3.6758,-3.6699,-3.625,-3.6074,-3.6016,-3.6016,-3.6016,-3.6016,-3.6016,-3.5976,-3.584,-3.5488,-3.5391,-3.5273,-3.4805,-3.4434,-3.4141,-3.4082,-3.373,-3.3481,-3.367,-3.3043,-3.2471,-3.255,-3.1446,-3.0522,-3.035,0.0,-3.0266,-3.0859,-3.1486,-3.1938,-3.219,-3.2559,-3.25,-3.1758,-3.2383,-3.2539,-3.1934,-3.4736,-3.6352,-3.6206,-3.6517,-3.7227,-3.8486,-3.834,-3.8407,-3.8692,-3.9506,-4.0068,-4.0508,-4.1091,-4.1758,-4.2383,-4.1758,-4.2112,-4.3141,-4.2784,-4.2959,-4.3354,-4.3676,-4.3837,-4.3898,-4.3977,-4.4479,-4.5086,-5.8295,-5.6819,-5.5336,-5.4023,-5.3822,-5.3822,-5.3822,-5.3822,-5.3822,-5.3822,-5.3822,-5.3822,-5.3822,-5.3822,-5.3822,-5.3822,-5.3822,-5.3822,-5.3822,-5.3822,-5.3822,-5.3822,-5.3822,-5.3606,-5.3197,-5.2668,-5.2139,-5.161,-5.2067,-5.197,-5.1345,-5.0335,-4.9541,-4.894,-4.8483,-4.8243,-4.8195,-4.8652,-4.8579,-4.8122,-4.737,-4.5892,-4.3936,-4.1946,-4.0286,-3.8869,-3.7678,-3.7461,-3.7773,-3.7344,-3.7207,-3.7129,-3.6699,-3.6309,-3.6016,-3.6016,-3.6016,-3.6016,-3.6016,-3.5762,-3.5469,-3.541,-3.5391,-3.5273,-3.4805,-3.4648,-3.4492,-3.4141,-3.373,-3.3733,-3.4881,-3.4268,-3.3796,-3.4226,-3.3159,-3.1954,-3.0955,0.0,-3.1913,-3.0995,-3.2433,-3.3194,-3.227,-3.2559,-3.2734,-3.2617,-3.2715,-3.3047,-3.3633,-3.6017,-3.8057,-3.954,-3.965,-3.9854,-4.0312,-3.9923,-3.968,-3.9542,-4.0064,-4.0524,-4.1039,-4.1834,-4.227,-4.2422,-4.2684,-4.3081,-4.3577,-4.3539,-4.3818,-4.42,-4.3818,-4.3919,-4.4341,-4.4722,-4.5107,-4.5677,-5.8719,-5.7179,-5.5606,-5.4023,-5.3822,-5.3822,-5.3822,-5.3822,-5.3822,-5.3822,-5.3822,-5.3822,-5.3822,-5.3822,-5.3822,-5.3822,-5.3822,-5.3822,-5.3822,-5.3822,-5.3822,-5.3822,-5.3822,-5.3461,-5.2668,-5.2956,-5.2716,-5.1922,-5.2451,-5.2427,-5.1898,-5.1393,-5.0576,-4.9493,-4.9253,-4.8988,-4.8724,-4.8676,-4.8507,-4.8267,-4.8026,-4.6603,-4.4497,-4.3578,-4.1869,-3.9896,-4.0035,-3.9293,-3.8347,-3.8748,-3.8326,-3.7559,-3.7148,-3.6875,-3.6699,-3.6699,-3.6387,-3.6016,-3.6016,-3.5879,-3.5723,-3.5723,-3.5723,-3.5684,-3.5449,-3.5234,-3.5218,-3.5831,-3.4799,-3.4386,-3.6473,-3.547,-3.4385,-3.4652,-3.4407,0.0,0.0,-3.3492,-3.3859,-3.307,-3.4001,-3.4512,-3.3983,-3.3859,-3.4029,-3.4463,-3.429,-3.4375,-3.4766,-3.6948,-3.8691,-3.9802,-4.1596,-4.1584,-3.9607,-4.0584,-4.0742,-4.0076,-4.1002,-4.2174,-4.3489,-4.3285,-4.3775,-4.4775,-4.3878,-4.3799,-4.4422,-4.436,-4.4661,-4.5105,-4.5125,-4.5188,-4.5452,-4.5614,-4.5838,-4.6023,-5.8719,-5.7179,-5.5606,-5.4023,-5.3822,-5.3822,-5.3822,-5.3822,-5.3822,-5.3822,-5.3822,-5.3822,-5.3822,-5.3822,-5.3822,-5.3822,-5.3822,-5.3822,-5.3822,-5.3822,-5.3822,-5.3822,-5.3822,-5.3341,-5.2307,-5.3293,-5.3317,-5.2283,-5.2932,-5.298,-5.2451,-5.2331,-5.1562,-5.0239,-4.9974,-4.9638,-4.9229,-4.87,-4.8411,-4.8291,-4.8291,-4.7088,-4.5239,-4.4905,-4.3374,-4.147,-4.2279,-4.1074,-3.9293,-4.0477,-3.9798,-3.8422,-3.8507,-3.8397,-3.8386,-3.8386,-3.7628,-3.67,-3.6377,-3.625,-3.6191,-3.6289,-3.6309,-3.6358,-3.6581,-3.6293,-3.6423,-3.7707,-3.6527,-3.5951,-3.8306,-3.7093,-3.5767,-3.5933,0.0,0.0,0.0,-3.5562,-3.5939,-3.5399,-3.6027,-3.6427,-3.6225,-3.5564,-3.544,-3.6162,-3.579,-3.5586,-3.5684,-3.7814,-3.9288,-3.9813,-4.2992,-4.3139,-3.9979,-4.2032,-4.2493,-4.1436,-4.2907,-4.4379,-4.5782,-4.5391,-4.5844,-4.6954,-4.5474,-4.4921,-4.5188,-4.5248,-4.5489,-4.5871,-4.6223,-4.6266,-4.6266,-4.6266,-4.6266,-4.6266,-5.8719,-5.7179,-5.5606,-5.4023,-5.3822,-5.3822,-5.3822,-5.3822,-5.3822,-5.3822,-5.3822,-5.3822,-5.3822,-5.3822,-5.3822,-5.3822,-5.3822,-5.3822,-5.3822,-5.3822,-5.3822,-5.3822,-5.3822,-5.3341,-5.2307,-5.3293,-5.3317,-5.2283,-5.3269,-5.351,-5.3004,-5.2499,-5.1946,-5.1321,-5.0311,-4.9924,-4.9851,-4.9253,-4.8748,-4.8291,-4.8291,-4.7887,-4.716,-4.5773,-4.5073,-4.4732,-4.3473,-4.1961,-4.0871,-4.229,-4.1571,-4.0277,-4.1602,-4.1779,-4.1499,-4.1499,-4.0418,-3.8938,-3.7608,-3.6914,-3.6719,-3.7109,-3.7207,-3.744,-3.8289,-3.8176,-3.8187,-3.9152,-3.8908,-3.8997,-4.0357,-3.9656,-3.9012,-3.9551,0.0,0.0,-3.6596,-3.7578,-3.8109,-3.738,-3.8709,-3.9363,-3.87,-3.7424,-3.6701,-3.6724,-3.625,-3.6152,-3.6562,-3.8815,-4.0311,-4.0696,-4.3658,-4.4845,-4.4013,-4.5505,-4.563,-4.4439,-4.6462,-4.7195,-4.6733,-4.8596,-4.8719,-4.7464,-4.7783,-4.7027,-4.5657,-4.6063,-4.6204,-4.6306,-4.6246,-4.6266,-4.6266,-4.6266,-4.6266,-4.6266,-6.007,-5.9279,-5.8082,-5.5679,-5.5263,-5.4893,-5.3972,-5.3822,-5.3822,-5.3822,-5.3822,-5.3822,-5.3822,-5.3822,-5.3822,-5.3822,-5.3822,-5.3822,-5.3822,-5.3822,-5.3822,-5.3822,-5.3822,-5.3485,-5.2788,-5.3461,-5.3485,-5.2764,-5.3485,-5.3558,-5.3077,-5.3173,-5.2788,-5.1946,-5.1201,-5.0864,-5.0816,-4.9926,-4.9253,-4.8772,-4.8772,-4.8267,-4.7431,-4.6874,-4.6113,-4.5346,-4.5685,-4.4207,-4.2446,-4.4289,-4.358,-4.2161,-4.3376,-4.3456,-4.3127,-4.3434,-4.2953,-4.2241,-4.1883,-4.0386,-3.9257,-4.0647,-4.1053,-4.1129,-4.1443,-4.1456,-4.1692,-4.2905,-4.1837,-4.1432,-4.3592,-4.2436,-4.1138,-4.0977,0.0,-4.088,-3.9462,-4.0638,-4.1218,-4.0166,-4.0891,-4.1404,-4.1085,-4.043,-4.0323,-4.1107,-4.1001,-4.1032,-4.1221,-4.2308,-4.3021,-4.3121,-4.5197,-4.5152,-4.2707,-4.5929,-4.7059,-4.5992,-4.7604,-4.9094,-5.026,-4.9329,-4.9172,-4.9719,-4.789,-4.6649,-4.6185,-4.7352,-4.781,-4.797,-4.8978,-4.8741,-4.781,-4.781,-4.7192,-4.6266,-6.092,-6.062,-5.9793,-5.7251,-5.641,-5.5753,-5.467,-5.4098,-5.3822,-5.3822,-5.3822,-5.3822,-5.3822,-5.3822,-5.3822,-5.3822,-5.3822,-5.3822,-5.3822,-5.3822,-5.3894,-5.4063,-5.3918,-5.3654,-5.3317,-5.3485,-5.3413,-5.3077,-5.3413,-5.3485,-5.3317,-5.3654,-5.3437,-5.274,-5.2043,-5.1658,-5.1417,-5.0335,-4.9565,-4.9084,-4.9084,-4.8555,-4.7738,-4.7738,-4.7112,-4.6347,-4.7404,-4.6236,-4.4514,-4.6427,-4.5805,-4.4442,-4.5605,-4.5723,-4.545,-4.5363,-4.527,-4.5248,-4.5644,-4.4442,-4.3262,-4.385,-4.3679,-4.3643,-4.4286,-4.4266,-4.4547,-4.5775,-4.4794,-4.4245,-4.609,-4.4823,-4.3449,-4.3238,-4.3645,-4.3631,-4.2529,-4.3597,-4.418,-4.3278,-4.3682,-4.4009,-4.4009,-4.3369,-4.3354,-4.4222,-4.4224,-4.425,-4.4425,-4.4661,-4.4836,-4.4836,-4.6521,-4.6284,-4.3996,-4.7291,-4.8722,-4.8133,-4.9583,-5.1082,-5.2648,-5.1232,-5.1085,-5.1907,-4.9584,-4.8345,-4.797,-4.9135,-4.9607,-4.9663,-5.083,-5.0598,-4.9607,-4.9607,-4.8504,-4.7111,-6.092,-6.062,-6.0139,-5.8648,-5.7179,-5.6118,-5.6118,-5.4819,-5.3822,-5.3822,-5.3822,-5.3822,-5.3822,-5.3822,-5.3822,-5.3822,-5.3822,-5.3822,-5.3822,-5.3822,-5.4063,-5.4592,-5.4111,-5.3822,-5.3822,-5.3341,-5.3077,-5.3077,-5.3077,-5.3317,-5.3822,-5.3822,-5.3822,-5.3774,-5.274,-5.1994,-5.1417,-5.0335,-4.9565,-4.9084,-4.9084,-4.8772,-4.8291,-4.8291,-4.8291,-4.8291,-4.8291,-4.7716,-4.7144,-4.8579,-4.8141,-4.7214,-4.8648,-4.9084,-4.881,-4.7353,-4.7302,-4.7832,-4.8315,-4.8799,-4.8571,-4.6043,-4.4639,-4.4401,-4.6468,-4.6565,-4.6402,-4.7351,-4.7521,-4.7521,-4.7521,-4.6655,-4.6126,-4.6631,-4.5838,-4.5293,-4.5862,-4.6391,-4.6728,-4.6728,-4.7185,-4.7521,-4.7521,-4.6248,-4.5414,-4.5414,-4.4917,-4.4836,-4.534,-4.5384,-4.5384,-4.5435,-4.7382,-4.8684,-4.9213,-5.0222,-5.0912,-5.121,-5.2856,-5.3442,-5.3247,-5.4868,-5.4918,-5.3726,-5.3651,-5.2745,-5.1293,-5.1293,-5.1293,-5.1293,-5.1293,-5.1293,-5.1293,-5.1293,-5.0287,-4.882,-6.2287,-6.222,-6.1694,-6.0208,-5.9558,-5.8507,-5.641,-5.5679,-5.5041,-5.3972,-5.3822,-5.3822,-5.3822,-5.3822,-5.3822,-5.3822,-5.3822,-5.3822,-5.3822,-5.3822,-5.4063,-5.4592,-5.4447,-5.4207,-5.3822,-5.3678,-5.3413,-5.3077,-5.3077,-5.3317,-5.3822,-5.3822,-5.363,-5.3269,-5.2572,-5.1994,-5.1441,-5.0744,-5.0143,-4.9638,-4.9638,-4.9325,-4.8844,-4.8844,-4.8844,-4.8844,-4.8844,-4.8666,-4.8558,-4.9355,-4.9336,-4.9129,-4.9955,-5.0479,-5.0625,-4.9818,-4.9676,-4.9843,-4.9985,-4.9866,-4.9795,-5.0143,-4.9975,-4.9838,-5.008,-5.027,-5.0485,-5.0688,-5.0392,-5.0125,-5.0149,-4.9276,-4.8409,-4.7925,-4.7858,-4.769,-4.7112,-4.781,-4.8243,-4.7858,-4.8291,-4.8603,-4.8603,-4.8574,-4.8582,-4.8582,-4.8779,-4.8943,-4.9059,-4.9059,-4.9295,-4.9646,-5.0268,-5.1006,-5.1959,-5.2207,-5.2449,-5.2533,-5.3339,-5.3878,-5.4023,-5.3624,-5.3473,-5.3322,-5.2365,-5.1754,-5.137,-5.2518,-5.2973,-5.3124,-5.4274,-5.405,-5.2973,-5.2973,-5.1984,-5.0365,-6.2942,-6.2745,-6.2368,-6.1666,-6.0797,-5.9732,-5.8127,-5.6891,-5.5753,-5.4819,-5.4173,-5.3822,-5.3822,-5.3822,-5.3822,-5.3822,-5.3822,-5.3822,-5.3822,-5.3822,-5.4063,-5.4592,-5.4616,-5.4447,-5.4135,-5.3534,-5.3173,-5.3077,-5.2644,-5.2716,-5.3221,-5.3221,-5.3053,-5.274,-5.2427,-5.1994,-5.1465,-5.1153,-5.0696,-5.0191,-5.0191,-4.9878,-4.9397,-4.9397,-4.9397,-4.9397,-4.9397,-4.9662,-5.0046,-5.0167,-5.0335,-5.0576,-5.0912,-5.1225,-5.1393,-5.0864,-5.1008,-5.1273,-5.1081,-5.1225,-5.1562,-5.2139,-5.197,-5.1682,-5.1778,-5.2043,-5.226,-5.2236,-5.1896,-5.1654,-5.1679,-5.0976,-5.0301,-4.9948,-4.995,-4.9878,-4.9445,-4.9758,-4.9926,-4.9589,-4.9662,-4.971,-4.971,-5.0022,-5.0191,-5.0191,-5.0503,-5.0792,-5.1008,-5.1008,-5.1345,-5.2091,-5.2115,-5.2524,-5.3365,-5.3365,-5.3365,-5.3365,-5.3678,-5.4047,-5.4397,-5.3798,-5.3798,-5.4098,-5.3525,-5.3223,-5.3299,-5.4517,-5.4988,-5.5162,-5.6401,-5.6253,-5.5381,-5.5381,-5.4179,-5.2487,-6.283,-6.2352,-6.2099,-6.2661,-6.1142,-6.0077,-6.0457,-5.8198,-5.6482,-5.6337,-5.5115,-5.4248,-5.4248,-5.4098,-5.4047,-5.4047,-5.3897,-5.3822,-5.3822,-5.3822,-5.4039,-5.452,-5.4544,-5.4544,-5.4544,-5.3149,-5.2644,-5.3125,-5.2091,-5.1826,-5.2355,-5.2307,-5.2259,-5.2211,-5.2211,-5.1922,-5.1417,-5.1417,-5.1153,-5.0696,-5.0696,-5.0407,-4.995,-4.995,-4.9974,-5.0022,-5.0022,-5.0672,-5.1489,-5.1056,-5.1225,-5.1634,-5.1634,-5.1634,-5.1537,-5.1008,-5.1562,-5.2235,-5.1754,-5.2692,-5.3582,-5.2596,-5.1658,-5.1201,-5.2091,-5.2331,-5.2355,-5.2428,-5.2428,-5.2428,-5.2428,-5.1995,-5.1778,-5.2211,-5.1922,-5.1778,-5.2211,-5.1898,-5.161,-5.1562,-5.1129,-5.084,-5.084,-5.084,-5.084,-5.084,-5.084,-5.1056,-5.1537,-5.1562,-5.2018,-5.3029,-5.3077,-5.3317,-5.3822,-5.3822,-5.3822,-5.3822,-5.3822,-5.3996,-5.4395,-5.4793,-5.5213,-5.5682,-5.6026,-5.6246,-5.6321,-5.6772,-5.7072,-5.7173,-5.77,-5.7901,-5.7901,-5.7901,-5.6622,-5.4941,-6.2127,-6.1706,-6.134,-6.1481,-6.1501,-6.1132,-6.0049,-5.9774,-5.9209,-5.8011,-5.7584,-5.7369,-5.7369,-5.6312,-5.5606,-5.5606,-5.4472,-5.3822,-5.3822,-5.3822,-5.387,-5.3991,-5.3991,-5.3991,-5.3991,-5.3654,-5.3534,-5.3654,-5.262,-5.2379,-5.2884,-5.2475,-5.2067,-5.1658,-5.1658,-5.1369,-5.0864,-5.0864,-5.0816,-5.0696,-5.0696,-5.0624,-5.0527,-5.0527,-5.0792,-5.1129,-5.1129,-5.1562,-5.2163,-5.2451,-5.2644,-5.2716,-5.2716,-5.2716,-5.262,-5.2091,-5.2403,-5.286,-5.2764,-5.3269,-5.3678,-5.3053,-5.3029,-5.298,-5.2403,-5.2596,-5.2958,-5.3228,-5.3326,-5.3326,-5.3302,-5.2865,-5.2478,-5.2332,-5.2524,-5.262,-5.2331,-5.2548,-5.2572,-5.2163,-5.1994,-5.1946,-5.1946,-5.1946,-5.1946,-5.1946,-5.1946,-5.1994,-5.2115,-5.2115,-5.2403,-5.3053,-5.3077,-5.3317,-5.3822,-5.3822,-5.3822,-5.3822,-5.3822,-5.4039,-5.4575,-5.4954,-5.5424,-5.5915,-5.6227,-5.6576,-5.6949,-5.7024,-5.7298,-5.7725,-5.7851,-5.7901,-5.7901,-5.7901,-5.7575,-5.7022,-6.1565,-6.1059,-6.0835,-6.1425,-6.1565,-6.1501,-6.1276,-6.0865,-6.0345,-5.9558,-5.8859,-5.8366,-5.8366,-5.7035,-5.5826,-5.5041,-5.4248,-5.3822,-5.3822,-5.3822,-5.3822,-5.3822,-5.3822,-5.3942,-5.4183,-5.3942,-5.3702,-5.3461,-5.2668,-5.2427,-5.2692,-5.2403,-5.2139,-5.185,-5.161,-5.1345,-5.1056,-5.0816,-5.0696,-5.0696,-5.0696,-5.0864,-5.1081,-5.1081,-5.1393,-5.1874,-5.1874,-5.2043,-5.2403,-5.3173,-5.3269,-5.3077,-5.3077,-5.3077,-5.3004,-5.274,-5.3029,-5.3437,-5.3437,-5.3991,-5.4399,-5.3606,-5.3822,-5.3918,-5.2884,-5.3053,-5.3488,-5.3637,-5.3711,-5.3711,-5.3711,-5.3469,-5.3226,-5.3004,-5.3245,-5.3341,-5.3053,-5.3053,-5.2956,-5.2692,-5.2427,-5.2283,-5.2283,-5.2283,-5.2283,-5.2283,-5.2524,-5.2668,-5.2668,-5.3125,-5.351,-5.3798,-5.4039,-5.4303,-5.4568,-5.4568,-5.4568,-5.4568,-5.4303,-5.4471,-5.4977,-5.5384,-5.5759,-5.6026,-5.6571,-5.6923,-5.7247,-5.7625,-5.8027,-5.8328,-5.8554,-5.8654,-5.8654,-5.8654,-5.8504,-5.8051,-6.1003,-6.0413,-6.0329,-6.1481,-6.1369,-6.1481,-6.2605,-6.1773,-6.0988,-6.0988,-5.9931,-5.9166,-5.9166,-5.761,-5.5899,-5.4322,-5.3972,-5.3822,-5.3822,-5.3822,-5.3822,-5.3822,-5.3822,-5.4015,-5.4471,-5.4039,-5.3654,-5.3341,-5.262,-5.2283,-5.2283,-5.2187,-5.2139,-5.2139,-5.1778,-5.1634,-5.1586,-5.1153,-5.096,-5.096,-5.096,-5.1225,-5.1634,-5.1634,-5.1946,-5.2427,-5.2427,-5.2475,-5.2668,-5.3534,-5.3534,-5.3221,-5.3317,-5.3341,-5.3341,-5.3437,-5.3822,-5.4231,-5.4231,-5.4952,-5.5433,-5.4471,-5.4568,-5.464,-5.3678,-5.3654,-5.3846,-5.3942,-5.387,-5.3822,-5.3822,-5.3822,-5.3822,-5.3822,-5.3822,-5.3822,-5.3822,-5.3461,-5.3197,-5.3197,-5.2812,-5.2548,-5.2548,-5.262,-5.2668,-5.2668,-5.3173,-5.3461,-5.3461,-5.4279,-5.4736,-5.4736,-5.5169,-5.5385,-5.5385,-5.5385,-5.5433,-5.553,-5.5097,-5.5121,-5.553,-5.5863,-5.6091,-5.6241,-5.6912,-5.7294,-5.7494,-5.8325,-5.878,-5.8905,-5.9332,-5.9483,-5.9483,-5.9382,-5.9081,-5.8579,-6.0188,-5.9767,-5.957,-6.0273,-6.0778,-6.134,-6.2043,-6.2379,-6.2582,-6.2582,-6.242,-6.2287,-6.2287,-5.9793,-5.7466,-5.5899,-5.4546,-5.3822,-5.3822,-5.3822,-5.3822,-5.3822,-5.3822,-5.3846,-5.3918,-5.387,-5.4015,-5.4399,-5.298,-5.2283,-5.2283,-5.1826,-5.161,-5.161,-5.1994,-5.2163,-5.2163,-5.2091,-5.2067,-5.2067,-5.2067,-5.2115,-5.2163,-5.2163,-5.2499,-5.2956,-5.2956,-5.3245,-5.363,-5.3774,-5.3774,-5.3798,-5.4255,-5.4399,-5.4496,-5.4952,-5.5482,-5.5914,-5.5914,-5.6347,-5.666,-5.6059,-5.5963,-5.5842,-5.5217,-5.4423,-5.3942,-5.4399,-5.4135,-5.3822,-5.3822,-5.3822,-5.3822,-5.3822,-5.3822,-5.3822,-5.3822,-5.375,-5.3726,-5.3726,-5.3654,-5.3606,-5.3606,-5.4015,-5.4279,-5.4279,-5.4784,-5.5073,-5.5073,-5.5217,-5.5289,-5.5289,-5.5361,-5.5385,-5.5385,-5.5385,-5.565,-5.6107,-5.6059,-5.6059,-5.6107,-5.6131,-5.645,-5.6859,-5.7238,-5.77,-5.8196,-5.8573,-5.8981,-5.9408,-5.9458,-5.9483,-5.9433,-5.8981,-5.878,-5.8629,-6.0076,-5.9907,-6.0048,-6.1003,-6.1425,-6.1818,-6.2436,-6.2745,-6.2942,-6.2942,-6.2942,-6.2942,-6.2942,-6.092,-5.8648,-5.6337,-5.6239,-5.602,-5.5115,-5.5115,-5.5115,-5.5115,-5.4248,-5.3822,-5.3822,-5.3822,-5.3942,-5.4159,-5.3485,-5.3149,-5.3125,-5.2908,-5.2788,-5.2788,-5.274,-5.2716,-5.2692,-5.2403,-5.2283,-5.2283,-5.2283,-5.2451,-5.2716,-5.2716,-5.3029,-5.3485,-5.3485,-5.363,-5.3822,-5.3822,-5.4015,-5.4303,-5.4544,-5.4808,-5.5145,-5.5698,-5.6035,-5.6299,-5.6588,-5.6852,-5.6973,-5.6732,-5.6684,-5.6612,-5.6371,-5.5722,-5.5145,-5.5073,-5.4856,-5.4688,-5.4688,-5.4447,-5.4255,-5.4255,-5.4015,-5.3822,-5.3822,-5.3822,-5.3918,-5.4231,-5.452,-5.4688,-5.4688,-5.4904,-5.5049,-5.5049,-5.5554,-5.5722,-5.5409,-5.5987,-5.6179,-5.5866,-5.6155,-5.6299,-5.6299,-5.6299,-5.6419,-5.6684,-5.6684,-5.6684,-5.6684,-5.6684,-5.6804,-5.6997,-5.7306,-5.777,-5.834,-5.8571,-5.9031,-5.9483,-5.9483,-5.9483,-5.9433,-5.8905,-5.8529,-5.8177]},{"header":{"parameterUnit":"m.s-1","parameterCategory":1,"la1":30.6,"la2":28.766,"lo1":-90.7593,"lo2":-88.6598,"dy":0.0162,"dx":0.0183,"nx":116,"ny":114,"refTime":"2024-03-20T12:00:00:Z","depth":0,"parameterNumber":3,"parameterNumberName":"V-component_of_WINDS"},"data":[0.0,0.0,0.0,0.0,0.0,0.0,0.0,0.0,0.0,0.0,0.0,0.0,0.0,0.0,0.0,0.0,0.0,0.0,0.0,0.0,0.0,0.0,0.0,0.0,0.0,0.0,0.0,0.0,0.0,0.0,0.0,0.0,0.0,0.0,0.0,0.0,0.0,0.0,0.0,0.0,0.0,0.0,0.0,0.0,0.0,0.0,0.0,0.0,0.0,0.0,0.0,0.0,0.0,0.0,0.0,0.0,0.0,0.0,0.0,0.0,0.0,0.0,0.0,0.0,0.0,0.0,0.0,0.0,0.0,0.0,0.0,0.0,0.0,0.0,0.0,0.0,0.0,0.0,0.0,0.0,0.0,0.0,0.0,0.0,0.0,0.0,0.0,0.0,0.0,0.0,0.0,0.0,0.0,0.0,0.0,0.0,0.0,0.0,0.0,0.0,0.0,0.0,0.0,0.0,0.0,0.0,0.0,0.0,0.0,0.0,0.0,0.0,0.0,0.0,0.0,0.0,0.0,0.0,0.0,0.0,0.0,0.0,0.0,0.0,0.0,0.0,0.0,0.0,0.0,0.0,0.0,0.0,0.0,0.0,0.0,0.0,0.0,0.0,0.0,0.0,0.0,0.0,0.0,0.0,0.0,0.0,0.0,0.0,0.0,0.0,0.0,0.0,0.0,0.0,0.0,0.0,0.0,0.0,0.0,0.0,0.0,0.0,0.0,0.0,0.0,0.0,0.0,0.0,0.0,0.0,0.0,0.0,0.0,0.0,0.0,0.0,0.0,0.0,0.0,0.0,0.0,0.0,0.0,0.0,0.0,0.0,0.0,0.0,0.0,0.0,0.0,0.0,0.0,0.0,0.0,0.0,0.0,0.0,0.0,0.0,0.0,0.0,0.0,0.0,0.0,0.0,0.0,0.0,0.0,0.0,0.0,0.0,0.0,0.0,0.0,0.0,0.0,0.0,0.0,0.0,0.0,0.0,0.0,0.0,0.0,0.0,0.0,0.0,0.0,0.0,0.0,0.0,0.0,0.0,0.0,0.0,0.0,0.0,0.0,0.0,0.0,0.0,0.0,0.0,0.0,0.0,0.0,0.0,0.0,0.0,0.0,0.0,0.0,0.0,0.0,0.0,0.0,0.0,0.0,0.0,0.0,0.0,0.0,0.0,0.0,0.0,0.0,0.0,0.0,0.0,0.0,0.0,0.0,0.0,0.0,0.0,0.0,0.0,0.0,0.0,0.0,0.0,0.0,0.0,0.0,0.0,0.0,0.0,0.0,0.0,0.0,0.0,0.0,0.0,0.0,0.0,0.0,0.0,0.0,0.0,0.0,0.0,0.0,0.0,0.0,0.0,0.0,0.0,0.0,0.0,0.0,0.0,0.0,0.0,0.0,0.0,0.0,0.0,0.0,0.0,0.0,0.0,0.0,0.0,0.0,0.0,0.0,0.0,0.0,0.0,0.0,0.0,0.0,0.0,0.0,0.0,0.0,0.0,0.0,0.0,0.0,0.0,0.0,0.0,0.0,0.0,0.0,0.0,0.0,0.0,0.0,0.0,0.0,0.0,0.0,0.0,0.0,0.0,0.0,0.0,0.0,0.0,0.0,0.0,0.0,0.0,0.0,0.0,0.0,0.0,0.0,0.0,0.0,0.0,0.0,0.0,0.0,0.0,0.0,0.0,0.0,0.0,0.0,0.0,0.0,0.0,0.0,0.0,0.0,0.0,0.0,0.0,0.0,0.0,0.0,0.0,0.0,0.0,0.0,0.0,0.0,0.0,0.0,0.0,0.0,0.0,0.0,0.0,0.0,0.0,0.0,0.0,0.0,0.0,0.0,0.0,0.0,0.0,0.0,0.0,0.0,0.0,0.0,0.0,0.0,0.0,0.0,0.0,0.0,0.0,0.0,0.0,0.0,0.0,0.0,0.0,0.0,0.0,0.0,0.0,0.0,0.0,0.0,0.0,0.0,0.0,0.0,0.0,0.0,0.0,0.0,0.0,0.0,0.0,0.0,0.0,0.0,0.0,0.0,0.0,0.0,0.0,0.0,0.0,0.0,0.0,0.0,0.0,0.0,0.0,0.0,0.0,0.0,0.0,0.0,0.0,0.0,0.0,0.0,0.0,0.0,0.0,0.0,0.0,0.0,0.0,0.0,0.0,0.0,0.0,0.0,0.0,0.0,0.0,0.0,0.0,0.0,0.0,0.0,0.0,0.0,0.0,0.0,0.0,0.0,0.0,0.0,0.0,0.0,0.0,0.0,0.0,0.0,0.0,0.0,0.0,0.0,0.0,0.0,0.0,0.0,0.0,0.0,0.0,0.0,0.0,0.0,0.0,0.0,0.0,0.0,0.0,0.0,0.0,0.0,0.0,0.0,0.0,0.0,0.0,0.0,0.0,0.0,0.0,0.0,0.0,0.0,0.0,0.0,0.0,0.0,0.0,0.0,0.0,0.0,0.0,0.0,0.0,0.0,0.0,0.0,0.0,0.0,0.0,0.0,0.0,0.0,0.0,0.0,0.0,0.0,0.0,0.0,0.0,0.0,0.0,0.0,0.0,0.0,0.0,0.0,0.0,0.0,0.0,0.0,0.0,0.0,0.0,0.0,0.0,0.0,0.0,0.0,0.0,0.0,0.0,0.0,0.0,0.0,0.0,0.0,0.0,0.0,0.0,0.0,0.0,0.0,0.0,0.0,0.0,0.0,0.0,0.0,0.0,0.0,0.0,0.0,0.0,0.0,0.0,0.0,0.0,0.0,0.0,0.0,0.0,0.0,0.0,0.0,0.0,0.0,0.0,0.0,0.0,0.0,0.0,0.0,0.0,0.0,0.0,0.0,0.0,0.0,0.0,0.0,0.0,0.0,0.0,0.0,0.0,0.0,0.0,0.0,0.0,0.0,0.0,0.0,0.0,0.0,0.0,0.0,0.0,0.0,0.0,0.0,0.0,0.0,0.0,0.0,0.0,0.0,0.0,0.0,0.0,0.0,0.0,0.0,0.0,0.0,0.0,0.0,0.0,0.0,0.0,0.0,0.0,0.0,0.0,0.0,0.0,0.0,0.0,0.0,0.0,0.0,0.0,0.0,0.0,0.0,0.0,0.0,0.0,0.0,0.0,0.0,0.0,0.0,0.0,0.0,0.0,0.0,0.0,0.0,0.0,0.0,0.0,0.0,0.0,0.0,0.0,0.0,0.0,0.0,0.0,0.0,0.0,0.0,0.0,0.0,0.0,0.0,0.0,0.0,0.0,0.0,0.0,0.0,0.0,0.0,0.0,0.0,0.0,0.0,0.0,0.0,0.0,0.0,0.0,0.0,0.0,0.0,0.0,0.0,0.0,0.0,0.0,0.0,0.0,0.0,0.0,0.0,0.0,0.0,0.0,0.0,0.0,0.0,0.0,0.0,0.0,0.0,0.0,0.0,0.0,0.0,0.0,0.0,0.0,0.0,0.0,0.0,0.0,0.0,0.0,0.0,0.0,0.0,0.0,0.0,0.0,0.0,0.0,0.0,0.0,0.0,0.0,0.0,0.0,0.0,0.0,0.0,0.0,0.0,0.0,0.0,0.0,0.0,0.0,0.0,0.0,0.0,0.0,0.0,0.0,0.0,0.0,0.0,0.0,0.0,0.0,0.0,0.0,0.0,0.0,0.0,0.0,0.0,0.0,0.0,0.0,0.0,0.0,0.0,0.0,0.0,0.0,0.0,0.0,0.0,0.0,0.0,0.0,0.0,0.0,0.0,0.0,0.0,0.0,0.0,0.0,0.0,0.0,0.0,0.0,0.0,0.0,0.0,0.0,0.0,0.0,0.0,0.0,0.0,0.0,0.0,0.0,0.0,0.0,0.0,0.0,0.0,0.0,0.0,0.0,0.0,0.0,0.0,0.0,0.0,0.0,0.0,0.0,0.0,0.0,0.0,0.0,0.0,0.0,0.0,0.0,0.0,0.0,0.0,0.0,0.0,0.0,0.0,0.0,0.0,0.0,0.0,0.0,0.0,0.0,0.0,0.0,0.0,0.0,0.0,0.0,0.0,0.0,0.0,0.0,0.0,0.0,0.0,0.0,0.0,0.0,0.0,0.0,0.0,0.0,0.0,0.0,0.0,0.0,0.0,0.0,0.0,0.0,0.0,0.0,0.0,0.0,0.0,0.0,0.0,0.0,0.0,0.0,0.0,0.0,0.0,0.0,0.0,0.0,0.0,0.0,0.0,0.0,0.0,0.0,0.0,0.0,0.0,0.0,0.0,0.0,0.0,0.0,0.0,0.0,0.0,0.0,0.0,0.0,0.0,0.0,0.0,0.0,0.0,0.0,0.0,0.0,0.0,0.0,0.0,0.0,0.0,0.0,0.0,0.0,0.0,0.0,0.0,0.0,0.0,0.0,0.0,0.0,0.0,0.0,0.0,0.0,0.0,0.0,0.0,0.0,0.0,0.0,0.0,0.0,0.0,0.0,0.0,0.0,0.0,0.0,0.0,0.0,0.0,0.0,0.0,0.0,0.0,0.0,0.0,0.0,0.0,0.0,0.0,0.0,0.0,0.0,0.0,0.0,0.0,0.0,0.0,0.0,0.0,0.0,0.0,0.0,0.0,0.0,0.0,0.0,0.0,0.0,0.0,0.0,0.0,0.0,0.0,0.0,0.0,0.0,0.0,0.0,0.0,0.0,0.0,0.0,0.0,0.0,0.0,0.0,0.0,0.0,0.0,0.0,0.0,0.0,0.0,0.0,0.0,0.0,0.0,0.0,0.0,0.0,0.0,0.0,0.0,0.0,0.0,0.0,0.0,0.0,0.0,0.0,0.0,0.0,0.0,0.0,0.0,0.0,0.0,0.0,0.0,0.0,0.0,0.0,0.0,0.0,0.0,0.0,0.0,0.0,0.0,0.0,0.0,0.0,0.0,0.0,0.0,0.0,0.0,0.0,0.0,0.0,0.0,0.0,0.0,0.0,0.0,0.0,0.0,0.0,0.0,0.0,0.0,0.0,0.0,0.0,0.0,0.0,0.0,0.0,0.0,0.0,0.0,0.0,0.0,0.0,0.0,0.0,0.0,0.0,0.0,0.0,0.0,0.0,0.0,0.0,0.0,0.0,0.0,0.0,0.0,0.0,0.0,0.0,0.0,0.0,0.0,0.0,0.0,0.0,0.0,0.0,0.0,0.0,0.0,0.0,0.0,0.0,0.0,0.0,0.0,0.0,0.0,0.0,0.0,0.0,0.0,0.0,0.0,0.0,0.0,0.0,0.0,0.0,0.0,0.0,0.0,0.0,0.0,0.0,0.0,0.0,0.0,0.0,0.0,0.0,0.0,0.0,0.0,0.0,0.0,0.0,0.0,0.0,0.0,0.0,0.0,0.0,0.0,0.0,0.0,0.0,0.0,0.0,0.0,0.0,0.0,0.0,0.0,0.0,0.0,0.0,0.0,0.0,0.0,0.0,0.0,0.0,0.0,0.0,0.0,0.0,0.0,0.0,0.0,0.0,0.0,0.0,0.0,0.0,0.0,0.0,0.0,0.0,0.0,0.0,0.0,0.0,0.0,0.0,0.0,0.0,0.0,0.0,0.0,0.0,0.0,0.0,0.0,0.0,0.0,0.0,0.0,0.0,0.0,0.0,0.0,0.0,0.0,0.0,0.0,0.0,0.0,0.0,0.0,0.0,0.0,0.0,0.0,0.0,0.0,0.0,0.0,0.0,0.0,0.0,0.0,0.0,0.0,0.0,0.0,0.0,0.0,0.0,0.0,0.0,0.0,0.0,0.0,0.0,0.0,0.0,0.0,0.0,0.0,0.0,0.0,0.0,0.0,0.0,0.0,0.0,0.0,0.0,0.0,0.0,0.0,0.0,0.0,0.0,0.0,0.0,0.0,0.0,0.0,0.0,0.0,0.0,0.0,0.0,0.0,0.0,0.0,0.0,0.0,0.0,0.0,0.0,0.0,0.0,0.0,0.0,0.0,0.0,0.0,0.0,0.0,0.0,0.0,0.0,0.0,0.0,0.0,0.0,0.0,0.0,0.0,0.0,0.0,0.0,0.0,0.0,0.0,0.0,0.0,0.0,0.0,0.0,0.0,0.0,0.0,0.0,0.0,0.0,0.0,0.0,0.0,0.0,3.992,0.0,0.0,0.0,0.0,0.0,0.0,0.0,0.0,0.0,0.0,0.0,0.0,0.0,0.0,0.0,0.0,0.0,0.0,0.0,0.0,0.0,0.0,0.0,0.0,0.0,0.0,0.0,4.9356,4.9163,4.874,4.9548,4.9817,4.9356,4.9642,4.9386,4.8515,4.8755,4.889,4.8853,4.8073,4.7748,4.789,4.983,4.9581,4.7432,0.0,0.0,0.0,0.0,0.0,0.0,0.0,0.0,0.0,0.0,0.0,0.0,0.0,0.0,0.0,0.0,0.0,0.0,0.0,0.0,0.0,0.0,0.0,0.0,0.0,0.0,0.0,0.0,0.0,0.0,0.0,0.0,0.0,0.0,0.0,0.0,0.0,0.0,0.0,0.0,0.0,0.0,0.0,0.0,0.0,0.0,0.0,0.0,0.0,0.0,0.0,0.0,0.0,0.0,0.0,0.0,0.0,0.0,0.0,0.0,0.0,0.0,0.0,0.0,0.0,0.0,0.0,0.0,0.0,0.0,0.0,4.2507,0.0,0.0,0.0,0.0,0.0,0.0,0.0,0.0,0.0,0.0,0.0,0.0,0.0,0.0,0.0,0.0,0.0,0.0,0.0,0.0,0.0,0.0,0.0,5.0804,5.0514,4.9928,5.0584,5.0719,5.0028,5.0567,5.0971,5.1135,5.0338,4.9958,5.0207,4.953,4.9909,5.138,4.9467,4.9454,5.1216,5.359,5.2923,4.9671,4.9605,0.0,0.0,0.0,0.0,0.0,0.0,0.0,0.0,0.0,0.0,0.0,0.0,0.0,0.0,0.0,0.0,0.0,0.0,0.0,0.0,0.0,0.0,0.0,0.0,0.0,0.0,0.0,0.0,0.0,0.0,0.0,0.0,0.0,0.0,0.0,0.0,0.0,0.0,0.0,0.0,0.0,0.0,0.0,0.0,0.0,0.0,0.0,0.0,0.0,0.0,0.0,0.0,0.0,0.0,0.0,0.0,0.0,0.0,0.0,0.0,0.0,0.0,0.0,5.5417,5.6406,5.7348,5.8197,5.8105,5.7024,5.1878,4.8153,4.5791,4.5915,0.0,0.0,0.0,0.0,0.0,0.0,0.0,0.0,0.0,0.0,0.0,0.0,0.0,0.0,0.0,0.0,0.0,0.0,0.0,0.0,0.0,5.1142,5.1188,5.1768,5.2196,5.2382,5.2267,5.1935,5.2087,5.2856,5.1113,5.066,5.175,5.0845,5.0675,5.1232,5.1695,5.2438,5.3423,5.5433,5.6492,5.6463,5.2003,5.0394,5.0833,0.0,0.0,0.0,0.0,0.0,0.0,0.0,0.0,0.0,0.0,0.0,0.0,0.0,0.0,0.0,0.0,0.0,0.0,0.0,0.0,0.0,0.0,0.0,0.0,0.0,0.0,0.0,0.0,0.0,0.0,0.0,0.0,0.0,0.0,0.0,0.0,0.0,0.0,0.0,0.0,0.0,4.7558,4.9015,0.0,0.0,0.0,0.0,0.0,0.0,0.0,0.0,0.0,0.0,0.0,0.0,0.0,5.5216,5.692,5.9268,6.0615,6.0959,6.3285,6.3739,6.2549,6.3343,6.3268,6.249,6.165,0.0,5.1047,4.8251,0.0,0.0,0.0,0.0,0.0,0.0,0.0,0.0,0.0,0.0,0.0,0.0,0.0,0.0,0.0,0.0,0.0,0.0,0.0,0.0,0.0,5.2791,5.3731,5.4555,5.6665,5.6978,5.4549,5.5533,5.5215,5.3008,5.21,5.1828,5.2186,5.1328,5.1312,5.2208,5.7228,5.9089,5.8029,6.0603,6.1342,6.0381,5.8216,5.5852,5.3315,5.0047,0.0,0.0,0.0,0.0,0.0,0.0,0.0,0.0,0.0,0.0,0.0,0.0,0.0,0.0,0.0,0.0,0.0,0.0,0.0,0.0,0.0,0.0,0.0,0.0,0.0,0.0,0.0,0.0,0.0,0.0,0.0,0.0,0.0,0.0,0.0,0.0,0.0,0.0,0.0,4.8381,5.0363,4.9175,5.0801,5.0933,0.0,0.0,0.0,0.0,0.0,0.0,0.0,0.0,0.0,5.9165,6.0333,6.1472,6.272,6.4743,6.5936,6.6313,6.8371,6.9162,6.8813,6.9641,6.983,6.9512,6.9022,6.6139,6.1355,5.5848,5.2049,4.9451,0.0,0.0,0.0,0.0,4.7694,4.8475,0.0,0.0,0.0,0.0,0.0,0.0,0.0,0.0,0.0,0.0,0.0,0.0,5.3399,5.517,5.6816,5.8492,6.0953,6.1172,5.8208,5.8256,5.7184,5.4448,5.3239,5.2829,5.32,5.3566,5.4528,5.6156,6.2807,6.5135,6.3453,6.5936,6.633,6.4902,6.4889,6.1976,5.6884,5.3398,5.0874,4.9028,0.0,0.0,0.0,0.0,0.0,0.0,0.0,0.0,0.0,0.0,0.0,0.0,0.0,0.0,0.0,0.0,0.0,0.0,0.0,0.0,0.0,0.0,0.0,0.0,0.0,0.0,0.0,0.0,0.0,0.0,0.0,0.0,0.0,0.0,0.0,0.0,0.0,5.1441,5.3072,5.0321,5.3709,5.4523,0.0,0.0,0.0,0.0,0.0,0.0,5.9278,6.0437,6.2518,6.5899,6.6956,6.7843,6.8711,7.0166,7.1161,7.1654,7.2918,7.3733,7.4197,7.4836,7.5023,7.4798,7.4122,7.2583,6.9917,6.2899,5.7813,5.4292,5.2401,5.1546,5.1319,5.1343,5.1857,5.2696,0.0,0.0,0.0,0.0,0.0,0.0,0.0,0.0,0.0,0.0,0.0,5.1185,5.7003,5.8161,6.012,6.4041,6.3726,6.3603,6.4206,5.8763,5.6499,5.8678,5.4562,5.3337,5.5677,5.9194,6.2235,6.4775,6.7164,6.8654,6.9298,7.0227,7.1007,7.1689,7.0846,6.7523,6.2146,5.6731,5.4852,5.511,5.0269,0.0,0.0,0.0,0.0,0.0,0.0,0.0,0.0,0.0,0.0,0.0,0.0,0.0,0.0,0.0,0.0,0.0,0.0,0.0,0.0,0.0,0.0,0.0,0.0,0.0,0.0,0.0,0.0,0.0,0.0,0.0,0.0,0.0,0.0,0.0,0.0,0.0,0.0,5.5807,5.9376,0.0,0.0,0.0,0.0,5.7992,6.0244,6.274,6.5406,6.6917,6.9231,7.2623,7.4124,7.5235,7.6061,7.6962,7.7413,7.7488,7.7563,7.7638,7.7652,7.7689,7.7276,7.6488,7.645,7.5474,7.3446,6.6746,6.256,6.0111,5.7678,5.6208,5.5492,5.5492,5.5973,5.6379,0.0,0.0,0.0,0.0,0.0,0.0,0.0,0.0,4.7417,4.9955,5.1786,5.465,5.9516,6.3243,6.6618,6.9602,7.0851,7.0401,6.7941,6.3782,6.1218,6.0705,5.7544,5.7336,6.0594,6.3594,6.6045,6.797,7.1335,7.2843,7.2563,7.3268,7.3554,7.3414,7.3673,7.2124,6.8927,6.295,5.8971,5.6295,5.1669,4.9094,0.0,0.0,0.0,0.0,0.0,0.0,0.0,0.0,0.0,0.0,0.0,0.0,0.0,0.0,0.0,0.0,0.0,0.0,0.0,0.0,0.0,0.0,0.0,0.0,0.0,0.0,0.0,0.0,0.0,0.0,0.0,0.0,0.0,0.0,0.0,0.0,0.0,6.3966,6.7297,0.0,6.3212,6.2745,6.3502,6.5369,6.7721,7.0654,7.4229,7.544,7.7071,7.9303,7.9366,7.9266,7.9041,7.9341,7.9229,7.8666,7.8666,7.8616,7.8541,7.8541,7.8341,7.794,7.794,7.7342,7.6069,7.2627,6.8884,6.5229,6.3274,6.1695,6.0492,6.0492,6.0304,6.0022,0.0,0.0,0.0,0.0,0.0,0.0,0.0,0.0,4.7478,5.019,5.3162,5.7026,6.2264,6.7187,7.1345,7.4312,7.4989,7.4142,7.161,6.6333,6.305,6.25,6.0714,6.1239,6.4346,6.8244,7.0877,7.2203,7.561,7.6702,7.5652,7.606,7.5976,7.5354,7.5974,7.5457,7.3868,6.9443,6.4644,5.9608,5.5268,5.3374,5.273,0.0,0.0,0.0,0.0,0.0,0.0,0.0,0.0,0.0,0.0,0.0,0.0,0.0,0.0,0.0,0.0,0.0,0.0,0.0,0.0,0.0,0.0,0.0,0.0,0.0,0.0,0.0,0.0,0.0,0.0,0.0,0.0,0.0,0.0,6.4407,6.9089,6.9899,7.3673,7.4692,7.0763,7.0282,7.1234,7.3755,7.5333,7.7802,8.1407,8.1895,8.2533,8.3622,8.3134,8.2195,8.0806,8.0806,8.0243,7.9116,7.9066,7.8991,7.8915,7.8864,7.8787,7.8708,7.8708,7.8409,7.7812,7.6429,7.3813,7.0533,6.8322,6.6636,6.5415,6.4908,6.4342,6.3792,0.0,0.0,0.0,0.0,0.0,0.0,0.0,4.6847,4.7718,5.1008,5.3645,5.7971,6.5325,6.988,7.403,7.8016,7.5657,7.4257,7.5041,6.5828,6.1483,6.4081,6.3873,6.472,6.6904,7.3143,7.6865,7.7837,7.9734,7.9991,7.8645,7.8645,7.8386,7.7865,7.7828,7.7385,7.661,7.5797,7.1746,6.5558,6.1389,5.9869,5.9522,0.0,0.0,0.0,0.0,0.0,0.0,0.0,0.0,0.0,0.0,0.0,0.0,0.0,0.0,0.0,0.0,0.0,0.0,0.0,0.0,0.0,0.0,0.0,0.0,0.0,0.0,0.0,0.0,0.0,0.0,0.0,0.0,0.0,6.1146,6.88,7.4136,7.3363,7.8316,8.0492,7.7228,7.8353,8.0305,8.2744,8.2932,8.3982,8.6384,8.5746,8.5296,8.5323,8.5285,8.4084,8.1632,8.1594,8.0743,7.9091,7.8966,7.889,7.889,7.876,7.8708,7.8708,7.8682,7.8655,7.8581,7.776,7.6912,7.5818,7.2595,7.0864,6.9971,6.8494,6.7897,6.7499,0.0,0.0,0.0,0.0,0.0,0.0,0.0,4.7,4.813,5.1787,5.6506,6.1856,6.7999,7.341,7.7533,7.9837,7.6564,7.3974,7.2929,6.532,6.1939,6.4462,6.5234,6.8629,7.5034,7.5814,7.7576,8.0461,8.0617,8.0302,7.9466,7.9466,7.9375,7.9222,7.8639,7.8235,7.7978,7.7132,7.5404,7.2684,6.6441,6.296,6.1011,0.0,0.0,0.0,0.0,0.0,0.0,0.0,0.0,0.0,0.0,0.0,0.0,0.0,0.0,0.0,0.0,0.0,0.0,0.0,0.0,0.0,0.0,0.0,0.0,0.0,0.0,0.0,0.0,0.0,0.0,0.0,6.4887,6.9588,6.9267,7.4848,7.9623,8.14,8.4039,8.5152,8.3706,8.3928,8.4484,8.5219,8.5813,8.6437,8.7136,8.6363,8.5878,8.5674,8.5076,8.3722,8.1632,8.127,8.025,7.8607,7.8554,7.8474,7.8394,7.8697,7.8787,7.8655,7.8025,7.776,7.7628,7.6185,7.5134,7.4372,7.3447,7.2246,7.0792,6.9309,6.755,6.5682,0.0,0.0,0.0,0.0,0.0,0.0,0.0,4.7154,4.8309,5.2263,5.7685,6.3119,6.8171,7.3818,7.7496,7.809,7.5368,7.2689,7.0594,6.631,6.4316,6.5335,6.8769,7.2792,7.7347,7.8617,7.9968,8.1507,8.1499,8.1205,8.0647,8.0647,8.0708,8.0755,7.9947,7.9617,7.9543,7.8369,7.7561,7.6754,7.2307,6.951,6.7487,6.2489,6.0729,6.0587,5.7536,5.7097,5.7472,5.4705,0.0,0.0,0.0,0.0,0.0,0.0,0.0,0.0,0.0,0.0,0.0,0.0,0.0,0.0,0.0,0.0,0.0,0.0,0.0,0.0,0.0,0.0,0.0,0.0,7.0277,7.5745,7.7654,8.1177,8.4392,8.6689,8.8096,8.8871,8.8756,8.8096,8.7837,8.824,8.8018,8.776,8.746,8.698,8.6185,8.5014,8.4798,8.3655,8.1485,8.1194,8.0411,7.9083,7.9063,7.8977,7.892,7.8786,7.8666,0.0,7.771,7.7346,7.7249,7.5753,7.4877,0.0,0.0,0.0,0.0,0.0,6.7197,6.4992,0.0,0.0,0.0,0.0,0.0,0.0,0.0,4.7237,4.8401,5.2428,5.7784,6.2673,6.6462,7.1812,7.4896,7.4375,7.2618,7.0586,6.8395,6.7718,6.7406,6.744,7.326,7.6675,7.709,8.1214,8.2888,8.1808,8.2403,8.2463,8.1993,8.2067,8.2246,8.2443,8.1636,8.1269,8.1158,7.9653,7.8883,7.8662,7.8002,7.7065,7.5419,6.9431,6.862,7.0015,6.5002,6.253,6.1272,5.902,0.0,0.0,0.0,0.0,0.0,0.0,0.0,0.0,0.0,0.0,0.0,0.0,0.0,0.0,0.0,0.0,0.0,0.0,0.0,0.0,0.0,0.0,0.0,0.0,7.5115,8.0432,8.5199,8.6914,8.8188,8.9585,9.0541,9.1278,9.1904,9.0725,9.0136,9.0723,8.9399,8.8183,8.7365,0.0,0.0,0.0,0.0,8.3778,8.1336,8.1237,8.0801,8.0026,7.9872,7.981,7.9663,7.8903,7.8473,7.8363,7.7567,7.7206,7.7138,7.5963,7.5334,7.4942,7.3084,7.1897,7.097,6.8884,6.6927,6.5178,0.0,0.0,0.0,0.0,0.0,0.0,0.0,4.7288,4.8549,5.2192,5.7661,6.2004,6.4085,6.8246,7.1366,7.2581,6.936,6.7459,6.786,6.6172,6.7922,7.4159,7.5532,7.8301,8.3047,8.2484,8.2641,8.3682,8.3374,8.3176,8.3084,8.3778,8.4117,8.4095,8.3287,8.2957,8.2884,8.1893,8.0755,7.958,8.0094,7.7849,7.4022,7.2055,7.0487,6.8987,6.6639,6.7479,6.916,6.5487,6.483,6.4674,5.9317,0.0,0.0,0.0,0.0,0.0,0.0,0.0,0.0,0.0,0.0,0.0,0.0,0.0,0.0,0.0,0.0,0.0,0.0,0.0,0.0,7.3642,8.0008,8.5227,8.7407,8.9005,8.9845,8.9518,9.0209,9.05,8.9991,9.0245,8.9991,8.8864,8.8464,8.7664,8.6283,8.6173,8.5554,8.4147,8.429,8.339,8.1336,8.0924,8.0332,7.9563,0.0,0.0,7.8542,7.8731,7.847,7.7784,7.6956,7.6595,7.6494,7.5578,7.4262,7.2834,7.1899,7.0943,6.9961,6.8538,6.7214,6.6028,0.0,0.0,0.0,0.0,0.0,0.0,0.0,4.7391,4.8485,5.1772,5.6345,5.9664,6.0481,6.4173,6.6314,6.5496,6.3451,6.3424,6.6315,6.73,7.0503,7.676,7.8942,8.1414,8.4426,8.3536,8.3446,8.4395,8.3746,8.3838,8.4609,8.5013,8.5416,8.5783,8.4976,8.4609,8.4535,8.3324,8.2333,8.1562,8.1158,7.9286,7.6644,7.5873,7.4294,7.2386,7.1578,7.1701,7.1874,6.9421,6.8208,6.7009,6.3087,5.9413,5.6108,0.0,0.0,0.0,0.0,0.0,0.0,0.0,0.0,0.0,0.0,0.0,0.0,0.0,0.0,6.1801,6.4329,0.0,7.4415,7.8288,8.323,8.7147,8.8589,8.9857,9.0436,9.0038,9.0364,9.0436,9.0038,9.0364,9.011,8.8915,8.8444,8.7539,8.5982,8.5909,8.5298,8.3881,8.4245,8.3805,8.2401,8.1761,8.1259,8.0824,8.0424,8.0024,7.9624,7.9084,7.856,7.8158,7.6898,7.6336,7.6303,7.569,7.4512,7.3082,7.236,7.0825,6.8957,6.8734,6.7712,6.6344,0.0,0.0,0.0,0.0,0.0,0.0,0.0,4.7441,4.8301,5.1099,5.4559,5.6729,5.658,5.9924,6.1187,5.8698,5.8863,6.1106,6.5854,6.9392,7.3501,7.8452,8.197,8.4087,8.4643,8.4404,8.4463,8.4829,8.4168,8.4535,8.5783,8.5967,8.6371,8.6995,8.6334,8.604,8.593,8.4646,8.3948,8.3508,8.2076,8.0791,7.969,7.8919,7.7671,7.6313,7.6166,7.4441,7.2202,7.1725,6.9596,6.6979,6.5577,6.3294,6.0582,5.7914,5.7174,0.0,0.0,0.0,0.0,0.0,0.0,0.0,0.0,5.6478,5.8373,6.1225,6.3966,6.7061,7.1108,7.4651,7.833,8.2685,8.5731,8.8046,8.9422,9.0183,9.0545,9.04,9.0509,9.0581,9.0581,9.0581,9.0255,8.9459,8.8662,8.7611,8.6199,8.5982,8.5221,8.3772,8.4352,8.4316,8.3483,8.2831,8.2505,8.2505,8.1708,8.1165,8.0839,7.9354,7.8521,7.8159,7.6855,7.6275,7.6275,7.5969,7.5117,7.4083,7.3474,7.1481,6.8892,6.9382,6.8489,6.7076,0.0,0.0,0.0,0.0,0.0,0.0,0.0,0.0,4.8042,5.0033,5.2587,5.3943,5.3237,5.554,5.7249,5.7621,6.0274,6.413,6.9297,7.1331,7.5258,8.1834,8.2752,8.4139,8.6276,8.5185,8.4896,8.5673,8.5563,8.56,8.582,8.6518,8.6921,8.6995,8.6921,8.6885,8.6848,8.6664,8.5783,8.4389,8.3508,8.1782,7.969,7.8919,7.8002,7.7053,7.635,7.4111,7.1513,7.2165,7.1174,6.9605,6.9071,6.7617,6.5594,6.3243,6.0018,5.6763,5.469,5.2526,5.1624,5.4921,5.5665,5.7121,0.0,6.5223,6.6361,6.7993,7.1472,7.4529,7.5505,7.9564,8.3556,8.6092,8.7974,8.9459,9.0328,9.0545,9.0328,8.9603,9.0183,9.0581,9.0581,9.0581,9.0255,8.9459,8.8662,8.779,8.6923,8.6271,8.5475,8.4569,8.4642,8.4316,8.3483,8.341,8.3338,8.3338,8.2541,8.1418,8.0006,7.91,7.7905,7.6565,7.6384,7.6275,7.6311,7.6242,7.5534,7.4575,7.474,7.3389,7.1124,7.0587,6.9933,6.9412,0.0,0.0,0.0,0.0,0.0,0.0,0.0,0.0,0.0,4.855,5.0859,5.1899,5.0599,5.1379,5.2308,5.3125,5.6594,6.1047,6.6486,7.0485,7.5328,8.1421,8.2684,8.412,8.6107,8.4669,8.4756,8.6518,8.5563,8.5563,8.6518,8.6848,8.6995,8.6995,8.6995,8.6995,8.6995,8.6995,8.6628,8.582,8.3581,8.2113,8.0901,7.8185,7.5763,7.3824,7.3964,7.2532,0.0,0.0,6.9559,6.944,6.9767,6.8062,6.5679,6.4242,6.1516,5.847,5.6246,5.5053,5.4878,5.6564,5.8609,6.1497,6.6126,6.8486,7.0417,7.2894,7.5901,7.8586,8.0186,8.3302,8.6093,8.7467,8.906,9.0038,8.9929,8.9495,8.877,8.7503,8.7249,8.7865,8.9712,9.0328,9.0473,9.011,8.935,8.8553,8.7718,8.6959,8.6199,8.5402,8.5402,8.5221,8.4895,8.4424,8.3953,8.3483,8.265,8.1708,8.0585,7.9281,7.7833,7.6275,7.6275,7.6275,7.6275,7.6275,7.6027,7.5566,7.5231,7.4483,7.349,7.2266,7.094,6.9757,0.0,0.0,0.0,0.0,0.0,0.0,0.0,0.0,0.0,0.0,4.9262,5.0079,4.9299,4.9039,4.9336,5.0376,5.3717,5.7968,6.3073,6.8836,7.4359,7.9433,8.1856,8.3728,8.5123,8.4205,8.4719,8.6664,8.549,8.5637,8.6995,8.6995,8.6995,8.6995,8.6995,8.6995,8.6995,8.6995,8.6995,8.6738,8.3728,8.226,8.1379,7.6827,7.312,7.0403,7.1211,6.9449,0.0,0.0,6.5962,6.6145,6.7614,6.6633,6.4699,6.3672,6.1214,5.8506,5.7109,5.7207,5.7981,5.9056,6.2277,6.5953,6.8959,7.182,7.4537,7.7108,7.9535,8.1744,8.3483,8.5583,8.7285,8.8043,8.9205,8.9821,8.9459,8.8336,8.6923,8.5112,8.4207,8.4533,8.6561,8.83,8.9567,9.0219,8.9531,8.8807,8.8224,8.7467,8.667,8.5909,8.5909,8.5909,8.5909,8.533,8.4605,8.3809,8.3012,8.1961,8.073,7.8883,7.7398,7.6275,7.6275,7.6275,7.6275,7.6275,7.6275,7.6239,7.5659,7.5334,7.4938,7.3812,7.2203,7.0494,0.0,0.0,0.0,0.0,0.0,0.0,0.0,0.0,0.0,0.0,0.0,0.0,0.0,4.9373,4.9559,5.1231,5.3608,5.6681,6.0563,6.6923,7.2272,7.6056,8.0094,8.2627,8.3471,8.4205,8.4976,8.582,8.5783,8.6187,8.6995,8.6995,8.6995,8.6995,8.6995,8.6995,8.6995,8.6995,8.6995,8.6811,8.4352,8.2443,8.0424,7.4771,7.0624,6.7907,6.8715,0.0,0.0,0.0,6.0236,5.8877,6.2034,6.3463,6.3617,6.2043,5.8616,5.5663,5.7,5.7969,5.9444,6.3256,6.7184,7.0806,7.3197,7.6818,7.9897,8.0766,8.2867,8.4569,8.4642,8.5945,8.7285,8.8043,8.8224,8.8553,8.9277,8.743,8.5076,8.2686,8.1708,8.0947,0.0,8.3736,8.6996,8.9277,8.8698,8.8224,8.8188,8.7467,8.667,8.5909,8.5909,8.5909,8.5909,8.5873,8.5475,8.4642,8.3845,8.2215,7.9861,7.747,7.6348,7.6275,7.6275,7.6275,7.6275,7.6275,7.6275,7.6275,7.6275,7.5804,7.5083,7.5047,7.3997,7.2404,0.0,0.0,0.0,0.0,0.0,0.0,0.0,0.0,0.0,0.0,0.0,0.0,0.0,0.0,0.0,0.0,5.2102,5.4509,5.7316,6.2522,6.7027,7.0395,7.4918,7.8002,7.9292,8.0718,8.2076,8.3398,8.3398,8.3544,8.3838,8.4352,8.4609,8.4609,8.4609,8.4939,8.538,8.4866,8.4609,8.4315,8.0759,7.8998,7.8002,7.2863,6.7871,6.3539,0.0,0.0,0.0,5.6712,5.6271,5.5955,5.805,5.848,5.8116,5.74,5.694,5.6976,5.845,6.1009,6.4054,6.754,7.135,7.4935,7.7362,7.9752,8.1418,8.1165,8.1744,8.2143,8.1599,8.2396,8.3519,8.4859,8.6416,8.7394,8.7104,8.6815,8.4968,8.044,7.968,0.0,0.0,0.0,0.0,8.6851,8.6815,8.6887,8.7356,8.7645,8.7213,8.5945,8.638,8.638,8.5909,8.5366,8.4678,8.3881,8.1998,8.0404,7.9064,7.7724,7.6782,7.6275,7.6275,7.6275,7.6275,7.6275,7.6275,7.6275,7.6275,7.613,7.5841,7.5334,7.4395,7.3269,0.0,0.0,0.0,0.0,0.0,0.0,0.0,0.0,0.0,0.0,0.0,0.0,0.0,0.0,0.0,0.0,0.0,5.2342,5.4088,5.8371,6.1997,6.453,6.8752,7.1798,7.3413,7.4515,7.613,7.8295,7.8295,7.8883,8.0021,8.0571,8.0938,8.12,8.1562,8.215,8.281,8.2039,8.1525,8.0869,7.7059,7.4859,7.3311,6.8413,6.3573,0.0,0.0,0.0,0.0,5.3344,5.3454,5.3689,5.4861,5.4829,5.4542,5.5171,5.6515,5.8377,6.138,6.4867,6.8488,7.1675,7.508,7.7977,7.9571,8.0911,8.1491,8.0114,7.9571,7.8886,7.7266,7.7152,7.8089,8.0587,8.225,8.3772,8.5257,8.5149,8.3483,7.9607,7.8376,7.776,0.0,0.0,0.0,8.5149,8.5475,8.6054,8.7394,8.7645,8.7322,8.6308,8.6525,8.6525,8.6308,8.5511,8.4569,8.3446,8.0766,7.9209,7.8666,7.7579,7.6782,7.6275,7.6275,7.6275,7.6275,7.6275,7.6275,7.6275,7.6275,7.6275,7.6203,7.5406,7.4576,7.3667,0.0,0.0,0.0,0.0,0.0,0.0,0.0,0.0,0.0,0.0,0.0,0.0,0.0,0.0,0.0,0.0,0.0,0.0,5.0858,5.4465,5.7265,5.8731,6.1998,6.453,6.6072,6.6292,6.7871,7.0954,7.0999,7.2606,7.5542,7.5579,7.6019,7.676,7.7598,7.8405,7.9103,7.8332,7.7524,7.6466,7.3157,7.0034,6.689,6.1931,0.0,0.0,0.0,0.0,4.8663,5.0947,5.1788,5.195,5.2536,5.2717,5.3185,5.5607,5.7478,6.0013,6.5627,6.943,7.2581,7.5732,7.8231,7.9897,7.9897,8.0368,8.0114,7.7724,7.6456,7.4844,7.1824,7.0685,7.1528,7.5693,7.6478,7.8486,8.4026,8.2939,8.1165,8.0223,7.8086,7.6963,7.7615,7.6348,0.0,8.4171,0.0,8.5583,8.8007,8.743,8.6996,8.6959,8.6344,8.6308,8.6959,8.6163,8.4968,8.3338,8.0223,7.8738,7.8666,7.7108,7.6384,7.6275,7.6348,7.6348,7.6275,7.6275,7.6275,7.6275,7.6275,7.6275,7.6203,7.5442,7.4649,7.374,0.0,0.0,0.0,0.0,0.0,0.0,0.0,0.0,0.0,0.0,0.0,0.0,0.0,0.0,0.0,0.0,0.0,0.0,4.8274,5.0296,5.1908,5.2894,5.7189,6.0015,6.1043,6.3466,6.5118,6.5925,6.7136,6.7834,6.8091,6.8678,6.9045,6.9265,6.9486,7.0036,7.0734,6.9926,6.9394,6.887,0.0,6.4616,6.3503,0.0,0.0,0.0,0.0,5.1186,4.9909,5.0529,5.1508,5.2316,5.1908,5.2944,5.5112,5.9253,6.2041,6.4975,7.0589,7.3993,7.6601,7.9209,7.9897,7.9897,7.9897,7.8195,7.613,7.4319,7.1031,6.794,6.5958,6.6388,6.8743,7.401,7.7665,8.1407,8.5869,8.6959,8.609,8.2939,8.2577,8.1925,8.0332,8.0332,8.1382,0.0,8.2686,8.3591,8.7141,8.7102,8.6778,8.6199,8.7104,8.7177,8.6199,8.4786,8.3301,8.1708,8.0259,7.9281,7.8702,7.8267,7.7434,7.6311,7.6927,7.6855,7.6275,7.6275,7.6275,7.6275,7.6275,7.6275,7.6275,7.6058,7.5478,7.4649,0.0,0.0,0.0,0.0,0.0,0.0,0.0,0.0,0.0,0.0,0.0,0.0,0.0,0.0,0.0,0.0,0.0,0.0,0.0,4.7849,4.871,4.9187,5.1793,5.3959,5.5478,5.6602,5.801,5.976,6.031,6.1056,6.1958,6.2093,6.2496,6.3192,6.3533,6.4302,6.539,6.4558,0.0,0.0,0.0,0.0,0.0,0.0,0.0,0.0,5.2476,5.1777,5.1427,5.2154,5.3149,5.4264,5.5221,5.7166,5.9941,6.4396,6.7112,6.9937,7.5551,7.8557,8.044,8.1817,8.1563,8.0295,7.7833,7.5334,7.23,6.7997,6.4555,6.1623,5.9481,6.0826,6.4241,7.0234,7.5299,8.0223,8.5328,8.7104,8.7141,8.5257,8.5149,8.4823,8.3845,8.3483,8.4098,8.5945,8.3953,8.3953,8.6851,8.6706,8.6489,8.638,8.7249,8.7285,8.638,8.4823,8.341,8.2143,8.0621,7.968,7.9209,7.8484,7.7869,7.7326,0.0,7.6927,7.6782,7.6456,7.6275,7.6275,7.6275,7.6275,7.6239,7.5913,7.5515,7.4974,0.0,0.0,0.0,0.0,0.0,0.0,0.0,0.0,0.0,0.0,0.0,0.0,0.0,0.0,0.0,0.0,0.0,0.0,0.0,0.0,4.6782,4.6782,4.6892,4.7957,5.0105,4.893,4.9971,5.3419,5.2907,5.4143,5.6864,5.6061,5.6559,5.8105,5.8689,5.9821,6.1171,0.0,0.0,0.0,0.0,0.0,0.0,0.0,0.0,5.1537,5.1375,5.1611,5.2348,5.4604,5.5991,5.7369,6.0593,6.3225,6.5987,7.0107,7.2348,7.4624,7.9937,8.2504,8.3591,8.3374,8.2396,8.0114,7.479,7.1784,6.8114,6.1186,5.8112,5.5905,5.3465,5.5302,5.9331,6.6036,7.1369,7.6981,8.3726,8.5427,8.6299,8.7058,8.6774,8.6742,8.7358,8.6121,8.6338,8.8879,8.6519,8.5614,8.7066,8.6452,8.638,8.7141,8.6959,8.6851,8.6851,8.533,8.4135,8.3301,8.1092,8.0006,7.9861,7.8557,7.8231,7.8629,7.7326,0.0,7.7434,7.6746,7.6384,7.6275,7.6275,7.6275,7.6203,7.5515,7.5261,7.5119,0.0,0.0,0.0,0.0,0.0,0.0,0.0,0.0,0.0,0.0,4.6375,4.5781,0.0,0.0,0.0,0.0,0.0,0.0,0.0,0.0,0.0,4.5131,4.5773,4.6324,4.6728,4.7792,4.8615,4.9248,5.0419,5.1584,5.2645,5.1843,5.2317,5.3827,5.3316,5.3608,5.4483,5.4337,0.0,0.0,0.0,0.0,0.0,0.0,0.0,0.0,5.1307,5.0524,5.0376,5.592,5.9211,6.1534,6.4758,6.7307,7.0015,7.469,7.6726,7.8264,8.1838,8.3678,8.4171,8.2831,7.9897,7.6384,7.2762,6.7112,6.1906,5.922,5.4927,5.1566,5.1224,5.3147,5.7307,6.5049,6.9694,7.5113,8.323,8.5733,8.6972,8.7759,8.8987,8.9567,8.906,8.8598,8.8075,0.0,8.676,8.6859,8.7896,8.7249,8.7177,8.7935,8.6778,8.609,8.609,8.4497,8.3301,8.2468,8.1418,8.0549,7.9933,8.0295,7.9825,7.8738,7.91,0.0,7.747,7.7362,7.6891,7.6275,7.6275,7.6275,7.6275,7.613,7.6094,7.5985,0.0,0.0,0.0,0.0,0.0,0.0,0.0,4.436,4.5468,4.9278,4.8929,4.7919,4.6935,4.624,0.0,0.0,0.0,0.0,0.0,0.0,0.0,0.0,4.548,4.6085,4.647,4.7239,4.7968,4.8685,0.0,4.9752,5.0809,5.001,5.0482,5.2009,5.1609,5.19,5.264,5.264,5.2618,5.2536,0.0,0.0,0.0,0.0,0.0,0.0,5.114,5.0778,5.0941,5.6206,5.9785,6.2771,6.7186,7.0416,7.331,7.6812,7.8403,7.9797,8.3447,8.4788,8.4793,8.3299,7.9897,7.5334,6.9213,6.3526,5.8306,5.3938,5.0976,4.9015,4.8467,5.1309,5.5518,6.0982,6.4845,7.0284,7.9479,8.1172,8.2909,8.678,8.8771,8.9468,8.8571,8.8849,8.8421,8.6887,8.6281,8.6268,8.6955,8.6634,8.6778,8.7537,8.6489,8.609,8.6489,8.4497,8.3301,8.2903,8.1672,8.0911,8.0513,8.0078,7.9897,7.9897,7.9028,0.0,7.8086,7.7651,7.7036,7.6275,7.6275,7.6275,7.6275,7.6275,7.6275,7.6205,0.0,0.0,0.0,0.0,0.0,0.0,0.0,4.5698,4.6997,5.1811,5.1681,5.0397,4.8348,4.7024,4.5954,0.0,0.0,0.0,0.0,0.0,0.0,0.0,0.0,0.0,4.6487,0.0,0.0,4.8598,4.8161,0.0,0.0,0.0,0.0,0.0,5.0923,5.1212,5.1973,5.1973,5.2082,0.0,0.0,5.2173,0.0,0.0,0.0,0.0,0.0,5.1176,5.1687,5.5857,5.8606,6.1207,6.6356,7.1195,7.5297,7.7275,7.8883,8.0696,8.3861,8.5011,8.4884,8.3142,7.9287,7.3868,6.596,6.052,5.546,4.9505,4.8123,4.7666,4.6629,4.9622,5.335,5.6731,5.9859,6.5093,7.4397,7.6105,7.8679,8.4737,8.731,8.8322,8.7655,8.8103,8.7911,8.6555,8.5736,8.5375,8.5546,8.5564,8.5817,8.6377,8.5889,8.5673,8.5909,8.3894,8.2928,8.2935,8.149,8.0912,8.1056,7.9788,7.9897,8.0948,7.8889,0.0,0.0,7.7522,7.6623,7.5759,7.5759,7.5759,7.5759,7.5759,7.5864,7.5934,0.0,0.0,0.0,0.0,0.0,0.0,0.0,4.5364,4.7646,5.418,5.3118,5.1393,5.0493,4.9251,4.7507,0.0,0.0,0.0,0.0,0.0,0.0,0.0,0.0,0.0,0.0,0.0,0.0,4.7024,4.768,0.0,0.0,0.0,0.0,0.0,0.0,4.9582,5.0329,5.0329,0.0,0.0,0.0,0.0,0.0,0.0,0.0,0.0,0.0,5.0836,5.0832,5.4786,5.5532,5.5459,5.9563,6.73,7.5068,7.5911,7.8729,8.162,8.1864,8.3089,8.363,8.0776,7.5366,6.9473,6.447,5.7985,5.224,4.9408,4.8251,4.7621,4.7191,4.8057,5.0189,5.4227,5.6843,6.1061,6.8804,7.3482,7.7638,8.1631,8.4833,8.6998,8.7527,8.6838,8.6415,8.6416,8.5726,8.5044,8.4388,8.4456,8.4504,8.4467,8.4533,8.3863,8.2388,8.143,8.0995,8.1123,8.0301,8.0324,8.1092,8.0947,8.0984,8.1056,7.9998,0.0,0.0,7.6568,7.5372,7.4033,7.4033,7.4033,7.4033,7.4033,7.4527,7.5082,0.0,0.0,0.0,0.0,0.0,0.0,4.5167,4.5334,4.7175,5.3223,5.3395,5.2824,5.2524,5.1454,4.8918,0.0,0.0,0.0,0.0,0.0,0.0,0.0,0.0,0.0,0.0,0.0,4.7692,4.7518,4.7846,0.0,0.0,0.0,0.0,0.0,0.0,4.98,5.0112,5.0112,0.0,0.0,0.0,0.0,0.0,0.0,0.0,0.0,0.0,0.0,4.9739,5.2031,5.2704,5.2837,5.4016,5.8835,6.4903,6.9169,7.305,7.659,7.9488,8.1448,8.2147,8.0177,7.4508,6.8161,6.3509,5.6935,5.1104,4.8677,4.7916,4.7413,4.6558,4.676,4.7734,4.9902,5.0042,5.2774,6.1042,6.3509,6.7544,7.58,7.9592,8.2476,8.4908,8.5696,8.5712,8.4705,8.3983,8.3228,8.2486,8.3606,8.3983,8.3489,8.3109,8.258,8.1918,8.0646,8.0049,8.014,7.9322,7.913,7.9451,7.8526,7.8597,7.9412,7.8138,0.0,0.0,7.6243,7.5204,7.3799,7.3799,7.3799,7.3799,7.3799,7.3994,7.4187,0.0,0.0,0.0,0.0,0.0,4.1022,4.5004,4.5293,4.7003,5.2419,5.3269,5.3367,5.3367,5.1706,4.893,4.4892,0.0,0.0,0.0,0.0,0.0,0.0,0.0,0.0,0.0,0.0,4.8297,4.8417,4.8417,4.8794,0.0,0.0,4.9371,4.9793,0.0,0.0,0.0,0.0,0.0,0.0,0.0,0.0,0.0,0.0,0.0,0.0,0.0,0.0,0.0,0.0,0.0,5.0196,4.9818,5.1712,5.5402,6.2307,6.7467,7.1824,7.5901,7.8566,7.9902,7.8552,7.2844,6.642,6.2051,5.5677,5.0046,4.7919,4.745,4.7196,4.6341,4.6,4.6144,4.7009,4.6452,4.8514,5.6046,5.7504,6.1197,7.0432,7.3922,7.7135,8.119,8.4046,8.4968,8.3306,8.2915,8.2205,8.1021,8.2411,8.2836,8.1863,8.1823,8.1379,8.0449,7.958,7.9051,7.8823,7.8299,7.8042,7.8054,7.6924,7.7029,7.7977,7.6397,0.0,0.0,7.5213,7.4219,7.3072,7.3072,7.3072,7.3072,7.3072,7.32,7.3281,0.0,0.0,0.0,0.0,0.0,0.0,4.3786,4.5139,4.7521,5.2532,5.2873,5.2605,5.2605,4.9326,4.7113,4.7076,0.0,0.0,0.0,0.0,0.0,0.0,0.0,0.0,0.0,0.0,4.8651,4.9375,4.9375,4.9715,5.0378,4.9492,4.9122,4.9065,0.0,0.0,0.0,0.0,0.0,0.0,0.0,0.0,0.0,0.0,0.0,0.0,0.0,0.0,0.0,0.0,0.0,0.0,0.0,4.7352,4.8872,5.6418,6.3099,6.8619,7.0799,7.4086,7.6591,7.52,6.9617,6.3462,5.9701,5.382,4.8794,4.7247,4.689,4.689,4.6868,4.6024,4.5561,4.637,4.788,5.0541,5.5073,5.8254,6.1772,6.6339,6.8233,7.1244,7.6454,8.1629,8.3998,8.2543,8.3084,0.0,8.031,8.0936,8.0665,7.916,8.0734,8.0097,7.6976,7.7653,7.7693,7.712,7.712,7.7198,7.7316,7.7281,7.7316,0.0,0.0,0.0,0.0,7.3118,7.2033,7.1312,7.1312,7.1312,7.1312,7.1312,7.183,7.2406,0.0,0.0,0.0,0.0,0.0,0.0,0.0,4.229,4.3915,4.7006,4.8254,4.927,5.0413,4.8511,4.7113,4.7113,0.0,0.0,0.0,0.0,0.0,0.0,0.0,0.0,0.0,0.0,4.9297,4.9551,5.0081,5.0444,5.0503,4.9715,4.9252,4.9097,4.7647,4.7332,0.0,0.0,0.0,0.0,0.0,0.0,0.0,0.0,0.0,0.0,0.0,0.0,0.0,0.0,0.0,0.0,0.0,0.0,0.0,4.9953,5.5764,6.1384,6.3153,6.6034,6.8006,6.6105,6.191,5.7665,5.5548,5.1598,4.8175,4.7105,4.7173,4.7218,4.6495,4.5653,4.6066,4.909,4.9249,5.034,5.4191,5.7842,6.1772,6.6271,7.3984,8.0006,8.2712,8.3964,8.4437,8.3964,8.3659,8.2746,8.1021,8.1156,8.0615,7.916,7.9133,7.8419,7.6893,7.6589,7.6327,7.6148,7.6148,7.5924,7.5412,7.4943,7.4977,0.0,0.0,0.0,0.0,7.2836,7.165,7.0601,7.1109,7.1007,7.0601,7.1109,7.1457,7.1644,0.0,0.0,0.0,0.0,0.0,0.0,0.0,4.108,4.2405,4.4029,4.5388,4.6948,4.8893,4.7095,4.6104,4.7003,0.0,0.0,0.0,0.0,0.0,0.0,0.0,0.0,0.0,4.8325,5.0198,5.1389,5.2197,5.2705,5.2935,5.238,5.1255,4.9695,4.8566,4.8011,0.0,0.0,0.0,0.0,0.0,0.0,4.8366,0.0,0.0,0.0,0.0,0.0,0.0,0.0,0.0,0.0,0.0,0.0,0.0,0.0,4.9978,5.4254,5.7211,6.0216,6.213,6.048,5.7364,5.4242,5.2488,4.9855,4.7464,4.6493,4.6516,4.6507,4.6035,4.4876,4.5019,4.8191,4.818,4.9123,5.3011,5.7099,6.1772,6.7421,7.5743,8.1494,8.2712,8.3659,8.4099,8.3795,8.3084,8.2035,8.0547,8.0479,7.9803,7.8314,7.8348,7.7773,7.6454,7.6251,7.6014,7.5709,7.5709,7.5168,7.4187,7.3713,7.3578,0.0,0.0,0.0,0.0,7.1988,7.1007,7.0195,7.0398,7.0195,6.9857,7.0601,7.0872,7.0939,0.0,0.0,0.0,0.0,0.0,0.0,0.0,0.0,4.247,4.3204,4.4085,4.548,4.7719,4.5296,4.4378,4.6636,0.0,0.0,0.0,0.0,0.0,0.0,0.0,0.0,0.0,4.8399,5.1189,5.4216,5.5133,5.6014,5.6822,5.6598,5.4466,5.0748,5.0414,4.9304,0.0,0.0,0.0,0.0,4.7699,4.7699,0.0,0.0,0.0,0.0,0.0,0.0,0.0,0.0,0.0,0.0,0.0,0.0,0.0,0.0,0.0,0.0,0.0,5.5919,5.7881,5.7137,5.4803,5.2164,5.0101,4.8196,0.0,4.539,4.5028,4.5082,4.5582,4.387,4.3022,4.5008,4.5726,4.753,5.1928,5.6731,6.255,6.9958,7.4762,7.7671,7.8247,8.146,8.3186,8.2475,8.1731,8.0648,7.9194,7.9126,7.8416,7.6961,7.8247,7.7908,7.5709,7.6454,7.6454,7.5709,7.5642,7.4864,7.3477,7.3443,7.3037,0.0,0.0,0.0,0.0,7.0804,7.0161,7.0026,6.9383,6.9113,6.918,6.9925,7.0229,7.0364,0.0,0.0,0.0,0.0,0.0,0.0,0.0,0.0,0.0,0.0,4.291,4.4011,4.4562,4.3938,4.3718,0.0,0.0,0.0,0.0,0.0,0.0,0.0,0.0,0.0,0.0,4.893,5.1169,5.2564,5.4583,5.6014,5.6785,5.6139,5.4649,5.2522,5.041,4.8473,0.0,0.0,0.0,0.0,4.7699,4.7699,0.0,0.0,0.0,0.0,4.7699,4.7699,0.0,0.0,0.0,0.0,0.0,0.0,0.0,0.0,4.5227,4.5393,4.6646,0.0,4.8646,4.7902,4.6312,4.4925,0.0,4.4514,4.4004,4.3706,4.3892,4.4424,4.5237,4.4017,4.4429,4.9001,4.9372,5.0439,5.4363,6.2212,6.9925,7.6251,8.0445,8.2441,8.146,8.2644,8.3186,8.2475,8.1731,8.0648,7.9194,7.9126,7.8416,7.6961,7.7232,7.686,7.5709,7.5879,7.5879,7.5676,7.5134,7.439,7.3477,7.2902,7.2563,0.0,0.0,0.0,7.2293,7.0804,6.9857,6.935,6.918,6.9113,6.918,6.9925,7.0567,7.1075,0.0,0.0,0.0,0.0,0.0,0.0,0.0,0.0,0.0,0.0,0.0,0.0,0.0,0.0,0.0,0.0,0.0,0.0,0.0,0.0,0.0,0.0,0.0,0.0,4.5865,4.9035,5.1616,5.3456,5.5528,5.7138,5.8249,5.7514,5.5705,5.2972,4.9971,4.8073,0.0,0.0,0.0,0.0,4.7699,0.0,0.0,0.0,0.0,0.0,4.7699,4.7482,0.0,4.7393,4.7212,4.6707,0.0,0.0,0.0,0.0,4.4497,4.4615,4.4615,4.5128,4.5602,4.5196,4.4215,4.3464,4.3842,4.3518,4.3019,4.28,4.2891,4.3367,4.4518,4.3632,4.4236,4.8771,4.9545,5.2232,5.9742,6.6812,7.3544,7.987,8.2408,8.3422,8.2949,8.2949,8.2678,8.1934,8.0885,7.9803,7.8653,7.828,7.757,7.6386,7.6014,7.5642,7.5202,7.5202,7.5033,7.4695,7.4289,7.3713,7.2969,7.2563,7.2225,0.0,0.0,0.0,7.1819,7.0669,6.9958,6.9519,6.8842,6.8774,6.9113,6.9113,6.9857,7.0804,0.0,0.0,0.0,0.0,0.0,0.0,0.0,0.0,0.0,0.0,0.0,0.0,0.0,0.0,0.0,0.0,0.0,0.0,0.0,0.0,0.0,0.0,0.0,4.5938,4.6119,4.9045,5.1995,5.4878,5.6964,5.866,6.0025,5.9779,5.7352,5.3003,5.0018,4.8395,0.0,0.0,0.0,0.0,4.7859,0.0,0.0,0.0,0.0,0.0,0.0,0.0,0.0,4.6826,4.713,4.706,4.52,0.0,0.0,0.0,0.0,0.0,4.4852,4.5568,4.6109,4.5635,4.4959,4.4412,4.4276,4.3602,4.2817,4.2257,4.2091,4.253,4.4035,4.3666,4.4251,4.7672,4.9702,5.4803,6.6068,7.0669,7.5236,8.1494,8.2441,8.2678,8.2983,8.2441,8.1765,8.1021,7.9701,7.8619,7.7874,7.7232,7.6487,7.5574,7.4931,7.4492,7.4289,7.439,7.4119,7.3477,7.3375,7.3003,7.2394,7.2293,7.1819,7.1142,0.0,0.0,7.0939,7.0161,6.9823,6.9688,6.8301,6.8233,6.8842,6.8166,6.8808,7.007,0.0,0.0,0.0,0.0,0.0,0.0,0.0,0.0,0.0,0.0,0.0,0.0,0.0,0.0,0.0,0.0,0.0,0.0,0.0,0.0,0.0,0.0,4.5205,4.628,4.7627,4.9487,5.1441,5.3507,5.7567,5.9774,6.029,6.2015,5.9583,5.3713,5.2467,5.0707,4.8728,0.0,0.0,4.8728,4.8728,0.0,0.0,0.0,0.0,0.0,0.0,0.0,0.0,4.5797,4.5803,4.5829,4.492,0.0,0.0,0.0,0.0,0.0,4.594,4.7462,4.7902,4.5365,4.4181,4.3436,4.2794,4.2535,4.2249,4.1534,4.1858,4.2894,4.5038,4.6336,4.8003,5.1076,5.5955,6.2245,7.0398,7.3646,7.6758,8.0953,8.2577,8.2644,8.0885,8.0615,8.0242,7.9498,7.8653,7.7841,7.7096,7.6961,7.6251,7.483,7.4661,7.4018,7.2766,7.3341,7.3612,7.3477,7.2868,7.2496,7.2394,7.1751,7.1075,7.0364,0.0,6.9992,6.9383,6.8571,6.8233,6.8166,6.732,6.7421,6.8064,6.7963,6.847,6.948,0.0,0.0,0.0,0.0,0.0,0.0,0.0,0.0,0.0,0.0,0.0,0.0,0.0,0.0,0.0,0.0,0.0,0.0,0.0,0.0,0.0,4.6372,4.7054,4.7938,4.918,5.118,5.3878,5.7299,6.071,6.263,6.3113,6.114,5.7691,5.3099,5.1464,5.0054,4.8873,4.8438,4.8475,4.8837,0.0,0.0,0.0,0.0,0.0,0.0,0.0,0.0,0.0,0.0,4.5767,4.5846,4.4248,0.0,0.0,0.0,0.0,0.0,4.4688,4.6075,4.6989,4.6007,4.6109,4.6041,4.4485,4.3809,4.3464,4.3098,4.3606,4.4688,4.6549,4.912,5.2706,5.8084,6.2651,6.7286,7.2293,7.4931,7.7435,8.0344,8.1663,8.19,8.0885,8.0412,7.9904,7.916,7.8044,7.7266,7.6927,7.6487,7.5743,7.4661,7.4221,7.3477,7.2428,7.2326,7.2326,7.2326,7.1988,7.1819,7.1785,7.1447,7.0906,7.0195,0.0,6.9755,6.9079,6.8707,6.8538,6.847,6.7692,6.7861,6.8605,6.8977,6.9113,6.9292,0.0,0.0,0.0,0.0,0.0,0.0,0.0,0.0,0.0,0.0,0.0,0.0,0.0,0.0,0.0,0.0,0.0,0.0,0.0,0.0,4.5195,4.7134,4.8338,4.9942,5.2064,5.4119,5.7322,6.1704,6.4635,6.6265,6.662,6.1443,5.7018,5.3271,5.0933,4.9524,4.8837,4.8221,4.833,4.8837,0.0,0.0,0.0,0.0,0.0,0.0,0.0,0.0,0.0,0.0,0.0,0.0,0.0,0.0,0.0,4.2227,4.2252,4.3267,4.3781,4.4925,4.6075,4.665,4.753,4.8003,4.7192,4.6413,4.6036,4.6578,4.7124,4.7868,4.8987,5.2706,5.7746,6.4309,6.8199,7.1413,7.439,7.6589,7.8619,8.0479,8.1054,8.1224,8.1054,8.004,7.9194,7.8653,7.7367,7.6623,7.6623,7.5879,7.51,7.439,7.3443,7.2631,7.1887,7.1142,7.0872,7.1041,7.1041,7.0973,7.0804,7.0804,7.0364,6.9654,6.9654,6.9248,6.8571,6.8741,6.8707,6.8538,6.8064,6.8166,6.8673,6.9586,6.9586,6.9282,0.0,0.0,0.0,0.0,0.0,0.0,0.0,0.0,0.0,0.0,0.0,0.0,0.0,0.0,0.0,0.0,0.0,0.0,0.0,0.0,4.4534,4.4913,4.7627,5.1799,5.7695,5.8709,6.0918,6.4445,6.883,7.0621,6.9872,6.574,6.0927,5.5655,5.33,5.0995,4.8909,4.8837,4.8837,4.8873,4.8837,0.0,0.0,0.0,0.0,0.0,0.0,0.0,0.0,0.0,0.0,0.0,0.0,0.0,4.3182,4.2464,4.2286,4.2828,4.4959,4.6109,4.6718,4.6786,4.638,4.6786,5.0035,5.0236,5.0304,5.2435,5.2909,5.2976,5.3078,5.7848,6.3057,6.7015,7.1345,7.527,7.828,8.0006,8.1291,8.2137,8.1663,8.1021,8.0344,7.8382,7.713,7.7063,7.6284,7.5777,7.5777,7.51,7.4356,7.3578,7.2191,7.1109,7.0364,6.962,6.9586,7.0263,7.0263,6.9925,6.9248,6.9248,6.8808,6.8064,6.8064,6.7658,6.7015,6.7692,6.759,6.7049,6.7658,6.7523,6.7151,6.8639,6.9147,6.9214,0.0,0.0,0.0,0.0,0.0,0.0,0.0,0.0,0.0,0.0,0.0,0.0,0.0,0.0,0.0,0.0,0.0,0.0,0.0,0.0,4.471,4.6798,4.8092,5.1457,5.729,5.9834,6.3621,6.8788,7.0558,7.1078,7.0213,6.3703,5.8988,5.5812,5.1973,5.0307,5.0307,4.8786,4.8749,4.951,4.8025,4.6757,0.0,0.0,0.0,0.0,0.0,0.0,0.0,0.0,4.3307,4.3459,4.2404,4.284,4.3519,4.2064,4.1948,4.2489,4.3335,4.4823,4.6244,4.6684,4.7597,4.9052,5.1352,5.3112,5.4769,5.6562,5.8051,5.9167,5.9641,6.1941,6.5155,6.935,7.3409,7.6758,7.8822,8.0378,8.1054,8.0445,8.0513,8.0141,7.8957,7.7671,7.6893,7.6893,7.5743,7.5033,7.5033,7.4322,7.3375,7.2191,7.1616,7.0737,6.9519,6.9248,6.8977,6.8774,6.9282,6.9383,6.9113,6.9113,6.8944,6.8639,6.8639,6.8504,6.8267,6.8538,6.847,6.8267,6.8538,6.847,6.8368,6.9383,6.9755,6.9891,0.0,0.0,0.0,0.0,0.0,0.0,0.0,0.0,0.0,0.0,0.0,0.0,0.0,0.0,0.0,0.0,0.0,0.0,4.2995,4.3528,4.4692,4.6495,4.7904,5.0732,5.5292,5.9317,6.4318,7.0319,7.1333,7.0732,6.8503,6.2169,5.8376,5.6706,5.2378,5.1174,5.2263,4.9681,4.8806,4.8973,4.7017,4.5647,0.0,0.0,0.0,0.0,0.0,0.0,0.0,0.0,4.2831,4.2754,4.2252,4.2792,4.3433,4.2528,4.2286,4.2286,4.2286,4.3436,4.4857,4.5838,4.8274,5.1217,5.4093,5.6562,5.8998,6.1637,6.2482,6.2956,6.3734,6.4647,6.6542,7.0331,7.4492,7.7671,7.8957,8.0175,8.0479,7.9261,7.9329,7.9025,7.7773,7.6961,7.642,7.6183,7.5202,7.4424,7.395,7.3206,7.2225,7.1007,7.05,6.9755,6.8741,6.8504,6.8098,6.7557,6.8132,6.8368,6.8368,6.8368,6.8368,6.8368,6.8368,6.8504,6.8707,6.8707,6.8707,6.8741,6.9011,6.8944,6.8876,7.0094,7.0398,7.0297,0.0,0.0,0.0,0.0,0.0,0.0,0.0,0.0,0.0,0.0,0.0,0.0,0.0,0.0,0.0,0.0,0.0,0.0,4.256,4.4027,4.4316,4.3044,4.6781,4.9909,5.2197,5.7374,6.2719,6.8186,7.1171,6.9906,6.4698,6.2145,6.0211,5.8609,5.5294,5.4225,5.4701,5.1754,4.9139,4.6923,4.6034,4.4763,4.3435,0.0,0.0,0.0,0.0,0.0,0.0,0.0,4.1789,4.112,4.2853,4.2895,4.2625,4.4141,4.3504,4.232,4.2286,4.232,4.2692,4.4276,4.797,5.2841,5.8795,6.0757,6.2821,6.8064,6.617,6.3802,6.4512,6.5865,6.759,6.9823,7.4559,7.8247,7.8991,7.9701,7.9904,7.9194,7.8416,7.7671,7.6961,7.6149,7.5405,7.4661,7.4593,7.395,7.2462,7.1684,7.0939,7.0195,6.8707,6.7895,6.7895,6.7184,6.6812,6.6812,6.6812,6.6812,6.6812,6.6812,6.6812,6.6812,6.6812,6.7252,6.7895,6.7895,6.7929,6.7996,6.8808,6.8605,6.8199,7.0466,7.0838,7.0297,0.0,0.0,0.0,0.0,0.0,0.0,0.0,0.0,0.0,0.0,0.0,0.0,0.0,0.0,0.0,0.0,0.0,0.0,4.2613,4.32,4.3482,4.328,4.5024,4.6578,4.7781,5.2807,5.9141,6.6577,6.7364,6.561,6.1527,5.8983,5.7499,5.6981,5.5319,5.4066,5.3096,5.1076,4.9274,4.7663,4.6248,4.4884,4.3623,0.0,0.0,0.0,0.0,0.0,0.0,0.0,0.0,0.0,4.2549,4.3683,4.4451,4.3301,4.3775,4.435,4.2726,4.347,4.5162,4.7192,5.1826,5.7205,6.2144,6.3835,6.5865,7.1109,6.9654,6.7658,6.8402,6.8876,6.9586,7.077,7.4018,7.6657,7.7435,7.8179,7.8382,7.7638,7.7367,7.6724,7.5405,7.554,7.4965,7.3206,7.3071,7.2428,7.0906,7.0161,6.9383,6.8605,6.8132,6.7658,6.7151,6.6914,6.6812,6.6812,6.6812,6.6812,6.6812,6.6812,6.7083,6.7557,6.7557,6.803,6.8741,6.8741,6.9045,6.9485,6.9214,6.9586,7.0331,7.0466,7.0398,7.0297,0.0,0.0,0.0,0.0,0.0,0.0,0.0,0.0,0.0,0.0,4.176,4.245,0.0,0.0,0.0,0.0,0.0,0.0,0.0,4.3279,4.3699,4.3602,4.4471,4.5697,4.716,5.1925,5.6097,5.9629,6.1576,6.0799,5.7543,5.7798,5.8022,5.8325,5.9254,5.8039,5.523,5.3747,5.1215,4.8114,4.6826,4.5527,4.4345,0.0,0.0,0.0,0.0,0.0,0.0,0.0,0.0,0.0,4.1933,4.2886,4.3775,4.2963,4.3301,4.3809,4.3335,4.4418,4.6515,4.9932,5.4803,6.025,6.5967,6.8301,7.0195,7.3646,7.2022,7.0297,7.1312,7.1007,7.0973,7.2022,7.4424,7.6352,7.6826,7.7266,7.7401,7.6961,7.6623,7.6048,7.5134,7.5168,7.4458,7.2529,7.2124,7.1176,6.9383,6.8842,6.8267,6.7489,6.7455,6.7252,6.6812,6.6812,6.6677,6.6373,6.6677,6.6643,6.6373,6.6677,6.7049,6.7489,6.776,6.7996,6.8233,6.8504,6.8707,6.8876,6.9045,6.9451,7.0026,7.0466,7.0432,7.0297,0.0,0.0,3.8596,3.8596,0.0,0.0,0.0,0.0,0.0,0.0,4.1701,4.2216,0.0,0.0,0.0,0.0,0.0,0.0,0.0,0.0,4.4485,4.3947,4.4814,4.6486,4.9029,5.2907,5.3213,4.9796,5.4972,5.6021,5.3281,5.7848,6.0396,6.1293,6.4882,6.3815,5.9229,5.7644,5.3593,4.8135,4.7417,4.6334,4.5129,4.5257,0.0,0.0,0.0,0.0,0.0,0.0,0.0,0.0,4.1214,4.1349,4.1644,4.2861,4.2455,4.2049,4.4141,4.5399,4.7394,5.2773,5.7679,6.3057,7.0128,7.3274,7.4864,7.5473,7.351,7.2124,7.3443,7.2597,7.2157,7.3477,7.5439,7.6792,7.6792,7.6792,7.6792,7.6792,7.6149,7.5676,7.5608,7.4931,7.3883,7.2326,7.1515,7.0128,6.7929,6.7793,6.7455,6.6745,6.6711,6.6677,6.6609,6.6609,6.6271,6.5595,6.6271,6.6271,6.5628,6.644,6.6812,6.6846,6.7523,6.7421,6.688,6.7523,6.7455,6.7049,6.8368,6.8538,6.8267,7.0364,7.0635,7.0094,0.0,0.0,3.7756,3.7756,0.0,0.0,0.0,0.0,0.0,0.0,0.0,0.0,0.0,0.0,0.0,0.0,0.0,0.0,0.0,0.0,4.4066,4.4199,4.5302,4.6624,4.8135,4.8511,4.8308,4.7496,5.2164,5.3213,5.0947,5.6596,5.9373,5.9736,6.2264,6.1062,5.6957,5.3641,5.0149,4.6737,4.6537,4.5423,4.3763,4.3218,4.2558,0.0,0.0,0.0,0.0,0.0,0.0,0.0,4.2091,4.2593,4.2733,4.1948,4.3132,4.4857,4.5331,4.7259,5.0676,5.7103,6.4275,7.0635,7.3984,7.5134,7.5337,7.4931,7.4796,7.4864,7.5168,7.4965,7.4864,7.5168,7.5642,7.5946,7.5946,7.5946,7.5946,7.5946,7.5811,7.5473,7.4897,7.4153,7.2868,7.0804,6.9992,6.8842,6.7151,6.7049,6.6711,6.5967,6.5933,6.5662,6.5087,6.5087,6.4986,0.0,6.4986,6.4986,6.4884,6.6203,6.6812,6.6812,6.6981,6.6948,6.6812,6.6981,6.7286,6.7658,6.7387,6.7929,6.891,6.9383,6.9079,6.8571,0.0,0.0,0.0,0.0,0.0,0.0,0.0,0.0,0.0,0.0,0.0,0.0,0.0,4.1578,0.0,0.0,4.2156,4.2614,4.2773,4.3786,4.4604,4.5135,4.6054,4.6674,4.6941,4.6849,4.6447,4.5766,4.8443,5.0067,5.0744,5.531,5.8033,5.9213,6.1911,6.0107,5.4902,5.3406,5.0586,4.713,4.7019,4.6055,4.4529,4.3966,4.2817,4.1492,4.0982,0.0,0.0,0.0,0.0,0.0,0.0,0.0,4.2074,4.1656,4.2893,4.4709,4.6175,4.9067,5.3754,6.2279,6.8707,7.3409,7.527,7.5709,7.5574,7.5202,7.5439,7.5709,7.5709,7.5709,7.5709,7.5709,7.5709,7.5709,7.5709,7.5709,7.5574,7.5236,7.4864,7.4356,7.3612,7.2563,7.1278,6.9789,6.8944,6.803,6.688,6.6474,6.6102,6.5696,6.5358,6.4986,6.4613,6.4613,6.441,6.4106,6.4444,6.4613,6.4647,6.5392,6.5764,6.5764,6.6136,6.6271,6.6305,6.6677,6.7049,6.7387,6.7354,6.7624,6.8098,6.8842,6.8842,6.8639,0.0,0.0,0.0,0.0,0.0,0.0,0.0,0.0,0.0,0.0,0.0,0.0,0.0,4.0894,4.0871,0.0,0.0,0.0,4.2885,4.4221,4.5337,4.6032,4.6533,4.6617,4.6248,4.6472,4.6143,4.5162,4.5635,4.7902,5.186,5.46,5.7036,5.9174,6.1764,5.9459,5.3675,5.3725,5.1368,4.7621,4.7349,4.6687,4.5759,4.4925,4.3313,4.1478,4.1003,4.1047,4.1343,4.1116,0.0,0.0,0.0,0.0,4.094,4.1526,4.2186,4.3383,4.6605,5.1188,5.7239,6.6406,7.1041,7.368,7.5168,7.5506,7.554,7.5676,7.5709,7.5709,7.5709,7.5709,7.5709,7.5709,7.5574,7.5506,7.5506,7.5303,7.4897,7.4289,7.3578,7.2868,7.2259,7.0872,6.9755,6.9147,6.8132,6.7252,6.6643,6.5899,6.5392,6.5121,6.4647,6.4275,6.4038,6.4174,6.3903,6.3328,6.3937,6.414,6.4038,6.4174,6.4377,6.4647,6.5358,6.5696,6.5764,6.6508,6.6812,6.688,6.7489,6.7354,6.6981,6.8368,6.8876,6.9011,0.0,0.0,0.0,0.0,0.0,0.0,0.0,0.0,0.0,0.0,4.0411,4.0894,4.0894,4.0894,4.0847,4.0762,4.1469,4.2174,4.2698,0.0,0.0,4.5892,4.6,4.6525,4.7627,4.6447,4.638,4.7462,4.6921,4.9221,5.416,5.5886,5.7618,5.9327,5.9096,5.7397,5.4535,5.0697,4.7989,4.6095,4.5341,4.5268,4.5372,4.2765,4.2202,4.2684,4.1295,4.0849,4.1036,4.176,4.1782,0.0,0.0,0.0,4.0836,4.0905,4.1184,4.2328,4.6385,5.4224,6.2144,6.6136,6.9857,7.2935,7.4424,7.4762,7.4931,7.5574,7.5709,7.5709,7.5709,7.5709,7.5709,7.5709,7.5168,7.4762,7.4762,7.3646,7.28,7.2699,7.2056,7.1582,7.1481,7.0128,6.9214,6.9113,6.7151,6.5933,6.5831,6.5155,6.414,6.2854,6.3362,6.3057,6.1738,6.2381,6.2618,6.255,6.2651,6.2347,6.1772,6.2381,6.3396,6.4647,6.5358,6.5696,6.5764,6.6508,6.6812,6.6812,6.6914,6.6914,6.6914,6.776,6.8064,6.8166,0.0,0.0,0.0,0.0,0.0,0.0,0.0,0.0,0.0,0.0,0.0,4.068,4.068,4.068,4.0655,4.0583,4.1569,4.2636,4.3695,4.4402,4.506,4.5755,4.5411,4.5625,4.665,4.5635,4.5399,4.6041,4.6143,4.8849,5.4025,5.5513,5.7241,5.9078,5.7148,5.5075,5.2788,4.9189,4.701,4.5941,4.5077,4.4379,4.3691,4.2343,4.1835,4.1723,4.1043,0.0,4.1652,4.2035,4.2056,4.1888,4.1888,0.0,0.0,0.0,4.1678,4.3492,4.9282,5.4669,5.9979,6.5459,6.8707,7.1041,7.2935,7.368,7.4086,7.439,7.4458,7.4593,7.4999,7.4762,7.4458,7.4458,7.4187,7.3984,7.3984,7.3071,7.2259,7.1853,7.077,6.9891,6.9451,6.8436,6.7658,6.7218,6.6271,6.5493,6.5121,6.3971,6.3057,6.2415,6.1873,6.1298,6.0622,6.096,6.1095,6.1129,6.1569,6.1603,6.1332,6.2042,6.299,6.4005,6.4343,6.4918,6.573,6.6034,6.644,6.6812,6.6812,6.6812,6.6846,6.7184,6.7827,6.8605,0.0,0.0,0.0,0.0,0.0,0.0,0.0,0.0,0.0,0.0,0.0,4.0578,4.0783,0.0,0.0,0.0,4.1801,4.2996,4.4242,4.4513,4.4722,4.5094,4.4756,4.4886,4.5399,4.4857,4.4716,4.4857,4.5805,4.912,5.4634,5.5953,5.8152,6.0858,5.7584,5.4635,5.1883,4.9559,4.8046,4.7119,4.5443,4.4068,4.2911,4.2079,4.1494,4.1112,4.0968,0.0,0.0,0.0,0.0,4.2846,4.2669,4.2306,0.0,0.0,0.0,4.4294,4.9542,5.2706,5.6089,6.2415,6.5696,6.8132,7.0906,7.2124,7.2766,7.3138,7.3071,7.3037,7.3409,7.3341,7.3206,7.3206,7.2902,7.2631,7.2631,7.1853,7.1041,7.05,6.9316,6.8199,6.7421,6.6846,6.6136,6.5222,6.4952,6.4546,6.3802,6.2516,6.1738,6.1535,6.0588,6.0013,5.981,6.0013,6.0013,5.9844,6.0825,6.1197,6.1028,6.1975,6.2787,6.3531,6.3531,6.4241,6.5425,6.5595,6.6136,6.6812,6.6812,6.6812,6.6812,6.6812,6.7658,6.8808,0.0,0.0,0.0,0.0,0.0,0.0,0.0,0.0,0.0,0.0,0.0,4.0783,4.1451,4.0929,4.0734,4.1299,4.2056,4.2758,4.3436,4.4181,4.4282,4.3544,4.4215,0.0,4.4682,4.4615,4.4925,4.5635,4.706,5.1183,5.7679,5.849,6.1535,6.6203,6.1772,5.748,5.3548,5.2665,5.1571,5.0059,4.6294,4.459,4.4007,4.1248,4.0939,0.0,0.0,0.0,0.0,0.0,0.0,0.0,0.0,4.3478,4.3158,0.0,0.0,0.0,4.3878,4.7601,5.2199,5.548,5.9539,6.3869,6.8267,6.9823,7.077,7.2157,7.1921,7.121,7.0534,7.1548,7.2462,7.2462,7.1278,7.0364,7.0364,6.9079,6.8132,6.8098,6.7387,6.6643,6.5865,6.5764,6.5155,6.3734,6.2956,6.2245,6.1501,6.0689,5.9911,5.9201,5.9776,5.9776,5.9066,5.9742,5.9742,5.9099,6.0588,6.0892,6.0216,6.1704,6.2787,6.3531,6.3531,6.3937,6.4715,6.5392,6.6136,6.6812,6.6812,6.6812,6.6812,6.6812,6.7286,6.8064,0.0,0.0,0.0,0.0,0.0,0.0,0.0,0.0,0.0,0.0,0.0,0.0,0.0,4.18,4.174,4.1959,4.2644,4.3389,4.4113,4.4445,4.4479,4.4181,4.4445,4.4615,4.4615,4.4615,4.475,4.4993,4.55,4.8477,5.3653,5.5378,5.7679,6.0351,5.9201,5.7579,5.5414,5.1315,4.9314,4.8629,4.5818,4.43,4.3583,4.2087,0.0,0.0,0.0,0.0,0.0,0.0,0.0,0.0,0.0,0.0,0.0,4.2594,4.2102,4.2295,4.3802,4.5614,4.8094,5.2502,5.6224,5.9607,6.2618,6.5392,6.7455,6.7963,6.8267,6.8335,6.8064,6.9248,7.0297,7.0297,6.9823,6.9485,6.9485,6.8571,6.7895,6.7895,6.6812,6.5967,6.573,6.5256,6.458,6.3599,6.326,6.2787,6.2042,6.1264,6.052,5.9742,5.9505,5.9032,5.8287,5.8558,5.8558,5.8321,5.9336,5.9911,6.0148,6.1197,6.211,6.2787,6.2787,6.3463,6.458,6.4377,6.4986,6.6102,6.6102,6.6373,6.6812,6.6812,6.7286,6.803,0.0,0.0,0.0,0.0,0.0,4.0046,0.0,0.0,0.0,0.0,0.0,0.0,0.0,0.0,4.2427,4.2696,4.2735,4.3075,4.3804,4.4102,4.422,4.4215,4.4479,4.4615,4.4615,4.4615,4.4615,4.4615,4.5122,4.7327,5.1219,5.3518,5.5649,5.7543,5.7273,5.7306,5.7306,5.3585,5.1285,4.9932,4.7158,4.5297,4.4181,0.0,0.0,0.0,0.0,0.0,0.0,0.0,0.0,0.0,0.0,0.0,0.0,0.0,4.2184,4.2252,4.3295,4.4136,4.5909,5.0839,5.3314,5.5513,5.9235,6.1637,6.3362,6.4377,6.5189,6.5797,6.6034,6.6914,6.7658,6.7929,6.7963,6.7963,6.7963,6.7726,6.7455,6.7184,6.6271,6.5493,6.5019,6.4512,6.3734,6.2448,6.2618,0.0,6.096,6.0655,6.0182,5.937,5.8896,5.8389,5.7881,5.7881,5.7881,5.7915,5.866,5.9268,5.9776,6.0554,6.1298,6.2009,6.2009,6.2854,6.4208,6.37,6.4377,6.5696,6.5696,6.6136,6.6812,6.6812,6.7117,6.7692,0.0,3.8678,3.9569,3.9462,4.0134,4.0649,4.0649,0.0,0.0,0.0,0.0,0.0,0.0,0.0,0.0,4.3502,4.2372,4.1857,4.2448,4.3197,4.3589,4.3483,4.4248,4.4682,4.4682,4.4682,4.4682,4.4682,4.6075,4.8274,5.1151,5.3416,5.6021,5.8761,5.6664,5.69,5.893,5.9539,5.7746,5.4194,5.0473,4.7733,4.6007,0.0,0.0,0.0,4.9018,4.9154,0.0,4.7939,0.0,0.0,0.0,0.0,0.0,0.0,0.0,4.3594,0.0,0.0,0.0,5.0181,5.0634,5.1723,5.8254,5.8693,5.8558,6.1535,6.2753,6.3531,6.4309,6.4444,6.4681,6.5425,6.5595,6.5662,6.5662,6.6271,6.6474,6.573,6.5628,6.5053,6.3666,6.3463,6.255,6.0317,6.0858,6.0317,5.8118,5.866,5.8693,5.7949,5.7915,5.7881,5.7881,5.7881,5.7881,5.7915,5.8626,5.8998,5.9032,5.9742,6.052,6.1298,6.1298,6.2144,6.3497,6.3497,6.4343,6.5662,6.5662,6.6136,6.6812,6.6812,6.6812,6.7015,3.7485,3.7524,3.7683,3.8623,3.9342,3.9844,3.9844,0.0,0.0,0.0,0.0,0.0,0.0,0.0,4.5503,4.5697,4.5865,4.5598,4.4856,4.5507,4.5866,4.5872,4.6075,4.6177,4.6177,4.6177,4.6177,4.6177,4.6583,4.7767,4.9627,5.0811,5.2638,5.504,5.5513,5.575,5.5683,5.3687,5.2875,5.2672,4.9492,4.8815,0.0,0.0,0.0,0.0,0.0,4.939,4.939,0.0,4.8937,4.9045,0.0,0.0,0.0,0.0,0.0,0.0,4.2586,0.0,0.0,0.0,0.0,0.0,5.0869,5.267,5.4397,5.6359,5.734,5.8423,6.0216,6.0554,6.0994,6.2313,6.3869,6.4884,6.4884,6.5087,6.5121,6.4918,6.4444,6.3971,6.3565,6.255,6.1873,0.0,6.1467,6.1028,6.0385,5.9505,5.893,5.8693,5.8186,5.7881,5.7881,5.7881,5.7881,5.7881,5.8084,5.849,5.9032,5.9235,6.0047,6.1298,6.1298,6.1839,6.2685,6.2685,6.3565,6.4884,6.4884,6.5696,6.6812,6.6812,6.6812,6.7015,3.7468,3.7495,3.7769,3.9123,4.0385,4.1124,4.0847,0.0,0.0,0.0,0.0,0.0,0.0,0.0,0.0,4.671,4.7074,4.6742,4.5372,4.6262,4.6851,4.6819,4.6786,4.6786,4.6786,4.6786,4.6955,4.7259,4.7259,4.7868,4.9018,4.9424,5.0338,5.1657,5.2841,5.3112,5.2604,5.0845,5.0947,5.2198,5.0811,0.0,0.0,5.1623,5.1758,0.0,0.0,0.0,5.3078,5.1454,5.0252,0.0,0.0,0.0,0.0,0.0,0.0,0.0,0.0,0.0,0.0,4.5925,0.0,0.0,4.818,4.9077,4.9965,5.1488,5.2638,5.3957,5.5852,5.7002,5.8051,5.9235,6.1028,6.2719,6.3971,6.414,6.4038,6.37,6.3024,6.2448,6.211,6.1298,6.0858,6.096,6.0858,6.0655,6.0385,5.9201,5.8558,5.8558,5.8118,5.7881,5.7881,5.7881,5.7881,5.7881,5.7881,5.8118,5.8558,5.8558,5.9201,6.0385,6.0689,6.1028,6.1501,6.211,6.3091,6.414,6.414,6.5053,6.6339,6.6339,6.6542,6.6981,0.0,3.8236,3.9,4.0474,4.2325,4.347,0.0,0.0,0.0,0.0,0.0,0.0,0.0,0.0,0.0,0.0,4.7262,4.671,4.5373,4.6517,4.7216,4.7162,4.709,4.7022,4.7022,4.7022,4.7394,4.8142,4.8142,4.8545,4.9255,0.0,0.0,0.0,4.9796,5.0033,4.9965,5.0135,5.098,5.2266,5.3145,5.3687,0.0,0.0,5.7476,5.7306,5.9167,5.9066,5.7577,5.4702,5.1758,0.0,0.0,0.0,0.0,0.0,4.6439,0.0,0.0,0.0,0.0,0.0,4.725,0.0,4.8277,4.7208,4.6109,4.7496,4.8815,5.0202,5.1758,5.3788,5.5446,5.619,5.7611,5.9671,6.2719,6.3125,6.2888,6.2212,6.1569,6.0892,6.0182,6.0047,5.9742,5.9167,5.9674,5.9708,5.9066,5.8287,5.7881,5.7881,5.7881,5.7881,5.7881,5.7881,5.7881,5.7881,5.7881,5.7881,5.7881,5.7881,5.8287,5.9066,5.9708,6.008,6.0351,6.1704,6.2719,6.3396,6.3497,6.4343,6.5561,6.5662,6.6102,6.6812,3.891,3.8785,3.9277,4.1771,4.2971,4.3932,0.0,0.0,0.0,0.0,0.0,5.0078,5.2118,0.0,0.0,0.0,5.0448,4.9848,4.909,4.9322,4.9468,4.9458,4.8883,4.8578,4.8578,4.8578,4.8917,4.9661,4.9661,5.0067,5.0745,0.0,0.0,0.0,5.0033,4.9763,4.9289,5.0507,5.115,5.1555,5.2942,5.4905,5.7036,5.7036,5.7679,5.8558,5.8389,5.8524,5.8457,5.6089,5.3281,5.0674,0.0,0.0,0.0,4.6846,0.0,0.0,0.0,0.0,0.0,0.0,0.0,0.0,4.6709,4.6175,4.594,4.6819,4.7225,4.8071,5.0135,5.1386,5.2334,5.3078,5.4972,5.7408,6.0351,6.0757,6.0723,6.0554,6.0419,6.0283,6.0114,5.9573,5.9404,5.9844,5.9471,5.9167,5.9032,5.8287,5.7881,5.7881,5.7881,5.7881,5.7881,5.7881,5.7881,5.7881,5.7881,5.7881,5.7881,5.7881,5.8287,5.9032,5.9167,5.9945,6.1095,6.14,6.1941,6.2651,6.3294,6.4038,6.4884,6.5459,6.5764,6.6102,3.9275,3.9247,3.9985,4.3063,0.0,0.0,0.0,0.0,4.8512,4.9528,5.1744,5.3221,5.3221,5.2914,0.0,0.0,0.0,0.0,0.0,0.0,5.1623,5.1217,5.0507,4.9932,4.956,4.956,4.9729,5.0101,5.0101,5.0473,5.1217,0.0,0.0,0.0,4.939,4.9154,4.8545,4.9627,5.0744,5.1961,5.4228,0.0,5.7983,5.8761,5.9742,6.0655,6.0283,5.9641,5.8727,5.6867,5.4769,0.0,0.0,4.9875,4.9192,0.0,4.808,4.7392,0.0,0.0,0.0,4.8362,0.0,0.0,0.0,4.5569,4.5026,4.4621,4.4857,4.5331,4.6075,4.7733,4.9255,4.9999,5.1691,5.3687,5.5919,5.7509,5.8457,5.8457,5.8152,5.7915,5.7915,5.7577,5.7509,5.7881,5.8254,5.8287,5.7915,5.7881,5.7881,5.7881,5.7881,5.7881,5.7881,5.7881,5.7881,5.7881,5.7881,5.7881,5.7881,5.7881,5.8084,5.8457,5.8863,5.9438,6.0216,6.0994,6.1535,6.1907,6.2651,6.3396,6.414,6.4884,6.5358,6.5865,3.9582,3.9674,4.0693,4.3833,0.0,0.0,0.0,0.0,5.0543,5.119,5.3868,5.5114,5.3652,5.3899,5.3575,0.0,0.0,0.0,0.0,0.0,5.2539,5.1866,5.1424,5.0811,4.9898,5.0033,5.0168,5.0304,5.0168,5.0405,5.098,0.0,0.0,0.0,4.8883,4.8883,4.8376,4.912,5.0642,5.2807,5.5818,5.7273,5.7949,6.0385,6.167,6.2212,6.2347,6.1129,5.9235,5.7746,5.6224,5.4567,5.2055,5.134,0.0,0.0,0.0,0.0,0.0,0.0,0.0,0.0,0.0,4.8689,0.0,0.0,0.0,4.3301,4.3436,4.3639,4.2861,4.4823,4.6752,4.7192,4.8612,5.0033,5.1082,5.3585,5.5446,5.5886,5.5277,5.504,5.5446,5.5513,5.5547,5.5716,5.6664,5.707,5.663,5.7137,5.7543,5.7679,5.7679,5.7746,5.7881,5.7881,5.7881,5.7881,5.7881,5.7881,5.7881,5.7881,5.7808,5.7695,5.8399,5.8728,5.8777,6.0153,6.0824,6.1065,6.2026,6.2753,6.3396,6.4275,6.4986,6.5628,4.0351,4.0382,4.1093,4.3347,4.4332,0.0,0.0,0.0,4.9959,5.2975,5.473,5.5838,5.6317,5.3775,5.3444,5.6852,0.0,0.0,5.6089,0.0,0.0,5.0187,5.0826,5.0574,4.9154,4.9763,5.0405,5.1082,5.0405,5.0135,0.0,0.0,0.0,0.0,4.9627,4.9932,4.9898,5.0642,5.1894,5.3619,5.6562,5.7442,0.0,6.0182,6.1366,6.1501,6.2144,6.1806,6.0791,0.0,5.778,5.6293,0.0,5.2872,5.1519,5.2936,0.0,0.0,0.0,0.0,0.0,0.0,5.1677,0.0,0.0,0.0,4.7902,4.5771,0.0,4.5229,4.4479,0.0,0.0,4.506,4.6752,4.8003,4.7496,4.8849,5.0608,5.257,5.2164,5.2503,5.4532,5.4702,5.5006,5.5683,5.5243,5.5209,5.5818,5.5919,5.6258,5.69,5.6934,5.7239,5.7881,5.7881,5.7881,5.7881,5.7881,5.7881,5.7881,5.7881,5.748,5.6762,5.7454,5.7679,5.7646,5.8385,5.9176,5.9967,6.1716,6.2448,6.2685,6.4072,6.4647,6.5019,4.0505,4.0505,4.1309,4.3778,4.4425,0.0,0.0,0.0,5.3868,5.5284,5.7346,5.8762,5.907,5.7131,5.6351,5.7755,5.4969,5.3946,0.0,0.0,0.0,0.0,0.0,0.0,5.1657,5.1894,5.1589,5.0574,5.0236,4.9864,0.0,0.0,0.0,0.0,4.912,4.9458,4.9526,5.071,5.2097,5.3721,5.6258,5.734,0.0,6.0791,6.1941,6.1975,6.2279,6.1637,6.0385,0.0,5.7949,0.0,0.0,0.0,0.0,0.0,0.0,0.0,0.0,0.0,0.0,0.0,0.0,0.0,5.0023,0.0,4.8477,0.0,0.0,0.0,0.0,0.0,0.0,0.0,4.5365,4.6041,4.6143,4.6312,4.7428,5.0067,5.0135,0.0,5.1251,5.1725,5.1928,5.1826,5.2706,5.3416,5.3721,5.46,5.5412,5.6156,5.6596,5.6934,5.7273,5.7679,5.7881,5.7881,5.7881,5.7881,5.7881,5.7881,5.7406,5.6647,5.7297,5.751,5.745,5.8119,5.9209,6.0525,6.1309,6.1595,6.1836,6.3876,6.4613,6.485,4.1058,4.0905,4.1555,4.3895,4.4332,4.5403,4.8604,5.2513,5.5485,5.6361,5.8177,5.9747,6.0701,5.9593,5.9039,5.9655,5.8194,5.6963,0.0,0.0,5.4342,0.0,0.0,0.0,0.0,0.0,5.2706,5.1014,5.0608,5.0135,0.0,0.0,0.0,0.0,0.0,5.0541,5.0676,5.2536,5.4126,5.548,5.7509,5.8761,5.9641,6.14,6.2212,6.2347,6.2178,6.1501,6.0486,5.8998,5.8626,0.0,5.6461,0.0,0.0,0.0,0.0,0.0,5.4803,0.0,0.0,0.0,0.0,0.0,0.0,0.0,0.0,0.0,0.0,0.0,0.0,0.0,0.0,0.0,0.0,4.5026,4.5365,4.4953,4.5466,4.7834,4.8443,0.0,0.0,4.9052,4.9357,4.9018,5.0304,5.1285,5.1691,5.2942,5.4194,5.5378,5.6122,5.6697,5.7103,5.7611,5.7881,5.7881,5.7881,5.7881,5.7881,5.7881,5.7406,5.6608,5.7258,5.7306,5.7099,5.7692,5.8707,5.9925,6.0337,6.0488,6.0824,6.3583,6.4715,6.5121,4.254,4.2017,4.1986,4.3408,4.3624,4.4548,4.725,4.9497,5.2052,5.5298,5.5838,5.7131,6.0424,5.9593,6.0363,6.4334,6.0445,5.8288,5.9552,0.0,5.3753,0.0,0.0,5.4055,0.0,0.0,0.0,0.0,0.0,0.0,0.0,0.0,0.0,0.0,5.3416,5.4397,5.46,5.7543,5.9201,6.0013,6.1569,6.2651,6.3193,0.0,6.1772,6.2313,6.1603,0.0,0.0,6.0554,6.0554,0.0,0.0,0.0,0.0,0.0,0.0,0.0,0.0,0.0,0.0,5.5108,0.0,0.0,0.0,0.0,5.2503,0.0,0.0,0.0,0.0,0.0,0.0,0.0,0.0,0.0,0.0,4.4615,4.4919,4.5703,4.709,4.7665,0.0,4.753,4.8274,0.0,4.8379,4.868,5.0067,5.0913,5.2334,5.4566,5.5344,5.6427,5.7848,5.7881,5.7881,5.7881,5.7881,5.7881,5.7881,5.7881,5.7406,5.6603,5.7102,5.683,5.6068,5.6637,5.6875,5.7112,5.8656,5.9238,5.9706,6.3291,6.5053,6.5865,4.3741,4.3741,4.371,4.4209,4.4641,4.5988,4.9158,5.2113,5.5376,5.9255,6.1317,6.3903,6.7781,6.7781,6.7689,6.815,6.5534,6.3256,6.1871,5.8907,0.0,0.0,0.0,5.6275,0.0,0.0,0.0,0.0,0.0,0.0,0.0,0.0,0.0,0.0,0.0,5.3653,5.4735,5.7239,5.8693,5.9573,6.1569,6.3429,6.4749,0.0,6.2178,6.2347,6.211,6.1873,0.0,6.1061,6.0723,6.0419,5.9911,5.9235,5.8592,5.8355,5.8254,0.0,0.0,0.0,5.937,5.6156,0.0,0.0,0.0,0.0,0.0,0.0,0.0,0.0,0.0,0.0,0.0,0.0,0.0,0.0,0.0,4.4615,4.4716,4.4925,4.5399,4.5602,4.5393,0.0,0.0,0.0,4.5568,0.0,4.7834,4.9526,5.1522,5.3788,5.5074,5.619,5.7171,5.7645,5.7881,5.7881,5.7881,5.7881,5.7881,5.7881,5.7406,5.6641,5.7745,5.7753,5.7002,5.8167,5.9011,5.9696,6.0717,6.1786,6.2875,6.3981,6.4467,6.5053,4.5126,4.5495,4.5588,4.5341,4.6049,4.7496,4.9959,5.3806,5.7715,6.1348,6.4611,6.7997,7.1598,7.2183,7.1967,7.1075,6.9813,6.7289,6.3102,6.1686,0.0,5.8012,5.8183,0.0,0.0,0.0,0.0,0.0,0.0,5.4025,0.0,0.0,0.0,0.0,0.0,5.4938,5.5581,5.8896,6.0025,5.9856,6.1608,6.3357,0.0,0.0,6.2888,6.3429,0.0,6.1873,6.1637,6.14,6.1129,6.0858,6.0622,6.0216,5.9708,5.9167,5.9404,5.9607,5.8558,5.9539,0.0,5.7881,5.7408,0.0,5.4465,0.0,0.0,0.0,0.0,0.0,0.0,0.0,0.0,0.0,0.0,0.0,0.0,4.4615,4.4615,4.4615,4.4615,4.4513,4.4181,4.3944,0.0,0.0,0.0,0.0,0.0,4.8511,5.0879,5.3416,5.4938,5.619,5.7171,5.7645,5.7881,5.7881,5.7881,5.7881,5.7881,5.7881,5.7759,5.7501,5.8316,5.8535,5.8367,5.9231,5.9968,6.0548,6.1153,6.2103,6.3163,6.4314,6.5077,6.5898,4.6634,4.7219,4.7496,4.685,4.7865,4.9004,4.9774,5.4422,5.8885,6.1686,6.5626,6.9228,7.2029,7.286,7.3229,7.3229,7.3137,7.0305,6.3749,6.5596,0.0,0.0,5.8825,5.9361,5.7474,0.0,0.0,0.0,0.0,0.0,0.0,0.0,0.0,0.0,5.7645,5.8118,5.7137,6.2212,6.3079,6.1053,6.1824,6.269,6.3451,6.2685,6.3768,6.529,6.2381,6.1806,6.2279,6.1603,6.1806,6.2279,6.1569,6.1332,6.1028,5.9539,6.0148,6.0994,5.9539,5.9674,6.0182,6.0114,0.0,0.0,0.0,0.0,5.5141,0.0,0.0,0.0,0.0,0.0,0.0,0.0,0.0,0.0,0.0,0.0,4.4649,4.4615,4.4581,4.4248,4.3538,4.4079,0.0,0.0,0.0,0.0,0.0,4.7733,5.0338,5.3416,5.4905,5.6393,5.7881,5.7881,5.7881,5.7881,5.7881,5.7881,5.7881,5.7881,5.8287,5.8991,5.8785,5.9157,5.9952,5.975,5.9696,5.9737,6.0198,6.044,6.0867,6.4328,6.6584,6.8166,4.725,4.8327,4.9097,4.8912,5.002,5.1313,5.2513,5.6423,6.0794,6.5042,6.9166,7.3106,7.6862,7.6954,7.6739,7.6739,7.5353,0.0,0.0,0.0,0.0,6.4149,6.2964,6.1923,6.0883,6.0098,0.0,5.783,0.0,0.0,5.6528,0.0,0.0,0.0,5.6799,5.7171,5.7002,5.9979,6.1165,6.1053,6.1824,6.2879,6.3976,0.0,6.3768,6.5392,6.2956,6.2245,6.2347,6.2178,6.2245,6.2347,6.2178,6.1738,6.1231,6.0825,6.0994,6.1231,6.0825,6.1264,6.1535,6.0385,5.9268,5.8152,0.0,0.0,0.0,0.0,0.0,0.0,0.0,0.0,0.0,0.0,0.0,0.0,0.0,0.0,0.0,4.4682,4.4079,4.3876,4.4248,4.3436,4.2726,0.0,0.0,0.0,4.479,0.0,4.983,5.3382,5.4397,5.5852,5.7881,5.7881,5.7881,5.7881,5.7881,5.7881,5.7881,5.7881,5.8287,5.8991,5.8785,5.9551,6.0936,6.0488,6.075,6.1488,6.2715,6.351,6.3989,6.3914,6.6009,6.8823,4.8389,5.0112,5.1344,5.1067,5.3345,5.5284,5.5468,5.7931,6.1502,6.6304,7.0459,7.3968,7.6585,7.757,7.8031,7.8031,7.6431,0.0,7.2214,0.0,0.0,6.6981,6.5002,6.3485,6.2494,6.0294,0.0,5.8144,0.0,0.0,5.7273,0.0,0.0,0.0,5.6934,5.6889,5.6322,5.7721,5.9911,6.2259,6.0925,6.1338,0.0,6.2032,6.2528,6.3549,6.2701,6.2381,6.2381,6.2381,6.2381,6.2381,6.2381,6.211,6.1772,6.1772,6.1772,6.1772,6.1772,6.1839,6.1704,6.0858,5.981,5.8727,5.7543,5.7036,5.6461,0.0,0.0,0.0,0.0,0.0,0.0,0.0,0.0,0.0,0.0,0.0,0.0,4.5602,4.4891,4.4587,4.5026,4.3369,4.2286,0.0,0.0,0.0,0.0,0.0,4.9661,5.2435,5.4499,5.6156,5.7408,5.8389,5.8524,5.7881,5.7881,5.8051,5.8389,5.8389,5.8998,6.0009,5.9452,6.0137,6.1602,6.1334,6.1731,6.26,6.3759,6.4619,6.5246,6.4675,6.6137,6.8562,4.9682,5.1929,5.3498,5.2821,5.6638,5.9562,5.8947,6.0147,6.2671,6.7012,7.1044,7.3783,7.4461,7.6554,7.7939,7.8031,7.68,7.4707,7.1629,7.1783,7.0613,6.7566,6.5965,6.4592,6.3275,5.9333,0.0,0.0,0.0,0.0,0.0,5.7735,5.7398,5.6824,5.7575,5.7036,5.5671,5.5911,5.8824,6.2979,5.9663,5.9238,6.0635,6.0972,6.1169,6.1309,6.211,6.2381,6.2381,6.2381,6.2381,6.2381,6.2381,6.2381,6.2381,6.2279,6.2245,6.2245,6.2245,6.1704,6.1163,6.1264,6.0148,5.8829,5.8186,5.7476,5.6765,5.6122,5.4735,5.3416,0.0,0.0,0.0,0.0,0.0,0.0,0.0,0.0,0.0,0.0,4.6143,0.0,4.5703,4.3741,4.2422,0.0,0.0,0.0,0.0,0.0,4.9492,5.1151,5.4566,5.6596,5.707,5.8896,5.9268,5.8186,5.7983,5.8287,5.9032,5.9032,5.9844,6.126,6.0324,6.073,6.2031,6.2028,6.259,6.3428,6.409,6.4796,6.5535,6.6115,6.694,6.8061,5.0482,5.2236,5.3498,5.2821,5.6638,6.0855,6.3995,6.655,6.8828,7.0828,7.4153,7.6554,7.7262,7.7262,7.7416,7.797,7.68,0.0,0.0,0.0,0.0,7.0244,6.7873,6.5929,6.4583,6.072,5.8479,0.0,0.0,0.0,0.0,0.0,5.6739,5.6678,5.752,5.7338,5.6398,5.6135,5.686,5.8273,5.881,5.9653,6.07,6.1488,6.1965,6.2183,6.2341,6.2381,6.2381,6.2381,6.2381,6.2381,6.2381,6.2381,6.2279,6.167,6.1501,6.1501,6.1501,6.0926,6.0486,6.1129,6.0148,5.8998,5.8863,5.8254,5.7645,5.7543,5.5852,5.4363,5.4228,0.0,0.0,0.0,0.0,0.0,0.0,0.0,0.0,0.0,0.0,4.5703,0.0,4.4215,4.3206,4.3206,0.0,0.0,0.0,0.0,4.8409,0.0,5.3078,0.0,0.0,0.0,5.8761,5.9708,5.8457,5.8287,5.9032,5.9032,5.9844,6.126,6.0324,6.0832,6.2293,6.1928,6.2998,6.4929,6.5061,6.5558,6.641,6.7971,6.8538,6.8633,5.2267,5.3899,5.5407,5.5807,6.0086,6.4518,6.7504,7.0859,7.2798,7.206,7.3383,7.4645,7.5323,7.6369,7.7293,7.797,7.7108,7.6092,7.5076,7.3414,7.2029,7.0952,6.8674,0.0,6.5442,6.1164,5.9013,5.9113,0.0,0.0,0.0,0.0,5.6711,5.7177,5.7144,5.7298,5.7568,5.598,0.0,5.8702,5.856,5.8952,5.9791,6.0874,6.1149,6.1069,6.203,6.2381,6.2381,6.2381,6.2381,6.2381,6.2381,6.2381,6.2245,6.1535,6.1569,6.1772,6.14,6.0723,6.0182,6.0588,5.9539,5.8423,5.8423,5.8152,5.7881,5.7881,5.6731,5.5378,5.4228,5.2198,0.0,0.0,0.0,0.0,0.0,0.0,4.8206,0.0,0.0,0.0,0.0,0.0,4.4451,4.4045,4.4012,0.0,0.0,0.0,4.8206,0.0,0.0,0.0,5.7273,0.0,0.0,5.9539,5.8829,5.9099,6.0182,6.0182,6.0825,6.1834,6.0858,6.1368,6.2791,6.3331,6.4575,6.6062,6.6062,6.6541,6.7322,6.8601,6.9254,6.9602,5.4699,5.633,5.8134,5.9593,6.4241,6.8304,6.9874,7.3599,7.5446,7.3322,7.3045,7.326,7.3783,7.5754,7.7231,7.7754,7.72,7.6277,7.5076,7.3599,7.2214,7.0952,6.8982,6.7289,6.5934,6.1379,5.9222,0.0,0.0,0.0,0.0,0.0,0.0,5.7357,5.6307,5.6573,0.0,0.0,5.6559,5.9458,5.8487,5.8545,5.934,6.0444,6.0598,6.0397,6.187,6.2381,6.2381,6.2381,6.2381,6.2381,6.2381,6.2381,6.2245,6.1535,6.1704,6.2042,6.1467,6.0723,6.0114,6.0114,5.9099,5.8084,5.7915,5.7881,5.7881,5.7881,5.7171,5.5987,5.4093,5.2469,0.0,0.0,0.0,0.0,0.0,0.0,0.0,0.0,0.0,0.0,4.6616,0.0,4.5805,4.4919,0.0,0.0,4.4852,0.0,0.0,0.0,0.0,5.548,5.5953,0.0,5.9742,5.9505,5.9336,5.9979,6.1298,6.1298,6.1772,6.2578,6.1829,6.2341,6.3729,6.5103,6.6105,6.6846,6.7184,6.7658,6.8233,6.9045,6.9891,7.0737,5.7931,5.9439,6.104,6.301,6.7319,7.0582,7.0767,7.4307,7.6831,7.6585,7.6554,7.6585,7.6646,7.6862,7.7046,7.7108,7.6492,7.5784,7.5046,7.3168,7.1721,7.0952,6.8982,6.7289,6.5934,6.184,5.9151,0.0,0.0,0.0,0.0,0.0,0.0,0.0,0.0,0.0,0.0,5.4868,5.5639,5.7219,5.8561,5.9627,6.0528,6.1523,6.1983,6.2183,6.2341,6.2381,6.2381,6.2381,6.2381,6.2381,6.2381,6.2381,6.2245,6.1535,6.1366,6.14,6.1332,6.0723,6.0114,6.0114,5.9505,5.8727,5.8051,5.7881,5.7881,5.7881,5.6799,5.5547,5.4668,5.3247,5.2198,0.0,0.0,0.0,0.0,0.0,4.9492,4.8041,0.0,0.0,4.6007,4.6955,4.7124,0.0,4.621,0.0,0.0,0.0,0.0,4.7973,5.1725,5.4668,5.6697,5.8321,5.9776,6.1095,6.0351,6.0452,6.1298,6.1298,6.2076,6.3396,6.3316,6.4086,6.5504,6.6348,6.6728,6.6948,6.8335,6.8944,6.9079,6.9823,7.0973,7.2124,6.1502,6.224,6.3502,6.6365,6.8766,7.0859,7.2491,7.4491,7.5969,7.6369,7.64,7.6277,7.5846,7.6184,7.64,7.64,7.6154,7.5723,7.5046,7.3106,7.166,7.0921,6.9351,6.8058,6.7135,6.3933,6.1379,0.0,0.0,0.0,0.0,0.0,0.0,0.0,0.0,5.5263,5.5409,5.5301,5.6115,5.7475,5.8703,5.941,5.9887,6.1404,6.1816,6.1635,6.2223,6.2381,6.2381,6.2381,6.2381,6.2381,6.2381,6.2381,6.2245,6.1535,6.1603,6.1873,6.1434,6.1061,6.0825,6.0825,6.025,5.9471,5.8727,5.8558,5.8423,5.7983,5.707,5.6292,5.5953,5.4702,5.3687,0.0,0.0,0.0,0.0,0.0,0.0,4.7428,0.0,4.7158,4.5838,4.665,4.7192,0.0,0.0,0.0,0.0,0.0,0.0,4.9187,0.0,5.4363,5.6122,5.8051,5.9539,6.0588,6.0757,6.1231,6.1975,6.2415,6.3193,6.4208,6.5121,6.5831,6.644,6.7692,6.8199,6.8233,6.8876,6.9383,6.9789,7.0094,7.1109,7.236,6.4395,6.4888,6.6027,6.9228,7.0521,7.1752,7.3691,7.4584,7.5107,7.5384,7.5415,7.5384,7.5292,7.5538,7.5723,7.5723,7.5723,7.5353,7.4461,7.2891,7.1567,7.0644,6.9505,0.0,6.7935,6.5657,6.3472,6.1379,5.8885,0.0,0.0,0.0,0.0,0.0,5.5998,5.6232,5.5992,5.5992,5.67,5.7894,5.8908,5.9451,5.9795,6.1475,6.1824,6.1513,6.2183,6.2381,6.2381,6.2381,6.2381,6.2381,6.2381,6.2381,6.2279,6.1772,6.1975,6.2279,6.1772,6.1637,6.1501,6.1061,6.052,5.9844,5.8896,5.8693,5.8524,5.8017,5.7306,5.6799,5.6799,5.5581,5.46,5.46,0.0,0.0,0.0,5.0304,0.0,4.7327,4.7293,4.7056,4.6109,4.6887,4.7564,0.0,0.0,0.0,0.0,0.0,0.0,0.0,0.0,0.0,5.6021,5.822,5.9708,6.0452,6.1467,6.2212,6.2753,6.3937,6.4749,6.5324,6.6846,6.7489,6.759,6.8876,6.9316,6.9147,6.9586,6.9925,7.0229,7.0669,7.165,7.2732,6.6334,6.7412,6.8735,7.1475,7.3045,7.3968,7.3999,7.4584,7.4769,7.4091,7.403,7.4522,7.5846,7.5415,7.5015,7.5015,7.5015,7.4461,7.3106,7.2368,7.1352,0.0,0.0,6.8581,6.7935,6.6581,6.4857,6.2794,0.0,0.0,5.6779,0.0,5.6053,5.6779,5.6779,5.6779,5.681,5.681,5.7179,5.7912,5.9106,5.9996,6.0724,6.1936,6.2381,6.2381,6.2381,6.2381,6.2381,6.2381,6.2381,6.2381,6.2381,6.2381,6.2381,6.2381,6.2381,6.2381,6.2381,6.2381,6.2009,6.0486,6.0114,5.9708,5.8254,5.7915,5.7915,5.7881,5.7306,5.6799,5.6799,5.5581,5.46,5.46,0.0,0.0,0.0,0.0,0.0,4.8142,4.8545,4.8409,4.6921,4.8105,0.0,0.0,0.0,0.0,0.0,0.0,0.0,5.0067,5.23,0.0,5.6765,5.8998,6.0486,6.1298,6.2787,6.3497,6.3565,6.5764,6.6779,6.688,6.8402,6.9079,6.9147,6.9857,6.9755,6.9248,7.0703,7.0838,7.0364,7.1853,7.2834,7.3477,6.9197,6.9813,7.0367,7.1752,7.2706,7.3137,7.2706,7.2798,7.3014,7.326,7.2891,7.2952,7.3845,7.4153,7.4122,0.0,7.363,7.326,0.0,7.1198,7.0367,6.9905,6.9259,6.8797,6.8581,6.772,6.6273,6.4241,0.0,0.0,0.0,5.79,5.7438,5.684,5.7303,5.7765,5.8146,5.8146,5.827,5.8591,5.9809,6.0126,6.0087,6.1776,6.2381,6.2381,6.2381,6.2381,6.2381,6.2381,6.2381,6.2381,6.2381,6.2381,6.2381,6.2381,6.2381,6.2381,6.2381,6.2381,6.2279,6.1772,6.1298,6.0655,5.9641,5.8626,5.7881,5.7881,5.7712,5.7543,5.7543,5.6765,5.5953,5.5446,5.4329,0.0,0.0,0.0,0.0,4.8075,4.8578,4.824,4.6244,4.7834,0.0,0.0,0.0,0.0,0.0,0.0,0.0,0.0,5.3822,0.0,5.7509,5.9776,6.1298,6.2042,6.3057,6.4038,6.5019,6.6271,6.7083,6.7658,6.918,6.9857,6.9891,7.0635,7.0804,7.0669,7.1142,7.1176,7.1075,7.2056,7.2776,7.3345,6.9786,7.0336,7.0675,7.1105,7.1752,7.206,7.1629,7.1567,7.1721,7.2152,7.1844,7.1752,7.2152,7.2583,0.0,7.2614,7.2368,7.1906,7.1229,7.0367,6.9782,6.9536,6.9105,6.8889,6.8889,6.8489,0.0,6.6027,6.4303,6.1963,5.9162,5.8885,5.8454,5.7931,5.8331,5.8762,5.9162,5.9162,5.9162,5.9271,6.0224,6.0514,6.0509,6.1869,6.2381,6.2381,6.2381,6.2381,6.2381,6.2381,6.2381,6.2381,6.2381,6.2381,6.2381,6.2381,6.2381,6.2381,6.2381,6.2381,6.2313,6.2042,6.14,6.0554,5.9505,5.8558,5.7881,5.7881,5.7881,5.7881,5.7881,5.707,5.6258,5.5749,5.4465,5.2976,5.142,0.0,0.0,0.0,0.0,0.0,0.0,4.9018,4.9323,0.0,0.0,0.0,0.0,0.0,0.0,5.3112,5.5074,0.0,5.8693,6.0452,6.167,6.2415,6.37,6.5087,6.6542,6.759,6.847,6.9248,7.0195,7.077,7.1041,7.1244,7.1312,7.1312,7.1312,7.1312,7.1413,7.2124,7.2683,7.3238,6.8566,6.9325,6.9755,6.9905,7.0459,7.089,7.0828,7.0828,7.0828,7.0828,7.0828,7.0828,7.0828,7.0828,7.1105,7.1783,0.0,0.0,6.9874,6.9813,6.9536,6.892,6.8889,6.8858,6.8828,6.8828,6.8489,6.7781,6.458,6.2025,6.0055,5.9378,5.9378,5.9932,5.987,5.987,5.987,5.987,5.9839,5.9858,6.0355,6.0974,6.1588,6.2089,6.2341,6.2381,6.2381,6.2415,6.2448,6.2415,6.2415,6.2448,6.2415,6.2381,6.2381,6.2381,6.2381,6.2381,6.2381,6.2381,6.2212,6.1467,6.0689,5.9708,5.822,5.7915,5.7949,5.7915,5.7881,5.7881,5.7881,5.6731,5.5784,5.5716,5.4532,5.3044,5.1422,0.0,0.0,0.0,0.0,0.0,5.1082,5.1252,5.1048,0.0,0.0,0.0,0.0,0.0,5.3315,5.4634,5.6156,5.7983,6.0148,6.1028,6.1839,6.2651,6.4749,6.6508,6.7963,6.9485,7.0567,7.1244,7.1312,7.1718,7.2326,7.1616,7.1345,7.1379,7.1345,7.1345,7.1481,7.2146,7.2751,7.3258,0.0,0.0,6.8698,6.9695,7.0459,7.0736,7.0213,7.012,7.012,7.012,7.012,7.012,7.012,7.012,7.0213,7.0367,7.0244,6.9843,6.9166,6.9135,6.9043,6.8889,6.8889,6.8643,6.815,6.815,6.7566,6.6396,6.5565,6.4395,6.2856,6.2179,6.1656,6.1317,6.0794,6.0547,6.0547,6.0547,6.027,5.9818,6.0168,6.0508,6.0862,6.1192,6.179,6.2381,6.2381,6.2753,6.3159,6.2584,6.2753,6.3159,6.2584,6.2381,6.2381,6.2381,6.2381,6.2381,6.2381,6.2381,6.2212,6.1467,6.0689,5.9708,5.822,5.8355,5.8592,5.8017,5.7881,5.7881,5.7881,5.7137,5.6359,5.5818,5.4938,5.3585,5.1522,5.1691,0.0,0.0,5.1623,5.2097,5.0507,5.1928,5.2401,0.0,0.0,0.0,5.3518,5.5446,5.6224,5.548,5.7442,5.9302,6.0994,6.2313,6.3632,6.4918,6.6034,6.7015,6.7963,6.9485,7.0297,7.05,7.1075,7.1718,7.2326,7.1616,7.165,7.209,7.1548,7.165,7.2179,7.2738,7.3211,7.3711,6.7081,6.7909,6.8606,6.9294,6.9751,6.9843,6.9505,6.9443,6.9443,6.9443,6.9443,6.9443,6.9443,6.9443,6.9443,6.9443,6.9443,6.9289,6.892,6.8889,6.8889,6.8889,6.8889,6.8735,6.8366,6.8089,6.7412,6.6365,6.6365,6.5657,6.4303,6.3595,6.2764,6.1779,6.144,6.1101,6.0794,6.0794,6.0578,6.028,6.0586,6.0786,6.1122,6.1367,6.2055,6.2888,6.2888,6.3396,6.3903,6.3159,6.3193,6.3396,6.2618,6.2381,6.2381,6.2381,6.2381,6.2381,6.2381,6.2381,6.2212,6.1467,6.096,6.0351,5.9167,5.8964,5.8896,5.849,5.8118,5.7881,5.7881,5.7036,5.619,5.5749,5.4499,5.3112,5.1894,5.1758,0.0,5.1657,5.3044,5.3653,5.2739,5.4093,5.4397,5.2875,5.416,0.0,5.46,5.6606,5.7222,5.6118,5.8976,6.0733,6.1147,6.298,6.4416,6.5605,6.6643,6.7521,6.834,6.9948,7.1075,7.1684,7.1413,7.183,7.265,7.1941,7.1748,7.2027,7.1959,7.2195,7.2565,7.2828,7.3194,7.3669,6.6295,6.7698,6.8623,6.8889,6.8889,6.8889,6.8889,6.8889,6.8889,6.8889,6.8889,6.8889,6.8889,6.8889,6.8889,6.8889,6.8889,6.8889,6.8889,6.8889,6.8889,6.8889,6.8889,6.8828,6.8735,6.8089,6.7442,6.6765,6.6858,6.6273,6.5042,6.421,6.3164,6.1963,6.1871,6.1502,6.0948,6.1071,6.104,6.0938,6.1108,6.1281,6.1561,6.183,6.254,6.3465,6.3586,6.414,6.4647,6.3937,6.3666,6.3565,6.2787,6.2482,6.2381,6.2381,6.2381,6.2381,6.2381,6.2313,6.2076,6.1467,6.1298,6.1095,6.0283,5.9641,5.9133,5.9032,5.8423,5.7845,5.7735,5.6518,5.554,5.5675,5.3787,5.2336,5.2436,0.0,5.1898,5.3315,5.4125,5.4902,5.5614,5.6393,5.6292,5.5006,5.6089,5.6359,5.531,5.6963,5.7615,5.6968,6.0178,6.1803,6.1441,6.3183,6.4556,6.5522,6.6901,6.8021,6.8941,7.0636,7.2146,7.3409,7.2146,7.2211,7.3238,7.2451,7.2029,7.1975,7.251,7.2778,7.2878,7.283,7.312,7.3573,6.4885,6.6233,6.7578,6.8682,6.8889,6.8889,6.8889,6.8889,6.8889,6.8889,6.8889,6.8889,6.8889,6.8889,6.8889,6.8889,6.8889,6.8889,6.8889,6.8889,6.8889,6.8889,6.8889,6.8612,6.8089,6.7412,6.6735,6.6057,6.6642,6.6519,6.5719,6.4426,6.341,6.2641,6.2056,6.1748,6.1686,6.2271,6.2179,6.1594,6.1041,6.104,6.1313,6.1607,6.2333,6.3273,6.4125,6.4884,6.5425,6.4681,6.4444,6.4309,6.3565,6.2888,6.2381,6.2381,6.2381,6.2381,6.2381,6.1941,6.1434,6.1332,6.1298,6.1095,6.0283,6.0013,5.9742,5.9133,5.8423,5.7698,5.692,5.5647,5.4882,5.5443,5.3715,5.2529,5.3214,0.0,5.2462,5.3416,5.411,5.4837,5.5612,5.6393,5.6697,5.6494,5.6664,5.7239,5.8254,5.9064,5.9308,5.9037,5.9621,6.1077,6.343,6.3122,6.3966,6.5971,6.6842,6.8115,6.9671,7.1197,7.2481,7.3477,7.3008,7.3319,7.3979,7.3002,7.2926,7.338,7.2926,7.3093,7.3614,7.3338,7.3789,7.4356,6.4503,6.5922,6.7306,6.8682,6.8889,6.8889,6.8889,6.8889,6.8889,6.8889,6.8889,6.8889,6.8889,6.8889,6.8889,6.8889,6.8889,6.8889,6.8889,6.8889,6.8889,6.8889,6.8889,6.8427,6.7412,6.7781,6.7473,6.6457,6.7135,6.7104,6.6427,6.578,6.4734,6.3349,6.3041,6.2702,6.2364,6.2302,6.2086,6.1779,6.1471,6.1286,6.1245,6.1376,6.2366,6.3692,6.3605,6.4753,6.6086,6.4807,6.4741,6.5053,6.4343,6.3869,6.3565,6.3565,6.3024,6.2381,6.2381,6.2144,6.1873,6.1873,6.1873,6.1806,6.14,6.1028,6.0541,5.9633,5.893,5.8085,5.6704,5.5677,5.5161,5.5454,5.3621,0.0,0.0,5.2954,5.2766,5.4364,5.5214,5.5771,5.6141,5.7625,5.8204,5.7356,5.8504,5.9539,6.0216,6.0738,6.1174,6.1437,6.0806,6.2087,6.543,6.4321,6.4729,6.6698,6.7736,6.8486,6.9093,7.1332,7.2496,7.271,7.2845,7.3256,7.3748,7.3283,7.3238,7.3424,7.3458,7.374,7.399,7.3891,7.4073,7.4372,6.4503,6.5922,6.7306,6.8682,6.8889,6.8889,6.8889,6.8889,6.8889,6.8889,6.8889,6.8889,6.8889,6.8889,6.8889,6.8889,6.8889,6.8889,6.8889,6.8889,6.8889,6.8889,6.8889,6.8274,6.695,6.8212,6.8243,6.6919,6.775,6.7812,6.7135,6.6981,6.5996,6.4303,6.3964,6.3533,6.301,6.2333,6.1963,6.1809,6.1809,6.1505,6.1137,6.1383,6.2378,6.3707,6.3126,6.4473,6.621,6.4619,6.4627,6.5228,6.4405,6.4061,6.3886,6.3886,6.3247,6.2615,6.2849,6.2787,6.2685,6.2854,6.2888,6.2815,6.2413,6.1767,6.0918,5.9762,5.9026,5.8096,5.6524,5.5645,5.5208,5.5332,0.0,0.0,0.0,5.3097,5.3032,5.5166,5.5877,5.6362,5.6725,5.8608,5.9275,5.8011,6.0158,6.1637,6.1806,6.2315,6.2875,6.356,6.2263,6.3063,6.6209,6.4879,6.5278,6.7288,6.8167,6.8665,6.9006,7.1079,7.2133,7.2302,7.2598,7.3125,7.374,7.3657,7.3509,7.3409,7.3972,7.4221,7.4221,7.4221,7.4221,7.4221,6.4503,6.5922,6.7306,6.8682,6.8889,6.8889,6.8889,6.8889,6.8889,6.8889,6.8889,6.8889,6.8889,6.8889,6.8889,6.8889,6.8889,6.8889,6.8889,6.8889,6.8889,6.8889,6.8889,6.8274,6.695,6.8212,6.8243,6.6919,6.8181,6.8489,6.7843,6.7196,6.6488,6.5688,6.4395,6.3756,6.3664,6.3041,6.2394,6.1809,6.1809,6.1431,6.0908,6.1859,6.2323,6.2568,6.3402,6.446,6.5248,6.4197,6.4014,6.4145,6.3153,6.2379,6.1815,6.1815,6.2387,6.323,6.4166,6.3937,6.3599,6.4275,6.4444,6.4038,6.2482,6.1542,6.0522,5.8873,5.7956,5.7141,5.6188,5.496,5.4316,5.494,0.0,0.0,5.4002,5.3419,5.3426,5.5028,5.5154,5.5697,5.7106,5.8183,5.8734,5.8628,6.093,6.2618,6.3328,6.3809,6.4355,6.5127,6.3227,6.3016,6.4642,6.3648,6.4566,6.7459,6.713,6.819,7.0438,7.0214,7.1219,7.3089,7.2881,7.3464,7.4506,7.4256,7.4122,7.4105,7.4188,7.4221,7.4221,7.4221,7.4221,7.4221,6.33,6.3988,6.5076,6.7245,6.7638,6.7939,6.8772,6.8889,6.8889,6.8889,6.8889,6.8889,6.8889,6.8889,6.8889,6.8889,6.8889,6.8889,6.8889,6.8889,6.8889,6.8889,6.8889,6.8458,6.7566,6.8427,6.8458,6.7535,6.8458,6.8551,6.7935,6.8058,6.7566,6.6488,6.5534,6.5103,6.5042,6.3903,6.3041,6.2425,6.2425,6.1779,6.0845,6.1226,6.1753,6.227,6.2022,6.2988,6.4281,6.3693,6.3707,6.4002,6.446,6.4123,6.3638,6.4091,6.4132,6.4276,6.5115,6.463,6.3905,6.3957,6.3977,6.3789,6.3211,6.2782,6.225,6.0991,6.0307,5.9447,5.798,5.7088,5.6491,5.627,0.0,5.4496,5.5196,5.492,5.5072,5.6181,5.667,5.7119,5.7732,5.9379,6.0205,5.9672,6.224,6.3944,6.424,6.4839,6.5306,6.5614,6.425,6.4186,6.5605,6.4689,6.537,6.7548,6.8144,6.8669,6.9177,7.0941,7.1714,7.1669,7.3044,7.3935,7.4272,7.3441,7.3096,7.2992,7.2272,7.2432,7.3096,7.3096,7.3544,7.4221,6.2536,6.2773,6.3562,6.586,6.6634,6.7184,6.8118,6.8623,6.8889,6.8889,6.8889,6.8889,6.8889,6.8889,6.8889,6.8889,6.8889,6.8889,6.8889,6.8889,6.8982,6.9197,6.9012,6.8674,6.8243,6.8458,6.8366,6.7935,6.8366,6.8458,6.8243,6.8674,6.8397,6.7504,6.6611,6.6119,6.5811,6.4426,6.3441,6.2825,6.2825,6.2148,6.1101,6.1101,6.1536,6.2066,6.1361,6.2343,6.3869,6.3318,6.3481,6.4063,6.4679,6.4548,6.431,6.5087,6.5105,6.5072,6.5796,6.5578,6.5053,6.4705,6.4302,6.3948,6.3838,6.3661,6.3179,6.2003,6.1512,6.0897,5.9661,5.8812,5.8185,5.7903,5.7008,5.6477,5.6824,5.6946,5.7188,5.7825,5.8498,5.8936,5.8936,6.0661,6.1487,6.0866,6.3453,6.5142,6.5401,6.5902,6.616,6.616,6.5371,6.5491,6.6628,6.554,6.5994,6.8106,6.8559,6.8719,6.8613,7.0354,7.0798,7.0149,7.181,7.2697,7.2992,7.2165,7.1842,7.1756,7.0933,7.1099,7.1842,7.1842,7.2591,7.3595,6.2536,6.2773,6.3235,6.4567,6.5922,6.6879,6.6879,6.7998,6.8889,6.8889,6.8889,6.8889,6.8889,6.8889,6.8889,6.8889,6.8889,6.8889,6.8889,6.8889,6.9197,6.9874,6.9259,6.8889,6.8889,6.8274,6.7935,6.7935,6.7935,6.8243,6.8889,6.8889,6.8889,6.8828,6.7504,6.655,6.5811,6.4426,6.3441,6.2825,6.2825,6.2425,6.1809,6.1809,6.1809,6.1809,6.1809,6.2893,6.4149,6.3167,6.3453,6.4098,6.3114,6.2825,6.3039,6.3994,6.4808,6.5533,6.6196,6.6859,6.7314,6.6992,6.5869,6.4755,6.44,6.3798,6.2852,6.1155,6.0824,6.0824,6.0824,5.9716,5.9039,5.9686,5.867,5.8104,5.8701,5.9378,5.9809,5.9809,6.0393,6.0824,6.0824,6.1652,6.2221,6.2221,6.4446,6.616,6.6904,6.6969,6.6969,6.6887,6.658,6.6701,6.7427,6.5747,6.635,6.9207,6.7958,6.8096,6.9236,6.8059,6.7969,6.8766,6.8825,6.9521,7.0599,7.0599,7.0599,7.0599,7.0599,7.0599,7.0599,7.0599,7.1319,7.2379,6.1343,6.1411,6.1829,6.3169,6.3728,6.4694,6.6634,6.7245,6.7819,6.8772,6.8889,6.8889,6.8889,6.8889,6.8889,6.8889,6.8889,6.8889,6.8889,6.8889,6.9197,6.9874,6.969,6.9382,6.8889,6.8705,6.8366,6.7935,6.7935,6.8243,6.8889,6.8889,6.8643,6.8181,6.7289,6.655,6.5842,6.4949,6.418,6.3533,6.3533,6.3133,6.2517,6.2517,6.2517,6.2517,6.2517,6.2853,6.3282,6.3456,6.3718,6.4026,6.4227,6.4611,6.4943,6.4777,6.4886,6.5103,6.5289,6.5134,6.5188,6.6542,6.662,6.6137,6.5561,6.5661,6.5496,6.4298,6.3636,6.3299,6.3329,6.2227,6.1269,6.1203,6.1255,6.104,6.0301,6.1194,6.1748,6.1255,6.1809,6.221,6.221,6.2876,6.3313,6.3313,6.444,6.5245,6.5549,6.5549,6.5714,6.6183,6.6105,6.6623,6.7714,6.7275,6.7434,6.8307,6.8424,6.8498,6.8682,6.8945,6.9062,6.9178,6.9808,7.0262,7.0543,6.9693,6.9348,6.9232,6.8384,6.8562,6.9348,6.9348,7.0092,7.1265,6.0782,6.0593,6.0757,6.1801,6.2274,6.3082,6.4983,6.6171,6.7184,6.7998,6.8564,6.8889,6.8889,6.8889,6.8889,6.8889,6.8889,6.8889,6.8889,6.8889,6.9197,6.9874,6.9905,6.969,6.9289,6.852,6.8058,6.7935,6.7381,6.7473,6.812,6.812,6.7904,6.7504,6.7104,6.655,6.5873,6.5472,6.4888,6.4241,6.4241,6.3841,6.3225,6.3225,6.3225,6.3225,6.3225,6.3564,6.4057,6.421,6.4426,6.4734,6.5165,6.5565,6.578,6.5103,6.5288,6.5626,6.538,6.5565,6.5996,6.6735,6.6519,6.615,6.6273,6.6611,6.6739,6.6112,6.5683,6.5376,6.5407,6.4518,6.3807,6.3787,6.3933,6.3841,6.3287,6.3687,6.3903,6.3472,6.3564,6.3626,6.3626,6.4026,6.4241,6.4241,6.4641,6.5011,6.5288,6.5288,6.5719,6.6673,6.6704,6.7227,6.8304,6.8304,6.8304,6.8304,6.8705,6.8713,6.8386,6.8858,6.8858,6.8623,6.8972,6.9205,6.9147,6.869,6.8514,6.8424,6.7966,6.824,6.885,6.885,6.9502,7.0449,6.0674,6.0213,5.9968,6.0511,6.1276,6.194,6.2605,6.492,6.6572,6.6695,6.7759,6.8505,6.8505,6.8623,6.8713,6.8713,6.883,6.8889,6.8889,6.8889,6.9166,6.9782,6.9813,6.9813,6.9813,6.8027,6.7381,6.7997,6.6673,6.6334,6.7012,6.695,6.6888,6.6827,6.6827,6.6457,6.5811,6.5811,6.5472,6.4888,6.4888,6.4518,6.3933,6.3933,6.3964,6.4026,6.4026,6.4857,6.5903,6.5349,6.5565,6.6088,6.6088,6.6088,6.5965,6.5288,6.5996,6.6858,6.6242,6.7442,6.8581,6.7319,6.6119,6.5534,6.6673,6.6981,6.7012,6.6954,6.6954,6.6954,6.6954,6.6401,6.6124,6.6827,6.6457,6.6273,6.6827,6.6427,6.6057,6.5996,6.5442,6.5072,6.5072,6.5072,6.5072,6.5072,6.5072,6.5349,6.5965,6.5996,6.6581,6.7873,6.7935,6.8243,6.8889,6.8889,6.8889,6.8889,6.8889,6.8802,6.8537,6.827,6.8031,6.7698,6.7364,6.718,6.727,6.7809,6.8016,6.8136,6.8764,6.9004,6.9004,6.9004,6.9302,6.9849,5.9996,5.9589,5.9236,5.9371,5.9912,6.0733,6.1912,6.2988,6.4052,6.5139,6.5517,6.5706,6.5706,6.6665,6.7306,6.7306,6.8327,6.8889,6.8889,6.8889,6.8951,6.9105,6.9105,6.9105,6.9105,6.8674,6.852,6.8674,6.735,6.7042,6.7689,6.7165,6.6642,6.6119,6.6119,6.575,6.5103,6.5103,6.5042,6.4888,6.4888,6.4795,6.4672,6.4672,6.5011,6.5442,6.5442,6.5996,6.6765,6.7135,6.7381,6.7473,6.7473,6.7473,6.735,6.6673,6.7073,6.7658,6.7535,6.8181,6.8705,6.7904,6.7873,6.7812,6.7073,6.7319,6.7631,6.7369,6.7341,6.7341,6.7311,6.6759,6.6418,6.6831,6.7227,6.735,6.6981,6.7258,6.7289,6.6765,6.655,6.6488,6.6488,6.6488,6.6488,6.6488,6.6488,6.655,6.6704,6.6704,6.7073,6.7904,6.7935,6.8243,6.8889,6.8889,6.8889,6.8889,6.8889,6.9166,6.954,6.9241,6.9366,6.9824,6.8666,6.848,6.8932,6.826,6.8286,6.8794,6.8944,6.9004,6.9004,6.9004,6.9073,6.9327,5.9453,5.8964,5.8747,5.9317,5.9453,5.9912,6.1142,6.2208,6.3037,6.3728,6.4374,6.4822,6.4822,6.6047,6.7123,6.7819,6.8505,6.8889,6.8889,6.8889,6.8889,6.8889,6.8889,6.9043,6.9351,6.9043,6.8735,6.8427,6.7412,6.7104,6.7442,6.7073,6.6735,6.6365,6.6057,6.5719,6.5349,6.5042,6.4888,6.4888,6.4888,6.5103,6.538,6.538,6.578,6.6396,6.6396,6.6611,6.7073,6.8058,6.8181,6.7935,6.7935,6.7935,6.7843,6.7504,6.7873,6.8397,6.8397,6.9105,6.9628,6.8612,6.8889,6.9012,6.7689,6.7904,6.8308,6.8191,6.8132,6.8132,6.8132,6.7825,6.7669,6.7843,6.815,6.8274,6.7904,6.7904,6.7781,6.7442,6.7104,6.6919,6.6919,6.6919,6.6919,6.6919,6.7227,6.7412,6.7412,6.7997,6.8489,6.8858,6.9166,6.9505,6.9843,6.9843,6.9843,6.9843,6.9505,6.972,7.0367,7.0096,7.0098,7.0435,6.9394,6.9207,6.9446,6.9133,6.9153,6.9512,6.9782,6.9901,6.9901,6.9901,6.9722,6.949,5.891,5.834,5.8259,5.9371,5.9263,5.9371,6.0457,6.1639,6.247,6.247,6.3431,6.4146,6.4146,6.5547,6.7062,6.8446,6.8772,6.8889,6.8889,6.8889,6.8889,6.8889,6.8889,6.9135,6.972,6.9166,6.8674,6.8274,6.735,6.6919,6.6919,6.6796,6.6735,6.6735,6.6273,6.6088,6.6027,6.5472,6.5226,6.5226,6.5226,6.5565,6.6088,6.6088,6.6488,6.7104,6.7104,6.7165,6.7412,6.852,6.852,6.812,6.8243,6.8274,6.8274,6.8397,6.8889,6.9413,6.9413,7.0336,7.0952,6.972,6.9843,6.9936,6.8705,6.8674,6.892,6.9043,6.8951,6.8889,6.8889,6.8889,6.8889,6.8889,6.8889,6.8889,6.8889,6.8427,6.8089,6.8089,6.7596,6.7258,6.7258,6.735,6.7412,6.7412,6.8058,6.8427,6.8427,6.9474,7.0059,7.0059,7.0613,7.089,7.089,7.089,7.0952,7.1075,7.0521,7.0551,7.1075,7.0862,7.0832,7.0863,7.0124,6.9812,6.9901,6.9973,7.0051,7.0201,7.0709,7.0889,7.0889,7.0769,7.041,6.9812,5.8123,5.7716,5.7526,5.8205,5.8693,5.9236,5.9914,6.0634,6.1098,6.1098,6.1207,6.1343,6.1343,6.3562,6.5672,6.7062,6.8268,6.8889,6.8889,6.8889,6.8889,6.8889,6.8889,6.892,6.9012,6.8951,6.9135,6.9628,6.7812,6.6919,6.6919,6.6334,6.6057,6.6057,6.655,6.6765,6.6765,6.6673,6.6642,6.6642,6.6642,6.6704,6.6765,6.6765,6.7196,6.7781,6.7781,6.815,6.8643,6.8828,6.8828,6.8858,6.9443,6.9628,6.9751,7.0336,7.1013,7.1567,7.1567,7.2121,7.2521,7.1752,7.1629,7.1475,7.0675,6.9659,6.9043,6.9628,6.9289,6.8889,6.8889,6.8889,6.8889,6.8889,6.8889,6.8889,6.8889,6.8797,6.8766,6.8766,6.8674,6.8612,6.8612,6.9135,6.9474,6.9474,7.012,7.049,7.049,7.0675,7.0767,7.0767,7.0859,7.089,7.089,7.089,7.1229,7.1813,7.1752,7.1752,7.1813,7.1844,7.2091,7.2613,7.1317,7.1094,7.1547,7.0427,7.029,7.0799,7.0859,7.0889,7.0829,7.029,7.0051,6.9871,5.8015,5.7852,5.7988,5.891,5.9317,5.9697,6.0294,6.0593,6.0782,6.0782,6.0782,6.0782,6.0782,6.2536,6.4567,6.6695,6.6727,6.691,6.7759,6.7759,6.7759,6.7759,6.8505,6.8889,6.8889,6.8889,6.9043,6.932,6.8458,6.8027,6.7997,6.772,6.7566,6.7566,6.7504,6.7473,6.7442,6.7073,6.6919,6.6919,6.6919,6.7135,6.7473,6.7473,6.7873,6.8458,6.8458,6.8643,6.8889,6.8889,6.9135,6.9505,6.9813,7.0151,7.0582,7.129,7.1721,7.206,7.2429,7.2768,7.2922,7.2614,7.2552,7.246,7.2152,7.1321,7.0582,7.049,7.0213,6.9997,6.9997,6.969,6.9443,6.9443,6.9135,6.8889,6.8889,6.8889,6.9012,6.9413,6.9782,6.9997,6.9997,7.0274,7.0459,7.0459,7.1105,7.1321,7.0921,7.166,7.1906,7.1506,7.1875,7.206,7.206,7.206,7.2214,7.2552,7.2552,7.2552,7.2552,7.2552,7.2706,7.2952,7.1562,7.1339,7.1883,7.0581,7.035,7.0889,7.0889,7.0889,7.0829,7.0201,6.9752,6.9333]}]]